[[{"header":{"parameterUnit":"m.s-1","parameterCategory":1,"la1":30.6,"la2":29.2853,"lo1":-89.7004,"lo2":-87.6739,"dy":0.0162,"dx":0.0183,"nx":112,"ny":82,"refTime":"2024-06-08T00:00:00:Z","depth":0,"parameterNumber":2,"parameterNumberName":"U-component_of_WINDS"},"data":[0.0,0.0,0.0,0.0,0.0,0.0,0.0,0.0,0.0,0.0,0.0,0.0,0.0,0.0,0.0,0.0,0.0,0.0,0.0,0.0,0.0,0.0,0.0,0.0,0.0,0.0,0.0,0.0,0.0,0.0,0.0,0.0,0.0,0.0,0.0,0.0,0.0,0.0,0.0,0.0,0.0,0.0,0.0,0.0,0.0,0.0,0.0,0.0,0.0,0.0,0.0,0.0,0.0,0.0,0.0,0.0,0.0,0.0,0.0,0.0,0.0,0.0,0.0,0.0,0.0,0.0,0.0,0.0,0.0,0.0,0.0,0.0,0.0,0.0,0.0,0.0,0.0,0.0,0.0,0.0,0.0,0.0,0.0,0.0,0.0,0.0,0.0,0.0,0.0,0.0,0.0,1.7749,1.8322,1.8302,1.7394,1.7229,1.6554,1.4979,0.0,0.0,0.0,0.0,0.0,0.0,0.0,0.0,0.0,0.0,0.0,0.0,0.0,0.0,0.0,0.0,0.0,0.0,0.0,0.0,0.0,0.0,0.0,0.0,0.0,0.0,0.0,0.0,0.0,0.0,0.0,0.0,0.0,0.0,0.0,0.0,0.0,0.0,0.0,0.0,0.0,0.0,0.0,0.0,0.0,0.0,0.0,0.0,0.0,0.0,0.0,0.0,0.0,0.0,0.0,0.0,0.0,0.0,0.0,0.0,0.0,0.0,0.0,0.0,0.0,0.0,0.0,0.0,0.0,0.0,0.0,0.0,0.0,0.0,0.0,0.0,0.0,0.0,0.0,0.0,0.0,0.0,0.0,0.0,0.0,0.0,0.0,0.0,0.0,0.0,0.0,0.0,0.0,0.0,0.0,0.0,0.0,0.0,0.0,0.0,0.0,0.0,0.0,0.0,1.6462,1.8502,1.8004,1.7463,1.7312,1.6879,1.6128,1.4979,0.0,0.0,0.0,0.0,0.0,0.0,0.0,0.0,0.0,0.0,0.0,0.0,0.0,0.0,0.0,0.0,0.0,0.0,0.0,0.0,0.0,0.0,0.0,0.0,0.0,0.0,0.0,0.0,0.0,0.0,0.0,0.0,0.0,0.0,0.0,0.0,0.0,0.0,0.0,0.0,0.0,0.0,0.0,0.0,0.0,0.0,0.0,0.0,0.0,0.0,0.0,0.0,0.0,0.0,0.0,0.0,0.0,0.0,0.0,0.0,0.0,0.0,0.0,0.0,0.0,0.0,0.0,0.0,0.0,0.0,0.0,0.0,0.0,0.0,0.0,0.0,0.0,0.0,0.0,0.0,0.0,0.0,0.0,0.0,0.0,0.0,0.0,0.0,0.0,0.0,0.0,0.0,0.0,0.0,0.0,0.0,0.0,0.0,0.0,0.0,0.0,0.0,0.0,1.5955,1.6527,1.7882,1.7585,1.7188,1.6879,1.6637,1.5907,1.4551,1.3678,0.0,0.0,0.0,0.0,0.0,0.0,0.0,0.0,0.0,0.0,0.0,0.0,0.0,0.0,0.0,0.0,0.0,0.0,0.0,0.0,0.0,0.0,0.0,0.0,0.0,0.0,0.0,0.0,0.0,0.0,0.0,0.0,0.0,0.0,0.0,0.0,0.0,0.0,0.0,0.0,0.0,0.0,0.0,0.0,0.0,0.0,0.0,0.0,0.0,0.0,0.0,0.0,0.0,0.0,0.0,0.0,0.0,0.0,0.0,0.0,0.0,0.0,0.0,0.0,0.0,0.0,0.0,0.0,0.0,0.0,0.0,0.0,0.0,0.0,0.0,0.0,0.0,0.0,0.0,0.0,0.0,0.0,0.0,0.0,0.0,0.0,0.0,0.0,0.0,0.0,0.0,0.0,0.0,0.0,0.0,0.0,0.0,0.0,0.0,0.0,0.0,0.0,1.6963,1.6979,1.7276,1.7188,1.6909,1.6324,1.6213,1.5507,1.3997,1.3095,0.0,0.0,0.0,0.0,0.0,0.0,0.0,0.0,0.0,0.0,0.0,0.0,0.0,0.0,0.0,0.0,0.0,0.0,0.0,0.0,0.0,0.0,0.0,0.0,0.0,0.0,0.0,0.0,0.0,0.0,0.0,0.0,0.0,0.0,0.0,0.0,0.0,0.0,0.0,0.0,0.0,0.0,0.0,0.0,0.0,0.0,0.0,0.0,0.0,0.0,0.0,0.0,0.0,0.0,0.0,0.0,0.0,0.0,0.0,0.0,0.0,0.0,0.0,0.0,0.0,0.0,0.0,0.0,0.0,0.0,0.0,0.0,0.0,0.0,0.0,0.0,0.0,0.0,0.0,0.0,0.0,0.0,0.0,0.0,0.0,0.0,0.0,0.0,0.0,0.0,0.0,0.0,0.0,0.0,0.0,0.0,0.0,0.0,0.0,0.0,0.0,0.0,1.6993,1.7796,1.734,1.6837,1.6324,1.572,1.5331,1.4595,1.3335,1.1827,0.0,0.0,0.0,0.0,0.0,0.0,0.0,0.0,0.0,0.0,0.0,0.0,0.0,0.0,0.0,0.0,0.0,0.0,0.0,0.0,0.0,0.0,0.0,0.0,0.0,0.0,0.0,0.0,0.0,0.0,0.0,0.0,0.0,0.0,0.0,0.0,0.0,0.0,0.0,0.0,0.0,0.0,0.0,0.0,0.0,0.0,0.0,0.0,0.0,0.0,0.0,0.0,0.0,0.0,0.0,0.0,0.0,0.0,0.0,0.0,0.0,0.0,0.0,0.0,0.0,0.0,0.0,0.0,0.0,0.0,0.0,0.0,0.0,0.0,0.0,0.0,0.0,0.0,0.0,0.0,0.0,0.0,0.0,0.0,0.0,0.0,0.0,0.0,0.0,0.0,0.0,0.0,0.0,0.0,0.0,0.0,0.0,0.0,0.0,0.0,0.0,0.0,1.5937,1.6533,0.0,1.6637,1.6238,1.5632,1.5825,1.5024,1.2838,0.0,0.0,0.0,0.0,0.0,0.0,0.0,0.0,0.0,0.0,0.0,0.0,0.0,0.0,0.0,0.0,0.0,0.0,0.0,0.0,0.0,0.0,0.0,0.0,0.0,0.0,0.0,0.0,0.0,0.0,0.0,0.0,0.0,0.0,0.0,0.0,0.0,0.0,0.0,0.0,0.0,0.0,0.0,0.0,0.0,0.0,0.0,0.0,0.0,0.0,0.0,0.0,0.0,0.0,0.0,0.0,0.0,0.0,0.0,0.0,0.0,0.0,0.0,0.0,0.0,0.0,0.0,0.0,0.0,0.0,0.0,0.0,0.0,0.0,0.0,0.0,0.0,0.0,0.0,0.0,0.0,0.0,0.0,0.0,0.0,0.0,0.0,0.0,0.0,0.0,0.0,0.0,0.0,0.0,0.0,0.0,0.0,0.0,0.0,0.0,0.0,0.0,1.4922,1.5681,1.6124,0.0,1.6324,1.5964,1.5365,1.5588,1.4713,1.2254,0.0,0.0,0.0,0.0,0.0,0.0,0.0,0.0,0.0,0.0,0.0,0.0,0.0,0.0,0.0,0.0,0.0,0.0,0.0,0.0,0.0,0.0,0.0,0.0,0.0,0.0,0.0,0.0,0.0,0.0,0.0,0.0,0.0,0.0,0.0,0.0,0.0,0.0,0.0,0.0,0.0,0.0,0.0,0.0,0.0,0.0,0.0,0.0,0.0,0.0,0.0,0.0,0.0,0.0,0.0,0.0,0.0,0.0,0.0,0.0,0.0,0.0,0.0,0.0,0.0,0.0,0.0,0.0,0.0,0.0,0.0,0.0,0.0,0.0,0.0,0.0,0.0,0.0,0.0,0.0,0.0,0.0,0.0,0.0,0.0,0.0,0.0,0.0,0.0,0.0,0.0,0.0,0.0,0.0,0.0,0.0,0.0,0.0,0.0,0.0,0.0,0.0,1.5045,1.6436,1.7076,1.6552,1.5952,1.5365,1.4744,1.4361,1.3386,0.0,0.0,0.0,0.0,0.0,0.0,0.0,0.0,0.0,0.0,0.0,0.0,0.0,0.0,0.0,0.0,0.0,0.0,0.0,0.0,0.0,0.0,0.0,0.0,0.0,0.0,0.0,0.0,0.0,0.0,0.0,0.0,0.0,0.0,0.0,0.0,0.0,0.0,0.0,0.0,0.0,0.0,0.0,0.0,0.0,0.0,0.0,0.0,0.0,0.0,0.0,0.0,0.0,0.0,0.0,0.0,0.0,0.0,0.0,0.0,0.0,0.0,0.0,0.0,0.0,0.0,0.0,0.0,0.0,0.0,0.0,0.0,0.0,0.0,0.0,0.0,0.0,0.0,0.0,0.0,0.0,0.0,0.0,0.0,0.0,0.0,0.0,0.0,0.0,0.0,0.0,0.0,0.0,0.0,0.0,0.0,0.0,0.0,0.0,0.0,0.0,0.0,0.0,1.5185,1.619,1.6527,1.5908,1.6095,1.5832,1.4801,1.5381,1.4749,1.2226,0.0,0.0,0.0,0.0,0.0,0.0,0.0,0.0,0.0,0.0,0.0,0.0,0.0,0.0,0.0,0.0,0.0,0.0,0.0,0.0,0.0,0.0,0.0,0.0,0.0,0.0,0.0,0.0,0.0,0.0,0.0,0.0,0.0,0.0,0.0,0.0,0.0,0.0,0.0,0.0,0.0,0.0,0.0,0.0,0.0,0.0,0.0,0.0,0.0,0.0,0.0,0.0,0.0,0.0,0.0,0.0,0.0,0.0,0.0,0.0,0.0,0.0,0.0,0.0,0.0,0.0,0.0,0.0,0.0,0.0,0.0,0.0,0.0,0.0,0.0,0.0,0.0,0.0,0.0,0.0,0.0,0.0,0.0,0.0,0.0,0.0,0.0,0.0,0.0,0.0,0.0,0.0,0.0,0.0,0.0,0.0,0.0,0.0,0.0,0.0,0.0,0.0,1.5246,1.5875,1.6008,1.5632,1.5499,1.5242,1.4744,1.5377,1.4887,1.2765,0.0,0.0,0.0,0.0,0.0,0.0,0.0,0.0,0.0,0.0,0.0,0.0,0.0,0.0,0.0,0.0,0.0,0.0,0.0,0.0,0.0,0.0,0.0,0.0,0.0,0.0,0.0,0.0,0.0,0.0,0.0,0.0,0.0,0.0,0.0,0.0,0.0,0.0,0.0,0.0,0.0,0.0,0.0,0.0,0.0,0.0,0.0,0.0,0.0,0.0,0.0,0.0,0.0,0.0,0.0,0.0,0.0,0.0,0.0,0.0,0.0,0.0,0.0,0.0,0.0,0.0,0.0,0.0,0.0,0.0,0.0,0.0,0.0,0.0,0.0,0.0,0.0,0.0,0.0,0.0,0.0,0.0,0.0,0.0,0.0,0.0,0.0,0.0,0.0,0.0,0.0,0.0,0.0,0.0,0.0,0.0,0.0,0.0,0.0,0.0,0.0,0.0,1.5188,1.5533,1.5588,1.5543,1.4549,1.4097,1.4652,1.4744,1.4344,1.3321,0.0,0.0,0.0,0.0,0.0,0.0,0.0,0.0,0.0,0.0,0.0,0.0,0.0,0.0,0.0,0.0,0.0,0.0,0.0,0.0,0.0,0.0,0.0,0.0,0.0,0.0,0.0,0.0,0.0,0.0,0.0,0.0,0.0,0.0,0.0,0.0,0.0,0.0,0.0,0.0,0.0,0.0,0.0,0.0,0.0,0.0,0.0,0.0,0.0,0.0,0.0,0.0,0.0,0.0,0.0,0.0,0.0,0.0,0.0,0.0,1.3473,1.2797,0.0,0.0,0.0,0.0,0.0,0.0,0.0,0.0,0.0,0.0,0.0,0.0,0.0,0.0,0.0,0.0,0.0,0.0,0.0,0.0,0.0,0.0,0.0,0.0,0.0,0.0,0.0,0.0,0.0,0.0,0.0,0.0,0.0,0.0,0.0,0.0,0.0,0.0,0.0,0.0,1.4841,1.5379,1.541,1.4926,1.4652,1.456,1.4709,1.5141,1.5143,1.4571,1.3588,0.0,0.0,0.0,0.0,0.0,0.0,0.0,0.0,0.0,0.0,0.0,0.0,0.0,0.0,0.0,0.0,0.0,0.0,0.0,0.0,0.0,0.0,0.0,0.0,0.0,0.0,0.0,0.0,0.0,0.0,0.0,0.0,0.0,0.0,0.0,0.0,0.0,0.0,0.0,0.0,0.0,0.0,0.0,0.0,0.0,0.0,0.0,0.0,0.0,0.0,0.0,0.0,0.0,0.0,0.0,0.0,0.0,0.0,0.0,1.5379,1.4538,0.0,0.0,0.0,0.0,0.0,0.0,0.0,0.0,0.0,0.0,0.0,0.0,0.0,0.0,0.0,0.0,0.0,0.0,0.0,0.0,0.0,0.0,0.0,0.0,0.0,0.0,0.0,0.0,0.0,0.0,0.0,0.0,0.0,0.0,0.0,0.0,0.0,0.0,0.0,0.0,1.4947,1.5304,1.5221,1.462,1.4297,1.4259,1.4686,1.4971,1.5211,1.5277,1.4488,0.0,0.0,0.0,0.0,0.0,0.0,0.0,0.0,0.0,0.0,0.0,0.0,0.0,0.0,0.0,0.0,0.0,0.0,0.0,0.0,0.0,0.0,0.0,0.0,0.0,0.0,0.0,0.0,0.0,0.0,0.0,0.0,0.0,0.0,0.0,0.0,0.0,0.0,0.0,0.0,0.0,0.0,0.0,0.0,0.0,0.0,0.0,0.0,0.0,0.0,0.0,0.0,0.0,1.8334,1.8871,1.8834,1.9922,2.015,1.9584,1.779,1.6974,1.6873,1.5768,0.0,0.0,0.0,0.0,0.0,0.0,0.0,0.0,0.0,0.0,0.0,0.0,0.0,0.0,0.0,0.0,0.0,0.0,0.0,0.0,0.0,0.0,1.6809,1.7281,1.7517,1.7175,1.532,0.0,0.0,0.0,0.0,0.0,0.0,0.0,0.0,0.0,0.0,0.0,1.5087,1.5159,1.4963,1.4566,1.3932,1.3791,1.4587,1.4697,1.4979,1.5637,1.5277,1.4362,0.0,0.0,0.0,0.0,0.0,0.0,0.0,0.0,0.0,0.0,0.0,0.0,0.0,0.0,0.0,0.0,0.0,0.0,0.0,0.0,0.0,0.0,0.0,0.0,0.0,0.0,0.0,0.0,0.0,0.0,0.0,0.0,1.3031,1.3682,0.0,0.0,0.0,0.0,0.0,0.0,0.0,0.0,0.0,0.0,0.0,0.0,0.0,1.8179,1.9032,1.9685,1.9879,1.9542,2.105,2.1592,2.1247,2.2256,2.2602,2.2514,2.2226,0.0,1.8618,1.7501,0.0,0.0,0.0,0.0,0.0,0.0,0.0,0.0,0.0,0.0,0.0,0.0,0.0,0.0,0.0,0.0,0.0,0.0,0.0,0.0,0.0,0.0,1.8528,1.8172,1.8453,1.8568,1.7819,1.6391,1.5165,1.4944,1.3911,1.2858,0.0,0.0,0.0,0.0,0.0,0.0,1.4485,1.4542,1.4658,1.4997,1.4082,1.3771,1.4416,1.4617,1.4937,1.558,1.562,1.5279,1.4614,1.3107,0.0,0.0,0.0,0.0,0.0,0.0,0.0,0.0,0.0,0.0,0.0,0.0,0.0,0.0,0.0,0.0,0.0,0.0,0.0,0.0,0.0,0.0,0.0,0.0,0.0,0.0,0.0,0.0,0.0,1.2793,1.4249,1.4525,1.4852,1.4839,0.0,0.0,0.0,0.0,0.0,0.0,0.0,0.0,0.0,1.9535,1.9886,2.02,2.0443,2.0989,2.1021,2.0574,2.1255,2.1626,2.1807,2.2267,2.2409,2.2409,2.2409,2.1526,2.0112,1.9814,1.8844,1.7526,0.0,0.0,0.0,0.0,1.72,1.7325,1.8191,1.8377,1.8113,1.7689,0.0,0.0,0.0,0.0,0.0,0.0,0.0,1.7485,1.8142,1.8775,1.9243,1.9303,1.9497,1.9641,1.9595,1.8965,1.8042,1.6995,1.5742,1.4625,1.3815,1.2981,0.0,0.0,0.0,1.376,1.472,1.5016,1.5058,1.4962,1.4498,1.4278,1.4393,1.4505,1.4838,1.5555,1.5647,1.5549,1.5354,1.435,1.3132,0.0,0.0,0.0,0.0,0.0,0.0,0.0,0.0,0.0,0.0,0.0,0.0,0.0,0.0,0.0,0.0,0.0,0.0,0.0,0.0,0.0,0.0,0.0,0.0,0.0,0.0,0.0,0.0,1.4412,1.5495,1.5316,1.6271,1.6509,0.0,0.0,0.0,0.0,0.0,0.0,1.8995,1.9356,1.9978,2.1119,2.1296,2.1332,2.1167,2.1678,2.1706,2.1239,2.1446,2.1768,2.2111,2.2273,2.2288,2.2288,2.2288,2.1998,2.1419,2.127,2.0346,1.9093,1.896,1.8812,1.8733,1.9288,1.9654,2.0012,2.0966,2.1204,2.0978,2.03,1.9444,1.8462,1.7099,0.0,0.0,0.0,0.0,1.834,1.9092,1.94,1.9552,1.9808,1.9971,2.01,2.0237,2.0238,1.9855,1.8495,1.754,1.6532,1.5325,1.4337,0.0,1.3431,1.3641,1.4131,1.4934,1.528,1.5371,1.4988,1.4844,1.4681,1.4348,1.4364,1.4628,1.5119,1.5276,1.5465,1.5657,1.5166,1.4287,1.3069,0.0,0.0,0.0,0.0,0.0,0.0,0.0,0.0,0.0,0.0,0.0,0.0,0.0,0.0,0.0,0.0,0.0,0.0,0.0,0.0,0.0,0.0,0.0,0.0,0.0,0.0,0.0,0.0,0.0,1.6509,1.7426,0.0,0.0,0.0,0.0,1.8078,1.956,2.0769,2.1292,2.1003,2.128,2.2384,2.1502,2.1286,2.1866,2.2277,2.2263,2.1868,2.2731,2.2981,2.2692,2.3216,2.3447,2.3447,2.3447,2.3095,2.2525,2.0897,1.9924,1.9302,1.8852,1.9166,1.9993,2.0606,2.1352,2.2234,2.2752,2.2673,2.2297,2.2774,2.1648,1.9839,1.8408,1.7645,0.0,0.0,1.8113,1.82,1.8803,1.9282,1.9577,1.9081,1.9326,1.9588,1.9108,1.8996,1.8965,1.8944,1.8894,1.83,1.6537,0.0,1.5659,1.4324,1.4179,1.4348,1.4749,1.4831,1.4998,1.5342,1.5029,1.46,1.4141,1.4307,1.4251,1.3894,1.4422,1.5005,1.5596,1.5076,1.4788,1.4764,1.3144,0.0,0.0,0.0,0.0,0.0,0.0,0.0,0.0,0.0,0.0,0.0,0.0,0.0,0.0,0.0,0.0,0.0,0.0,0.0,0.0,0.0,0.0,0.0,0.0,0.0,0.0,0.0,0.0,1.8069,1.9422,0.0,1.9258,1.9874,2.0238,1.9956,2.0824,2.1308,2.1186,2.1681,2.2241,2.2979,2.295,2.2911,2.2798,2.2969,2.2616,2.188,2.2259,2.2341,2.218,2.241,2.2498,2.2498,2.2498,2.2326,2.2142,2.1507,2.1167,2.0986,2.082,2.0939,2.1277,2.1459,2.1724,2.2085,2.2259,2.2213,2.2027,2.18,2.1026,2.0121,1.9581,1.9342,1.9309,1.9794,1.999,1.9907,1.9641,1.9681,1.9692,1.9287,1.9308,1.9576,1.9898,1.999,1.9868,1.9541,1.8904,1.8124,1.713,1.6395,1.5622,1.4769,1.4609,1.4651,1.4802,1.5019,1.5244,1.5391,1.5273,1.4902,1.4136,1.4195,1.4084,1.3821,1.4003,1.4365,1.5017,1.5201,1.5174,1.4836,1.4274,1.3006,0.0,0.0,0.0,0.0,0.0,0.0,0.0,0.0,0.0,0.0,0.0,0.0,0.0,0.0,0.0,0.0,0.0,0.0,0.0,0.0,0.0,0.0,0.0,0.0,0.0,1.8179,1.9585,1.9572,2.0915,2.1547,2.0822,2.1098,2.1295,2.1192,2.1851,2.2183,2.2051,2.2488,2.2917,2.3308,2.326,2.3119,2.2869,2.2941,2.2714,2.21,2.21,2.21,2.209,2.1953,2.1885,2.1885,2.1885,2.1885,2.1885,2.1885,2.1888,2.1903,2.1903,2.2112,2.2371,2.2208,2.2369,2.2633,2.2466,2.2299,2.204,2.1352,2.079,2.0266,2.0009,1.9874,2.0005,2.0313,2.0398,2.0339,1.9795,1.9665,1.9663,1.9366,1.9305,1.939,1.9818,1.9918,1.9779,1.9233,1.8877,1.8416,1.7586,1.6863,1.6172,1.5614,1.5355,1.5215,1.5215,1.5332,1.541,1.541,1.541,1.5068,1.4155,1.4077,1.3915,1.3519,1.3684,1.405,1.4663,1.5276,1.5521,1.5381,1.4896,1.3821,1.214,0.0,0.0,0.0,0.0,0.0,0.0,0.0,0.0,0.0,0.0,0.0,0.0,0.0,0.0,0.0,0.0,0.0,0.0,0.0,0.0,0.0,0.0,0.0,1.7513,2.0275,2.1933,2.0891,2.1825,2.2178,2.1113,2.1096,2.1261,2.1746,2.2723,2.3464,2.3939,2.3488,2.3273,2.3273,2.2369,2.1924,2.1924,2.2324,2.2529,2.2529,2.2529,2.2529,2.2519,2.2109,2.1924,2.1924,2.1924,2.1924,2.1924,2.1924,2.1924,2.1924,2.1894,2.2493,2.3189,2.2841,2.3294,2.4069,2.359,2.31,2.2474,2.169,2.1021,2.0441,1.9608,1.9326,1.9326,1.9326,1.9326,1.9326,1.9307,1.9307,1.9307,1.9287,1.9287,1.917,1.875,1.8652,1.8535,1.8115,1.8963,1.9368,1.8039,1.7822,1.7523,1.6811,1.6367,0.0,1.6125,1.5693,1.543,1.541,1.541,1.5068,1.4175,1.4087,1.3779,1.2959,1.3467,1.405,1.4652,1.5276,1.5864,1.6479,1.4953,1.3846,1.3223,0.0,0.0,0.0,0.0,0.0,0.0,0.0,0.0,0.0,0.0,0.0,0.0,0.0,0.0,0.0,0.0,0.0,0.0,0.0,0.0,0.0,1.9547,2.0815,2.0413,2.1493,2.225,2.2042,2.3304,2.3793,2.2727,2.3318,2.3492,2.2945,2.3112,2.3098,2.2473,2.2651,2.2725,2.2725,2.2712,2.2793,2.2793,2.291,2.2969,2.2969,2.2969,2.2969,2.2959,2.2852,2.2793,2.2793,2.2793,2.2793,2.2793,2.2793,2.2793,2.2734,2.2129,2.204,2.2247,2.2128,2.2332,2.2544,2.2422,2.2007,2.1544,2.132,2.0944,2.0586,2.0281,2.0215,2.0215,2.0215,2.0215,2.0137,1.9824,1.9746,1.9668,1.9365,1.9287,1.9248,1.9131,1.9111,1.8984,1.8545,1.8695,1.8738,1.8048,1.771,1.7447,1.7272,1.6826,1.6436,1.6164,1.6017,1.5762,1.5449,1.541,1.5195,1.4648,1.4316,1.3906,1.3369,1.3641,1.3862,1.405,1.5039,1.5864,1.6479,1.5279,1.4412,0.0,0.0,0.0,0.0,0.0,0.0,0.0,0.0,0.0,0.0,0.0,0.0,0.0,0.0,0.0,0.0,0.0,0.0,0.0,0.0,0.0,0.0,2.0502,2.1592,2.2175,2.2732,2.3031,2.2832,2.3466,2.3746,2.334,2.3492,2.3426,2.2981,2.2991,2.2762,2.2393,2.2646,2.2773,2.2773,2.3018,2.3135,2.3135,2.2589,2.2315,2.2306,2.1854,2.1587,2.1587,2.1587,2.1587,2.1587,2.1587,2.1587,2.1587,2.1587,2.1587,2.163,0.0,0.0,0.0,0.0,2.2041,2.1885,2.1885,2.1719,2.1504,2.1504,2.1328,2.1084,2.0898,2.084,2.081,2.0615,2.0566,2.0508,2.0254,2.0185,2.0127,1.9883,1.9824,1.9775,1.959,1.9551,1.9424,1.8994,1.876,0.0,1.8311,1.793,1.7646,1.7646,1.7275,1.6914,1.665,1.6351,1.6027,1.5713,1.5518,1.5244,1.4814,1.4551,0.0,0.0,0.0,1.4573,1.4926,1.5599,0.0,0.0,0.0,0.0,0.0,1.5015,0.0,0.0,1.5013,1.5132,0.0,0.0,0.0,0.0,0.0,0.0,0.0,0.0,0.0,0.0,0.0,0.0,0.0,0.0,0.0,0.0,2.0726,2.1206,2.3036,2.3746,2.393,2.3394,2.3056,2.2966,2.3213,2.2541,2.2178,2.2549,2.2578,2.2744,2.3125,2.296,0.0,0.0,0.0,2.2677,2.2677,2.1667,2.1114,2.1114,2.0034,1.9497,1.9497,1.9497,1.9497,1.9497,1.9497,1.9497,1.9497,1.9497,1.9497,1.9679,2.1863,2.2677,2.2639,2.2275,2.1911,2.1594,2.1594,0.0,0.0,2.1518,2.1489,2.1384,2.1,2.0886,2.079,2.0359,2.0312,2.0303,2.0255,2.0235,2.0245,2.0401,2.0401,2.0372,2.0068,1.999,1.9863,1.9443,1.9004,1.8691,1.8643,1.8291,1.8008,1.8008,1.7695,1.7432,1.7393,1.6699,1.6233,1.6135,1.5713,0.0,1.4893,1.4814,1.4463,1.3701,1.4765,1.574,1.6548,1.6654,1.671,1.671,1.671,1.671,1.671,1.7225,1.7476,1.7483,1.6329,1.6586,0.0,0.0,0.0,0.0,0.0,0.0,0.0,0.0,0.0,0.0,0.0,0.0,0.0,0.0,0.0,2.1274,2.221,2.2834,2.3207,2.337,2.3428,2.3277,2.357,2.3423,2.27,2.2771,2.293,2.3018,2.3018,2.3057,2.3135,2.2217,2.1667,2.1667,2.0674,2.0223,2.0223,1.9943,1.9852,1.9852,1.9579,0.0,1.9497,1.9497,1.9497,1.9497,1.9497,1.9497,1.9497,1.9497,1.9497,1.9588,2.0042,2.0223,2.0215,2.0138,2.0069,1.992,1.992,1.9724,1.938,1.938,1.9177,1.8922,1.8854,1.8744,0.0,1.8462,1.836,1.8292,1.7985,1.79,1.8141,1.9116,1.9283,1.9502,2.0294,2.0439,2.0312,1.9873,1.9453,1.9053,1.8701,1.8291,1.8008,1.8008,1.7939,1.7764,1.7432,1.7236,1.6855,1.6204,1.6047,1.5762,1.5322,1.498,1.4717,1.4551,1.5487,1.6333,1.6967,1.7572,1.7877,1.7877,1.7877,1.7877,1.7877,1.799,1.8053,1.8041,1.7794,1.7847,0.0,0.0,0.0,0.0,0.0,0.0,0.0,0.0,0.0,0.0,0.0,1.8267,0.0,0.0,2.036,2.1837,2.2366,2.2418,2.2085,2.1997,2.1997,2.1997,2.2211,2.2007,2.1092,2.1193,2.1311,2.1311,2.1311,2.1311,2.1311,2.0755,2.0395,2.0395,1.9852,1.9497,1.9497,1.8864,1.8596,1.8588,1.794,1.7662,1.7662,1.7662,1.7662,1.7662,1.7662,1.7662,1.7662,1.7662,1.7662,1.7662,1.7662,1.8395,1.9497,1.9497,1.9497,1.9497,1.9497,1.9373,1.9126,1.9126,1.9011,1.883,1.8562,1.8504,1.8431,1.8079,1.7981,1.7899,1.7622,1.7532,1.7647,1.8031,1.8559,1.9125,1.9678,2.0245,2.0498,2.0283,1.9893,1.9531,1.9307,1.874,1.8252,1.8047,1.8008,1.7939,1.7725,1.751,1.7207,1.6768,1.6523,1.6221,1.5781,1.5156,1.4943,1.521,1.5479,1.5924,1.6505,1.7278,1.7629,1.7629,1.8001,1.8204,1.8204,1.848,1.8618,1.8631,1.8882,1.8869,0.0,0.0,0.0,0.0,0.0,0.0,0.0,0.0,1.8403,1.8693,1.9091,1.9738,2.0717,2.042,2.0537,2.1938,2.1646,2.1099,2.0508,2.0474,2.0386,2.0122,2.0298,2.0236,1.9555,1.9497,1.9497,1.9497,1.9497,1.9497,1.9497,1.9314,1.9131,1.9131,1.8948,1.8764,1.8764,1.7863,1.7318,1.7318,1.6292,1.5832,1.5832,1.5832,1.5832,1.5832,1.5832,1.5832,1.5832,1.5832,1.5832,1.5832,1.5832,1.7023,1.8764,1.8764,1.8764,1.8764,1.8764,1.8764,1.8764,1.8764,1.8764,1.8708,1.8332,1.8245,1.8182,1.7754,1.7652,1.7573,1.732,1.7186,1.7143,1.7097,1.7708,1.847,1.8877,1.9678,2.0323,2.0566,2.0215,1.9912,1.9912,1.9277,1.8623,1.8193,1.8057,1.8008,1.8008,1.7715,1.7471,1.7393,1.707,1.6641,1.6164,1.5488,1.5216,1.5618,1.5496,1.5595,1.6096,1.6954,1.7405,1.7405,1.8142,1.8518,1.8518,1.8957,1.9233,1.9359,1.9773,1.9748,1.558,1.5957,1.6584,1.7652,1.7411,1.7541,0.0,0.0,1.8914,1.9843,2.0124,2.0393,2.0886,2.0159,1.977,2.0787,1.9913,1.9284,1.9562,1.9612,1.9257,1.8172,1.8983,1.9629,1.9488,1.9497,1.9497,1.9497,1.9497,1.9497,1.9497,1.8503,1.787,1.787,1.685,1.6197,1.6197,1.6109,1.6015,1.6015,1.5825,1.5832,1.5832,1.5832,1.5832,1.5832,1.5832,1.5832,1.5832,1.5832,1.5832,1.5832,1.5832,1.6015,1.6197,1.6197,1.6197,1.6197,1.6197,1.6197,1.6197,1.6197,1.6197,1.619,1.6156,1.6149,1.6081,1.5787,1.5705,1.5636,1.5342,1.5062,1.5095,1.6059,1.6156,1.6593,1.855,1.9116,1.9441,2.0401,2.0215,1.9912,1.9912,1.9521,1.9072,1.8633,1.8252,1.8008,1.8008,1.7969,1.7803,1.7422,1.7344,1.6973,1.6194,1.6037,1.5811,1.5477,1.6028,1.6392,1.6448,1.779,1.8536,1.8536,1.9251,1.9623,1.9623,1.9685,1.9987,2.0489,2.0592,2.0592,1.7915,1.7907,1.7908,0.0,1.8841,1.9236,2.0279,2.047,2.0621,2.1107,2.0851,2.0663,2.0818,1.9817,1.928,0.0,1.9535,1.9052,1.848,1.8411,1.7972,1.6515,1.6915,1.739,1.739,1.739,1.739,1.739,1.739,1.739,1.739,1.6842,1.6574,1.6574,1.6109,1.5832,1.5832,1.5832,1.5832,1.5832,1.5832,1.5832,1.5832,1.5832,1.5832,1.5832,1.5832,1.5832,1.5832,1.5832,1.5832,1.5832,1.5832,1.5832,1.5832,1.5832,1.5832,1.5832,1.5832,1.5832,1.5832,1.5832,1.5832,1.5832,1.5832,1.5832,1.5805,1.5678,1.5651,1.5578,1.5291,1.4997,1.4818,1.5144,1.5445,1.5944,1.6919,1.806,1.9116,1.9599,2.0014,2.0293,2.0293,1.9941,1.959,1.9414,1.8809,1.8291,1.8047,1.8008,1.7939,1.7764,1.7529,1.7236,1.6865,1.6602,1.6269,1.582,1.6088,1.6135,1.5874,1.7291,1.807,1.807,1.9202,1.9579,1.915,1.9915,1.9974,1.93,2.0057,2.0301,1.9226,1.9048,0.0,1.9356,1.9834,2.026,2.0443,2.0941,2.1364,2.1146,2.0829,2.0447,2.0036,1.9075,1.8498,1.8846,1.8609,1.8126,1.7311,1.7152,1.6672,1.5624,1.5631,1.5745,1.5818,1.5832,1.5832,1.5832,1.5832,1.5832,1.5832,1.5832,1.5832,1.5832,1.5832,1.5832,1.5832,1.5832,1.5832,1.5832,1.5832,1.5832,1.5832,1.5832,1.5832,1.5832,1.5832,1.5832,1.5832,1.5832,1.5832,1.5832,1.5832,1.5832,1.5832,1.5832,1.5832,1.5832,1.5832,1.5832,1.5832,1.5832,1.5832,1.5832,1.5832,1.5832,1.5832,1.5832,1.5832,1.5785,1.5571,1.5297,1.501,1.471,1.4998,1.5398,1.5636,1.7172,1.8638,1.8957,1.9844,2.0566,2.0566,2.0303,2.0049,1.9932,1.9385,1.8799,1.8252,1.8086,1.8008,1.8008,1.7734,1.751,1.7393,1.709,1.6719,1.6279,1.625,1.6103,1.5791,1.7194,1.7924,1.7641,1.9143,1.9534,1.8759,1.9701,1.9684,1.8728,1.9608,1.9996,1.8471,0.0,1.9099,1.9938,1.9983,2.0063,2.0938,2.0858,2.0362,1.9274,1.9725,1.9817,1.8313,1.7612,1.7251,1.7259,1.6543,1.592,1.5825,1.5585,1.5511,1.5785,1.5578,1.5518,1.5798,1.5832,1.5832,1.5832,1.5832,1.5832,1.5832,1.5832,1.5832,1.5832,1.5832,1.5832,1.5832,1.5832,1.5832,1.5832,1.5832,1.5832,1.5832,1.5832,1.5832,1.5832,1.5832,1.5832,1.5832,1.5832,1.5832,1.5832,1.5832,1.5832,1.5832,1.5832,1.5832,1.5832,1.5832,1.5832,1.5832,1.5832,1.5832,1.5832,1.5832,1.5832,1.5832,1.5832,1.5832,1.5825,1.5818,1.5605,1.5311,1.5017,1.4723,1.4761,1.5521,1.6601,1.7658,1.8798,1.9844,2.0566,2.0566,2.0557,2.04,1.998,1.9893,1.957,1.8721,1.8262,1.8008,1.8008,1.7998,1.7822,1.7422,1.7373,1.7178,1.6738,1.6709,1.6709,1.6626,1.8176,1.8649,1.781,1.9351,1.9762,1.8866,1.8937,1.9193,1.966,1.9672,2.0013,1.8917,0.0,1.9165,2.0418,2.0513,2.0345,2.0372,2.0361,1.998,1.8809,1.8036,1.7568,1.7259,1.6264,1.5541,1.5944,1.5742,1.5611,1.5798,1.5745,1.5651,1.5558,1.5625,0.0,0.0,1.5718,1.5832,1.5832,1.5832,1.5832,1.5832,1.5832,1.5832,1.5832,1.5832,1.5832,1.5832,1.5832,1.5832,1.5832,1.5832,1.5832,1.5832,1.5832,1.5832,1.5832,1.5832,1.5832,1.5832,1.5832,1.5832,1.5832,1.5832,1.5832,1.5832,1.5832,1.5832,1.5832,1.5832,1.5832,1.5832,1.5832,1.5832,1.5832,1.5832,1.5832,1.5832,1.5832,1.5832,1.5832,1.5832,1.5611,1.5371,1.5277,1.4877,1.4576,1.4891,1.6194,1.7423,1.7827,1.9353,2.0566,2.0566,2.0566,2.042,1.998,1.9434,1.8965,1.8672,1.8271,1.8008,1.8008,1.8008,1.7959,1.7812,1.7803,1.7617,1.7197,1.7168,1.7031,1.6685,1.7678,1.8097,1.7801,1.8802,1.897,1.8148,1.8999,1.9003,1.8189,1.905,1.9207,1.9652,1.9724,1.9606,2.0969,2.0879,2.0292,1.9915,1.9676,1.9151,1.7576,1.6651,1.5944,1.5551,1.467,1.4275,1.497,1.517,1.5378,1.5772,1.5738,1.5645,1.5565,1.5625,1.5645,0.0,0.0,1.5832,1.5832,1.5832,1.5832,1.5832,1.5832,1.5832,1.5832,1.5832,1.5832,1.5832,1.5832,1.5832,1.5832,1.5832,1.5832,1.5832,1.5832,1.5832,1.5832,1.5832,1.5832,1.5832,1.5832,1.5832,1.5832,1.5832,1.5832,1.5832,1.5832,1.5832,1.5832,1.5832,1.5832,1.5832,1.5832,1.5832,1.5832,1.5832,1.5832,1.5832,1.5832,1.5832,1.5832,1.5832,1.5691,1.5524,1.5424,1.511,1.4776,1.4563,1.6032,1.7409,1.7286,1.9107,2.0566,2.0566,2.0566,2.0469,2.0185,1.9541,1.8984,1.8601,1.8271,1.8008,1.8008,1.8008,1.8008,1.8008,1.8008,1.79,1.7627,1.7607,1.748,1.7207,1.792,1.8164,1.7856,1.8647,1.8647,1.7856,1.8701,1.8599,1.7617,1.8465,1.8529,2.0535,2.0477,2.0236,2.151,2.0838,1.9853,1.9504,1.8828,1.7722,1.5655,1.5253,1.4887,0.0,0.0,1.3467,1.4335,1.475,1.5164,1.5745,1.5591,1.5518,0.0,0.0,0.0,0.0,0.0,0.0,1.573,1.573,1.5832,1.5832,1.5832,1.5737,1.573,1.573,1.5635,1.5635,1.5635,1.573,1.5832,1.5832,1.5832,1.5832,1.5832,1.5832,1.5832,1.5832,1.5832,1.5832,1.5832,1.5832,1.5832,1.5832,1.5832,1.5832,1.5832,1.5832,1.5832,1.5832,1.5832,1.5832,1.5832,1.5832,1.5832,1.5832,1.5832,1.5832,1.5832,1.5832,1.5832,1.5832,1.5832,1.5758,1.5484,1.5404,1.5244,1.4683,1.6227,1.7613,1.7351,1.9125,2.0566,2.0566,2.0566,2.0566,2.0566,2.0195,1.9619,1.8809,1.832,1.8047,1.8047,1.8018,1.8008,1.8008,1.8008,1.8008,1.8008,1.8008,1.8008,1.8008,1.8787,1.8854,1.8008,1.8787,1.8854,1.8008,1.8008,1.8008,1.8008,1.8008,1.8018,2.0004,2.0117,2.0145,2.0854,1.9918,1.8629,1.7922,1.7173,1.6058,1.437,1.3563,1.292,0.0,0.0,0.0,1.3761,1.4482,0.0,1.5745,1.5765,0.0,1.5818,0.0,1.5745,1.5818,1.4949,0.0,1.4364,1.5242,1.5832,1.5832,1.5832,1.5337,1.4459,1.4364,1.3884,1.2915,1.3878,1.4854,1.5832,1.5832,1.5832,1.5832,1.5832,1.5832,1.5832,1.5832,1.5832,1.5832,1.5832,1.5832,1.5832,1.5832,1.5832,1.5832,1.5832,1.5832,1.5832,1.5832,1.5832,1.5832,1.5832,1.5832,1.5832,1.5832,1.5832,1.5832,1.5832,1.5832,1.5832,1.5832,1.5832,1.5812,1.5732,1.5558,1.5357,1.5204,1.5855,1.6753,1.7513,1.9236,2.0566,2.0566,2.0566,2.0566,2.0566,2.0195,1.9834,1.9619,1.8936,1.8477,1.8477,1.8193,1.8008,1.8008,1.8008,1.8008,1.8008,1.8008,1.8008,1.8008,1.8202,1.8202,1.8008,1.8202,1.8202,1.8008,1.8008,1.8008,1.8008,1.8008,1.8174,2.0121,2.0292,2.03,2.0166,1.8999,1.7659,1.665,1.5529,1.4323,1.2797,1.1977,0.0,1.1391,1.167,1.2251,0.0,0.0,0.0,1.5538,1.5752,1.5832,0.0,1.5832,0.0,1.5832,1.5146,1.4459,1.3974,1.398,1.4082,1.4082,1.4082,1.3788,1.3006,1.3006,1.2619,1.195,1.2624,1.3397,1.4082,1.4082,1.437,1.4949,1.4949,1.5242,1.5832,1.5832,1.5832,1.5832,1.5832,1.5832,1.5832,1.5832,1.5832,1.5832,1.5832,1.5832,1.5832,1.5832,1.5832,1.5832,1.5832,1.5832,1.5832,1.5832,1.5832,1.5832,1.5832,1.5832,1.5832,1.5832,1.5832,1.5832,1.5832,1.5705,1.5551,1.5424,1.5899,1.6737,1.8036,1.9589,2.0566,2.0566,2.0566,2.0566,2.0566,2.0361,2.0195,2.0195,1.9287,1.8562,1.8562,1.8262,1.8008,1.8008,1.8008,1.8008,1.8008,1.8008,1.8008,1.8008,1.8008,1.8008,1.8008,1.8008,1.8008,1.8008,1.8008,1.8008,1.8018,1.8193,1.8408,2.0349,2.0359,2.0157,1.9356,1.8029,1.6529,1.5442,1.4066,1.2632,1.1223,0.0,1.0481,1.0401,1.0715,1.1349,1.2526,0.0,1.4349,1.5271,1.5611,1.5785,1.5825,1.5832,1.573,1.5534,1.5439,1.4752,1.3488,1.2134,1.1556,1.1848,1.1945,1.1848,1.1653,1.1458,1.1458,1.1658,1.1658,1.175,1.1945,1.1945,1.2528,1.3584,1.3584,1.4268,1.5248,1.5248,1.5248,1.5248,1.5248,1.5248,1.5248,1.5248,1.5248,1.5248,1.5248,1.5439,1.554,1.554,1.5635,1.5832,1.5832,1.5832,1.5832,1.5832,1.5832,1.5832,1.5832,1.5832,1.5832,1.5832,1.5832,1.5832,1.5832,1.5832,1.5758,1.5504,1.6152,1.7165,1.8539,1.9766,2.0566,2.0566,2.0566,2.0566,2.0566,2.0566,2.0566,2.0566,1.9482,1.8721,1.8721,1.8301,1.8008,1.8008,1.8008,1.8008,1.8008,1.8008,1.8008,1.8008,1.8008,1.8008,1.8008,1.8008,1.8008,1.8008,1.8008,1.8008,1.8018,1.8389,1.8613,1.9033,1.8507,1.8087,1.7659,1.6277,1.4761,1.381,1.2817,0.0,0.0,1.0401,1.0047,0.9559,1.0301,1.1216,1.1911,1.2979,1.4115,1.5237,1.5438,1.5558,0.0,0.0,1.5439,1.4364,1.3204,0.0,1.0774,0.941,0.9604,1.175,1.1945,1.1463,1.0386,0.9213,0.9213,1.0293,1.0288,1.0877,1.1945,1.1945,1.2042,1.2237,1.2237,1.2334,1.2624,1.2624,1.2624,1.2624,1.2624,1.2624,1.2624,1.2624,1.2624,1.2624,1.2624,1.3301,1.4262,1.4262,1.4949,1.5832,1.5832,1.5832,1.5832,1.5832,1.5832,1.5832,1.5832,1.5832,1.5832,1.5832,1.5832,1.5832,1.5832,1.5832,1.5812,1.5765,1.6936,1.7859,1.7646,1.9195,2.0566,2.0566,2.0566,2.0566,2.0566,2.0566,2.0566,2.0566,1.9756,1.918,1.918,1.8477,1.8008,1.8008,1.8008,1.8008,1.8008,1.8008,1.8008,1.8008,1.8008,1.8008,1.8008,1.8008,1.8008,1.8008,1.8008,1.8008,1.8008,1.8086,1.8496,1.7792,1.7447,1.7033,1.6256,1.5033,1.3794,1.2752,0.0,0.0,0.0,0.9811,0.9778,0.9119,0.9726,0.0,1.1162,1.2051,1.3186,1.4529,1.4843,0.0,0.0,0.0,1.5337,0.0,1.3295,1.2134,1.0194,0.941,0.9316,0.9801,0.9899,0.9604,0.9019,0.8333,0.8333,0.892,0.892,0.9312,0.9899,0.9899,1.019,1.0877,1.0877,1.1268,1.1945,1.1945,1.1945,1.1945,1.1945,1.1945,1.1945,1.1945,1.1945,1.1945,1.1945,1.2721,1.3878,1.3878,1.4752,1.5832,1.5832,1.5832,1.5832,1.5832,1.5832,1.5832,1.5832,1.5832,1.5832,1.5832,1.5832,1.5832,1.5832,1.5832,1.5745,1.5444,1.6475,1.7173,1.657,1.773,1.9107,1.9678,1.9766,1.9923,2.0489,2.0566,2.0566,2.0566,2.001,1.9531,1.9307,1.8711,1.8252,1.8027,1.8008,1.8008,1.8008,1.8008,1.8008,1.8008,1.8008,1.8008,1.8008,1.8008,1.8115,1.833,1.833,1.8457,1.8682,1.8896,1.9219,1.6417,1.6316,1.6147,1.5144,1.4202,1.324,1.2044,1.1671,0.0,0.0,0.9413,0.9666,0.9106,0.0,0.9806,0.0,1.1243,1.2318,1.3868,1.4335,0.0,0.0,0.0,0.0,1.3199,1.3102,1.2129,0.9702,0.9608,0.9118,0.8038,0.8038,0.8038,0.8038,0.8038,0.8038,0.8038,0.8038,0.8038,0.8038,0.8038,0.8528,0.9608,0.9608,1.0096,1.1068,1.1068,1.1068,1.1068,1.1068,1.1068,1.1068,1.1068,1.1068,1.1068,1.1068,1.194,1.3102,1.3392,1.4268,1.5439,1.573,1.5832,1.5832,1.5832,1.5832,1.5832,1.5832,1.5832,1.5832,1.5832,1.5832,1.5832,1.5832,1.5785,1.5591,1.5077,1.5772,1.6312,1.5816,1.6601,1.7585,1.847,1.8638,1.8957,1.9756,2.0079,2.0245,2.0245,2.011,1.9893,1.9463,1.9033,1.8603,1.8184,1.8144,1.8105,1.8018,1.8008,1.8047,1.8135,1.8057,1.8047,1.8144,1.8057,1.8213,1.8562,1.8562,1.8857,1.9297,1.9619,1.9824,1.4642,1.4723,1.5075,1.4629,1.3901,1.2939,1.1737,0.0,0.0,0.9917,0.9762,0.9762,0.971,0.9484,0.9566,1.0421,1.1069,1.2078,1.3841,1.4335,0.0,0.0,0.0,0.0,1.0583,1.0386,0.9801,0.8333,0.8137,0.8137,0.8038,0.8038,0.8038,0.8038,0.8038,0.8038,0.8038,0.8038,0.8038,0.8038,0.8038,0.8038,0.8137,0.8137,0.8237,0.8333,0.8333,0.8333,0.8333,0.8333,0.8333,0.8333,0.8333,0.8333,0.8333,0.8333,0.9213,1.0485,1.1653,1.2915,1.4262,1.5439,1.5832,1.5832,1.5832,1.5832,1.5832,1.5832,1.5832,1.5832,1.5832,1.5832,1.5832,1.5832,1.5625,1.5351,1.503,1.5595,1.6037,1.5771,1.6601,1.7334,1.7415,1.7423,1.7496,1.7577,1.847,1.9125,1.9125,1.9963,2.0342,1.9902,1.9482,1.9053,1.8613,1.8504,1.8418,1.8037,1.8008,1.8184,1.8564,1.8213,1.8184,1.8574,1.8203,1.8213,1.8562,1.8562,1.8857,1.9287,1.9326,1.9551,1.3749,1.4122,1.4362,1.4068,1.332,1.2472,1.192,0.0,1.1151,1.0031,1.0115,1.0167,0.9361,0.9051,0.9152,0.9679,0.9669,1.0261,1.2211,1.1936,1.1887,1.2966,1.2761,0.0,0.0,0.9998,0.941,0.8137,0.8038,0.8038,0.8038,0.8038,0.8038,0.8038,0.8038,0.8038,0.8038,0.8038,0.8038,0.8038,0.8038,0.8038,0.8038,0.8038,0.8038,0.8038,0.8038,0.8038,0.8038,0.8038,0.8038,0.8038,0.8038,0.8038,0.8038,0.8038,0.8825,1.0096,1.0583,1.1653,1.2915,1.4268,1.4657,1.4752,1.5534,1.5832,1.5832,1.5832,1.5832,1.5832,1.5832,1.5832,1.5785,1.5611,1.5478,1.5271,1.4796,1.4939,1.5098,1.4797,1.5061,1.5553,1.6198,1.6355,1.6519,1.7172,1.7666,1.823,1.8877,1.9362,1.9778,2.0245,1.9922,1.9492,1.9062,1.9023,1.8848,1.8418,1.8633,1.8623,1.8271,1.8594,1.873,1.8562,1.8467,1.8721,1.9404,1.915,1.9385,2.0059,2.0059,2.0146,1.3124,1.3682,1.409,1.3649,1.2993,1.2458,0.0,1.203,1.1696,1.0358,1.0466,1.0466,0.9316,0.8956,0.8898,0.9137,0.8844,0.9136,1.0829,1.0284,1.0063,0.0,0.0,1.0403,0.9421,0.9351,0.9019,0.8038,0.8038,0.8038,0.8038,0.8038,0.8038,0.8038,0.8038,0.8038,0.8038,0.8038,0.8038,0.8038,0.8038,0.8038,0.8038,0.8038,0.8038,0.8038,0.8038,0.8038,0.8038,0.8038,0.8038,0.8038,0.8038,0.8038,0.8038,0.8038,0.8627,0.9509,0.9899,1.0583,1.1556,1.2909,1.3295,1.3494,1.437,1.5146,1.5832,1.5832,1.5832,1.5832,1.5832,1.5765,1.5651,1.5444,1.5264,1.5023,1.4609,1.4449,1.4335,1.4128,1.4088,1.4328,1.5137,1.522,1.5462,1.6198,1.6609,1.709,1.79,1.863,1.9283,2.0079,2.013,1.9941,1.9512,1.9473,1.9287,1.8857,1.9121,1.9072,1.8594,1.9033,1.9199,1.9023,1.8896,1.9189,1.9912,1.9619,1.9844,2.0566,2.0566,2.0566,1.2663,1.3417,1.435,1.3444,1.3131,1.2888,1.2153,1.2449,1.2474,1.1072,1.0813,1.061,0.9909,0.9263,0.8898,0.9137,0.8999,0.9151,1.0255,1.0089,0.9702,0.0,0.0,0.8881,0.7775,0.7868,0.8041,0.8038,0.8038,0.8038,0.8038,0.8038,0.8038,0.8038,0.8038,0.8038,0.8038,0.8038,0.8038,0.8038,0.8038,0.8038,0.8038,0.8038,0.8038,0.8038,0.8038,0.8038,0.8038,0.8038,0.8038,0.8038,0.8038,0.8038,0.8038,0.8038,0.8038,0.8237,0.9509,0.9998,1.0194,1.1556,1.1945,1.1945,1.1945,1.3788,1.5832,1.5832,1.5832,1.5832,1.5832,1.5618,1.5398,1.5398,1.495,1.4529,1.4522,1.4295,1.4088,1.4088,1.4088,1.4088,1.4088,1.4088,1.4088,1.4173,1.5054,1.5696,1.5703,1.7658,1.9036,1.9036,2.0001,2.0381,1.9941,1.9902,1.9727,1.9307,1.9287,1.9473,1.9883,1.9502,1.9482,1.9893,1.9492,1.9492,1.9912,1.9912,2.0137,2.0566,2.0566,2.0566,1.224,1.2981,1.3607,1.2625,1.258,1.2712,1.2537,1.2479,1.2324,1.1622,1.1116,1.0618,0.9917,0.9263,0.9031,0.9726,0.942,0.9374,0.9974,0.0,0.0,0.8483,0.8394,0.8229,0.7896,0.7984,0.8038,0.8038,0.8038,0.8038,0.8038,0.8038,0.8038,0.8038,0.8038,0.8038,0.8038,0.8038,0.8038,0.8038,0.8038,0.8038,0.8038,0.8038,0.8038,0.8038,0.8038,0.8038,0.8038,0.8038,0.8038,0.8038,0.8038,0.8038,0.8038,0.8038,0.8038,0.8038,0.8531,0.8627,0.8825,1.0194,1.0583,1.0779,1.1653,1.2431,1.3301,1.4268,1.5146,1.5785,1.5585,1.5464,1.5297,1.489,1.4656,1.4469,1.4269,1.4155,1.4088,1.4088,1.4088,1.4088,1.4088,1.4088,1.4088,1.4088,1.4412,1.4894,1.5621,1.6927,1.8149,1.8957,1.9923,2.0508,2.0371,2.0361,2.0176,1.9746,1.999,1.9961,1.9502,1.9922,2.0088,1.9922,1.9785,1.9922,2.0361,2.0059,2.0137,2.0566,2.0566,2.0566,0.0,1.2822,1.3428,1.2449,1.2575,1.289,1.2732,1.2734,1.2492,1.1604,1.1116,1.0517,0.9614,0.9061,0.8985,0.9532,0.9228,0.8989,0.0,0.0,0.0,0.7903,0.783,0.7896,0.7946,0.8007,0.8038,0.8038,0.8038,0.8038,0.8038,0.8038,0.8038,0.8038,0.8038,0.8038,0.8038,0.8038,0.8038,0.8038,0.8038,0.8038,0.8038,0.8038,0.8038,0.8038,0.8038,0.8038,0.0,0.8038,0.8038,0.8038,0.8038,0.8038,0.8038,0.8038,0.8038,0.8038,0.8038,0.8038,0.8137,0.9019,0.9608,1.0194,1.0974,1.1848,1.2813,1.368,1.4779,1.5625,1.5444,1.5231,1.497,1.4609,1.4436,1.4309,1.4128,1.4088,1.4088,1.4088,1.4088,1.4088,1.4088,1.4088,1.4088,1.4088,1.4088,1.4328,1.497,1.6034,1.709,1.823,1.9353,2.0157,2.0566,2.0566,2.0449,2.0176,2.042,2.0332,1.9795,2.0283,2.0439,2.0166,2.0156,2.0293,2.0566,2.0293,2.0303,2.0566,2.0566,2.0566,0.0,1.2905,1.3608,1.2751,1.2915,1.3206,1.2813,1.3103,0.0,1.1243,1.0813,1.0423,0.9141,0.8871,0.8838,0.8945,0.8713,0.0,0.0,0.7638,0.0,0.0,0.7546,0.7682,0.7814,0.7957,0.8038,0.8038,0.8038,0.8038,0.8038,0.8038,0.8038,0.8038,0.8038,0.8038,0.8038,0.8038,0.8038,0.8038,0.8038,0.8038,0.8038,0.8038,0.8038,0.8038,0.8038,0.8038,0.8038,0.8038,0.8038,0.8038,0.8038,0.8038,0.8038,0.8038,0.8038,0.8038,0.8038,0.8038,0.8038,0.8038,0.8825,0.9903,0.9903,1.1741,1.3872,1.3855,1.4641,1.5384,1.5344,1.493,1.4516,1.4496,1.4282,1.4088,1.4088,1.4088,1.4088,1.4088,1.4088,1.4088,1.4088,1.4088,1.4088,1.4088,1.4088,1.4088,1.4088,1.5054,1.6108,1.709,1.831,1.9362,2.0401,2.0566,2.0566,2.0566,2.0566,2.0566,2.0566,2.0566,2.0566,2.0566,2.0566,2.0566,2.0566,2.0566,2.0566,2.0566,2.0566,2.0566,1.1602,0.0,1.2053,1.166,1.2036,1.2539,0.0,1.2947,1.2782,0.0,0.0,0.0,1.0043,0.9319,0.9172,1.0294,0.0,0.9164,0.8968,0.0,0.0,0.7807,0.7916,0.795,0.7984,0.8018,0.8038,0.8038,0.8038,0.8038,0.8038,0.8038,0.8038,0.8038,0.8038,0.8038,0.8038,0.8038,0.8038,0.8038,0.8038,0.8038,0.8038,0.8038,0.8038,0.8038,0.8038,0.8038,0.8038,0.8038,0.8038,0.8038,0.8038,0.8038,0.8038,0.8038,0.8038,0.8038,0.8038,0.8038,0.8038,0.8038,0.8237,0.8432,0.8432,1.0965,1.3831,1.3637,1.4397,1.5291,1.4843,1.4623,1.4462,1.4242,1.4135,1.4088,1.4088,1.4088,1.4088,1.4088,1.4088,1.4088,1.4088,1.4088,1.4088,1.4088,1.4088,1.4088,1.4088,1.5054,1.5779,1.6026,1.7819,1.9116,1.9362,2.0167,2.0566,2.0566,2.0566,2.0566,2.0566,2.0566,2.0566,2.0566,2.0566,2.0566,2.0566,2.0566,2.0566,2.0566,2.0566,2.0566,1.0949,1.1406,1.1834,1.1724,1.2082,1.2588,1.2832,0.0,0.0,0.0,0.0,0.0,0.0,0.0,0.0,0.0,0.9438,0.0,0.0,0.0,0.7522,0.7984,0.8038,0.8038,0.8038,0.8038,0.8038,0.8038,0.8038,0.8038,0.8038,0.8038,0.8038,0.8038,0.8038,0.8038,0.8038,0.8038,0.8038,0.8038,0.8038,0.8038,0.8038,0.8038,0.8038,0.8038,0.8038,0.8038,0.8038,0.8038,0.8038,0.8038,0.8038,0.8038,0.8038,0.8038,0.8038,0.8038,0.8038,0.8038,0.8038,0.8038,0.8432,0.8909,0.883,1.0729,1.2813,1.2581,1.3701,1.4923,1.4603,1.4422,1.4282,1.4122,1.4088,1.4088,1.4088,1.4088,1.4088,1.4088,1.4088,1.4088,1.4088,1.4088,1.4088,1.4088,1.4088,1.4088,1.4088,1.4573,1.5296,1.6355,1.7082,1.8141,1.9599,1.9844,2.0079,2.0566,2.0566,2.0566,2.0566,2.0566,2.0566,2.0566,2.0566,2.0566,2.0566,2.0566,2.0566,2.0566,2.0566,2.0566,1.0361,1.123,1.2129,1.2129,1.2461,1.2803,1.2861,0.0,0.0,0.0,0.0,0.0,0.0,0.0,0.0,0.0,0.0,0.0,0.8182,0.7768,0.7682,0.8001,0.8038,0.8038,0.8038,0.8038,0.8038,0.8038,0.8038,0.8038,0.8038,0.8038,0.8038,0.8038,0.8038,0.8038,0.8038,0.8038,0.8038,0.8038,0.8038,0.8038,0.8038,0.8038,0.8038,0.8038,0.8038,0.8038,0.8038,0.8038,0.8038,0.8038,0.8038,0.8038,0.8038,0.8038,0.8038,0.8038,0.8038,0.8038,0.8038,0.8038,0.8707,0.9633,0.9573,1.0333,1.1318,1.1214,1.2513,1.3973,1.4102,1.4005,1.3906,1.4088,1.4088,1.4088,1.4088,1.4088,1.4088,1.4088,1.4088,1.4088,1.4088,1.4088,1.4088,1.4088,1.4088,1.4088,1.4088,1.4088,1.4824,1.6609,1.6108,1.6911,1.9835,1.9441,1.9441,2.0557,2.0566,2.0566,2.0566,2.0566,2.0566,2.0566,2.0566,2.0566,2.0566,2.0566,2.0566,2.0566,2.0566,2.0566,1.0713,1.123,1.1704,1.1704,1.2002,1.2422,1.2803,0.0,0.0,0.0,0.0,0.0,0.0,0.9374,0.8607,0.0,0.0,0.7893,0.0,0.7454,0.7563,0.7987,0.8038,0.8038,0.8038,0.8038,0.8038,0.8038,0.8038,0.8038,0.8038,0.8038,0.8038,0.8038,0.8038,0.8038,0.8038,0.8038,0.8038,0.8038,0.8038,0.8038,0.8038,0.8038,0.8038,0.8038,0.8038,0.8038,0.8038,0.8038,0.8038,0.8038,0.8038,0.8038,0.8038,0.8038,0.8038,0.8038,0.8038,0.8038,0.8038,0.8038,0.8048,0.8129,0.8104,0.875,0.9509,0.9509,1.0546,1.1789,1.2445,1.2619,1.2851,1.3822,1.4088,1.4088,1.4088,1.4088,1.4088,1.4088,1.4088,1.4088,1.4088,1.4088,1.4088,1.4088,1.4088,1.4088,1.4088,1.4088,1.425,1.458,1.522,1.6273,1.7658,1.855,1.9441,2.0557,2.0566,2.0566,2.0566,2.0566,2.0566,2.0566,2.0566,2.0566,2.0566,2.0566,2.0566,2.0566,2.0566,2.0566,1.0136,1.0703,1.126,1.1547,1.2246,1.2978,1.3174,0.0,0.0,0.0,0.0,0.0,0.0,0.0,0.95,0.941,0.0,0.7377,0.7399,0.7444,0.7631,0.7994,0.8038,0.8038,0.8038,0.8038,0.8038,0.8038,0.8038,0.8038,0.8038,0.8038,0.8038,0.8038,0.8038,0.8038,0.8038,0.8038,0.8038,0.8038,0.8038,0.8038,0.8038,0.8038,0.8038,0.8038,0.8038,0.8038,0.8038,0.8038,0.8038,0.8038,0.8038,0.8038,0.8038,0.8038,0.7987,0.7916,0.7916,0.7865,0.7801,0.7801,0.7753,0.7682,0.7597,0.7841,0.8155,0.8061,0.9354,1.0912,1.1327,1.1815,1.2413,1.3027,1.3646,1.4088,1.4088,1.4088,1.4088,1.4088,1.4088,1.4088,1.4088,1.4088,1.4088,1.4088,1.4088,1.4088,1.4088,1.4088,1.4328,1.4894,1.4894,1.5711,1.8069,1.8149,1.8789,2.0479,2.0566,2.0566,2.0566,2.0566,2.0566,2.0566,2.0566,2.0566,2.0566,2.0566,2.0566,2.0566,2.0566,2.0566,0.9859,1.0332,1.0918,1.1562,0.0,1.3408,1.3613,0.0,0.0,0.0,0.0,0.0,0.0,1.0071,0.0,0.8708,0.7604,0.7071,0.7333,0.7472,0.7645,0.7906,0.7936,0.7936,0.7936,0.7936,0.7936,0.7936,0.7936,0.795,0.7984,0.7953,0.795,0.7984,0.7953,0.7936,0.7936,0.7936,0.797,0.8038,0.8038,0.8038,0.8038,0.8038,0.8038,0.8038,0.8038,0.8038,0.8038,0.8038,0.8038,0.8035,0.8001,0.7967,0.7936,0.7936,0.7862,0.7763,0.7763,0.7692,0.76,0.76,0.7577,0.7522,0.7407,0.7346,0.7292,0.7173,0.8356,0.9831,1.0091,1.0869,1.1552,1.1815,1.2772,1.3646,1.3646,1.3906,1.4088,1.4088,1.4088,1.4088,1.4088,1.4088,1.4088,1.4088,1.4088,1.4088,1.4088,1.4088,1.4412,1.5213,1.4573,1.5311,1.831,1.831,1.8789,2.0479,2.0566,2.0566,2.0566,2.0566,2.0566,2.0566,2.0566,2.0566,2.0566,2.0566,2.0566,2.0566,2.0566,2.0566,1.0596,1.0576,1.0625,1.1865,1.2559,0.0,1.3916,1.334,0.0,1.3735,0.0,0.0,0.0,1.0134,0.8516,0.71,0.7008,0.7183,0.735,0.738,0.7448,0.7611,0.7631,0.7631,0.7631,0.7631,0.7631,0.7631,0.7631,0.7689,0.7821,0.7702,0.7692,0.7824,0.7699,0.7631,0.7631,0.7631,0.777,0.8038,0.8038,0.8038,0.8038,0.8038,0.8038,0.8038,0.8038,0.8038,0.8038,0.8038,0.8038,0.8024,0.7882,0.7746,0.7631,0.7631,0.7624,0.7614,0.7614,0.7607,0.76,0.76,0.7502,0.7387,0.7373,0.7272,0.7153,0.7143,0.7228,0.7577,0.8715,0.9065,0.9405,1.0438,1.1638,1.2413,1.2413,1.3294,1.4088,1.4088,1.4088,1.4088,1.4088,1.4088,1.4088,1.4088,1.4088,1.4088,1.4088,1.4088,1.4173,1.4166,1.4173,1.4985,1.7253,1.9195,2.0401,2.0566,2.0566,2.0566,2.0566,2.0566,2.0566,2.0566,2.0566,2.0566,2.0566,2.0566,2.0566,2.0566,2.0566,2.0566,0.9899,1.0178,1.0527,1.1553,1.2353,0.0,0.0,1.3191,1.2862,1.3156,1.2262,0.0,0.0,0.0,0.8056,0.7706,0.7292,0.7092,0.7339,0.737,0.7428,0.7584,0.76,0.76,0.76,0.76,0.76,0.76,0.76,0.7624,0.7678,0.7631,0.7624,0.7678,0.7628,0.76,0.76,0.76,0.7655,0.7767,0.7767,0.7767,0.7767,0.7767,0.7767,0.7767,0.7767,0.7767,0.7767,0.7767,0.7767,0.776,0.7702,0.7648,0.76,0.76,0.7539,0.7458,0.7458,0.7394,0.7312,0.7312,0.7275,0.7227,0.7227,0.7187,0.7139,0.7139,0.7139,0.7404,0.8627,0.941,1.0265,1.1381,1.2595,1.3379,1.3379,1.3822,1.4088,1.4088,1.4088,1.4088,1.4088,1.4088,1.4088,1.4088,1.4088,1.4088,1.4088,1.4088,1.4088,1.4088,1.5311,1.6445,1.7253,1.9353,2.0566,2.0566,2.0566,2.0566,2.0566,2.0566,2.0566,2.0566,2.0566,2.0566,2.0566,2.0566,2.0566,2.0566,2.0566,2.0566,0.9705,1.0146,1.0643,0.0,0.0,0.0,1.276,1.2767,1.2758,1.2841,1.2107,0.0,0.0,0.0,0.0,0.7784,0.7282,0.7068,0.7272,0.7299,0.7336,0.7441,0.7455,0.7455,0.7455,0.7455,0.7455,0.7455,0.7455,0.7475,0.7522,0.7482,0.7478,0.7526,0.7478,0.7455,0.7455,0.7455,0.7455,0.7455,0.7455,0.7506,0.76,0.76,0.76,0.76,0.76,0.76,0.76,0.76,0.757,0.7529,0.7529,0.7499,0.7455,0.7455,0.7387,0.7299,0.7299,0.7227,0.7139,0.7139,0.7316,0.7577,0.7228,0.7404,0.7577,0.7228,0.7139,0.7489,0.9061,0.9749,1.0351,1.1466,1.2681,1.3555,1.3555,1.3822,1.4088,1.4088,1.4088,1.4088,1.4088,1.4088,1.4088,1.4088,1.4088,1.4088,1.4088,1.4088,1.4088,1.4088,1.6041,1.7342,1.7342,1.9353,2.0566,2.0566,2.0566,2.0566,2.0566,2.0566,2.0566,2.0566,2.0566,2.0566,2.0566,2.0566,2.0566,2.0566,2.0566,2.0566,1.0261,1.0586,0.0,0.0,0.0,0.0,1.1586,1.2089,1.2704,1.3203,1.2324,1.0975,0.959,0.9069,0.0,0.6976,0.6946,0.7139,0.7139,0.7139,0.7139,0.7139,0.7139,0.7139,0.7139,0.7139,0.7139,0.7139,0.7139,0.7207,0.736,0.7224,0.721,0.7363,0.7221,0.7139,0.7139,0.7139,0.7139,0.7139,0.7139,0.7299,0.7597,0.7597,0.7597,0.7597,0.7597,0.7597,0.7597,0.7597,0.7506,0.737,0.737,0.7275,0.7139,0.7139,0.7139,0.7139,0.7139,0.7139,0.7139,0.7139,0.7929,0.8627,0.7492,0.7929,0.8627,0.7492,0.7139,0.7661,1.0005,0.9749,0.9235,1.0351,1.1472,1.2328,1.2328,1.3294,1.4088,1.4088,1.4088,1.4088,1.4088,1.4088,1.4088,1.4088,1.4088,1.4088,1.4088,1.4088,1.4088,1.4088,1.6041,1.7253,1.7342,1.9353,2.0566,2.0566,2.0566,2.0566,2.0566,2.0566,2.0566,2.0566,2.0566,2.0566,2.0566,2.0566,2.0566,2.0566,2.0566,2.0566,0.9791,0.0,0.0,0.0,0.0,0.0,0.0,1.1888,0.0,0.0,1.2315,1.1503,0.9648,0.9341,0.8751,0.6994,0.6865,0.7024,0.7126,0.7139,0.7139,0.7139,0.7139,0.7139,0.7139,0.7139,0.7139,0.7139,0.7139,0.716,0.7207,0.7166,0.7163,0.7207,0.7163,0.7139,0.7139,0.7139,0.7139,0.7139,0.7139,0.7187,0.7275,0.7275,0.7275,0.7275,0.7275,0.7275,0.7275,0.7275,0.7251,0.721,0.721,0.718,0.7139,0.7139,0.7139,0.7139,0.7139,0.7139,0.7139,0.7139,0.7316,0.7753,0.8189,0.8627,0.8978,0.9401,0.957,0.9913,1.1381,1.1552,1.1558,1.2778,1.33,1.3561,1.3561,1.3822,1.4088,1.4088,1.4088,1.4088,1.4088,1.4088,1.4088,1.4088,1.4088,1.4088,1.4088,1.4088,1.4088,1.4088,1.5304,1.6519,1.7261,1.863,1.9766,2.0557,2.0566,2.0566,2.0566,2.0566,2.0566,2.0566,2.0566,2.0566,2.0566,2.0566,2.0566,2.0566,2.0566,2.0566,1.0006,0.0,0.0,0.0,0.0,0.0,0.0,0.0,0.0,0.0,1.1905,1.112,0.9583,0.9014,0.8308,0.6827,0.6736,0.6868,0.6953,0.6966,0.6966,0.6966,0.6966,0.699,0.7051,0.7,0.699,0.7051,0.7,0.6966,0.6966,0.6966,0.6966,0.6966,0.7024,0.7054,0.7054,0.7112,0.7139,0.7139,0.7139,0.7139,0.7139,0.7139,0.7139,0.7139,0.7139,0.7139,0.7139,0.7139,0.7139,0.7139,0.7139,0.7139,0.7139,0.7139,0.7139,0.7139,0.7139,0.7139,0.7139,0.7139,0.7404,0.7929,0.8715,0.9235,0.9753,1.0438,1.0611,1.0864,1.198,1.2328,1.2589,1.3822,1.4088,1.4088,1.4088,1.4088,1.4088,1.4088,1.4088,1.4088,1.4088,1.4088,1.4088,1.4088,1.4088,1.4088,1.4088,1.4088,1.4088,1.4088,1.5054,1.6108,1.7172,1.831,1.9441,2.0557,2.0566,2.0566,2.0566,2.0566,2.0566,2.0566,2.0566,2.0566,2.0566,2.0566,2.0566,2.0566,2.0566,2.0566,1.0548,0.0,0.0,0.0,0.0,0.0,0.0,0.0,1.1951,1.2238,0.0,1.0294,0.9487,0.8475,0.7467,0.6607,0.66,0.6702,0.6702,0.6702,0.6702,0.6702,0.6702,0.6756,0.6895,0.678,0.6759,0.6898,0.678,0.6702,0.6702,0.6702,0.6702,0.6702,0.6834,0.6909,0.6909,0.7037,0.7099,0.7099,0.7099,0.7099,0.7102,0.7129,0.7139,0.7139,0.7139,0.7139,0.7139,0.7139,0.7139,0.7139,0.7139,0.7139,0.7139,0.7139,0.7139,0.7139,0.7139,0.7139,0.7139,0.7228,0.7929,0.8803,0.9148,0.9836,1.0611,1.0869,1.0956,1.1123,1.2128,1.2395,1.276,1.3789,1.4068,1.4088,1.4088,1.4088,1.4088,1.4088,1.4088,1.4088,1.4088,1.4088,1.4088,1.4088,1.4088,1.4088,1.4088,1.4088,1.4088,1.4088,1.5054,1.6108,1.7172,1.831,1.9441,2.0557,2.0566,2.0566,2.0566,2.0566,2.0566,2.0566,2.0566,2.0566,2.0566,2.0566,2.0566,2.0566,2.0566,2.0566,0.0,1.0413,0.0,0.0,0.0,0.0,0.0,1.149,1.1951,1.2238,1.2098,1.1329,0.9588,0.9202,0.8544,0.678,0.66,0.6702,0.6702,0.6702,0.6702,0.6702,0.6702,0.6712,0.6746,0.6719,0.6715,0.6749,0.6719,0.6702,0.6702,0.6702,0.6702,0.6702,0.6732,0.6749,0.6749,0.678,0.6797,0.6797,0.6797,0.6797,0.6803,0.7034,0.7139,0.7139,0.7139,0.7139,0.7139,0.7139,0.7139,0.7139,0.7139,0.7139,0.7139,0.7139,0.7139,0.7139,0.7139,0.7139,0.7228,0.8189,0.8017,0.8013,1.0778,1.1128,1.0956,1.2869,1.3385,1.3334,1.3367,1.3561,1.3678,1.3712,1.3915,1.4088,1.4088,1.4088,1.4088,1.4088,1.4088,1.4088,1.4088,1.4088,1.4088,1.4088,1.4088,1.4088,1.4088,1.4088,1.4088,1.4088,1.5054,1.6108,1.7172,1.831,1.9441,2.0557,2.0566,2.0566,2.0566,2.0566,2.0566,2.0566,2.0566,2.0566,2.0566,2.0566,2.0566,2.0566,2.0566,2.0566,0.0,0.0,0.0,0.0,0.0,0.0,1.0929,1.1229,1.1461,1.1249,1.1071,1.0426,0.8841,0.824,0.761,0.6606,0.6437,0.6488,0.6488,0.6488,0.6488,0.6488,0.6488,0.6515,0.6583,0.6529,0.6519,0.6586,0.6529,0.6488,0.6488,0.6488,0.6488,0.6488,0.6556,0.659,0.659,0.6664,0.6702,0.6702,0.6702,0.6702,0.6705,0.6858,0.6929,0.6929,0.6929,0.6929,0.6936,0.7007,0.7041,0.7044,0.7112,0.7099,0.7041,0.7041,0.6993,0.6929,0.6929,0.6929,0.71,0.8199,0.8114,0.8207,1.1174,1.164,1.1411,1.3323,1.3774,1.3627,1.3474,1.3554,1.3627,1.3474,1.3768,1.4088,1.4088,1.4088,1.4088,1.4088,1.4088,1.4088,1.4088,1.4088,1.4088,1.4088,1.4088,1.4088,1.4088,1.4088,1.4334,1.481,1.5379,1.6355,1.7989,1.8638,1.9441,2.0557,2.0566,2.0566,2.0566,2.0566,2.0566,2.0566,2.0566,2.0566,2.0566,2.0566,2.0566,2.0566,2.0566,2.0566,0.0,0.0,0.0,0.0,0.0,0.0,1.0728,1.0791,1.0584,0.992,0.9625,0.912,0.7951,0.7053,0.6458,0.6335,0.6338,0.6338,0.6338,0.6338,0.6338,0.6338,0.6338,0.6308,0.6424,0.6329,0.6312,0.6427,0.6329,0.6338,0.6338,0.6338,0.6338,0.6338,0.6376,0.6434,0.6434,0.6563,0.6624,0.6624,0.6624,0.6624,0.6624,0.6624,0.6654,0.6702,0.6702,0.6702,0.6712,0.6837,0.6892,0.6902,0.7017,0.6993,0.6892,0.6892,0.681,0.6702,0.6702,0.6702,0.6864,0.7922,0.8246,0.8682,1.1155,1.1653,1.1772,1.3163,1.3394,1.32,1.314,1.3173,1.32,1.314,1.3547,1.3948,1.4001,1.4048,1.4088,1.4088,1.4088,1.4088,1.4088,1.4088,1.4088,1.4088,1.4088,1.4088,1.4088,1.425,1.4734,1.5621,1.6026,1.7001,1.8877,1.9204,1.9678,2.0566,2.0566,2.0566,2.0566,2.0566,2.0566,2.0566,2.0566,2.0566,2.0566,2.0566,2.0566,2.0566,2.0789,2.0867,0.0,0.0,0.0,0.0,0.0,1.014,0.0,0.0,0.9594,0.0,0.9306,0.9488,0.7868,0.7459,0.7143,0.6391,0.6338,0.6338,0.6338,0.6338,0.6338,0.6338,0.6338,0.6345,0.6288,0.6349,0.6345,0.6288,0.6271,0.6338,0.6338,0.6338,0.6338,0.6338,0.6278,0.6288,0.6288,0.6312,0.6318,0.6318,0.6318,0.6318,0.6318,0.6318,0.6461,0.6702,0.6702,0.6702,0.6702,0.6722,0.6729,0.6732,0.6753,0.6749,0.6729,0.6729,0.6719,0.6702,0.6702,0.6702,0.6864,0.7996,0.8324,0.866,1.1047,1.1599,1.1742,1.2928,1.324,1.3153,1.2879,1.3006,1.314,1.2872,1.3073,1.3394,1.3647,1.3908,1.4088,1.4088,1.4088,1.4088,1.4088,1.4088,1.4088,1.4088,1.4088,1.4088,1.4088,1.4894,1.5538,1.5696,1.7407,1.8718,1.8957,1.9835,2.0489,2.0566,2.0566,2.0566,2.0566,2.0566,2.0566,2.0566,2.0566,2.0566,2.0566,2.0566,2.0566,2.0644,2.1441,2.1811,0.8165,0.0,0.0,0.0,0.9376,0.9666,0.9833,0.0,0.9539,0.8115,0.8433,0.8424,0.6857,0.655,0.643,0.6064,0.6003,0.6003,0.6003,0.6003,0.6003,0.6003,0.6003,0.6037,0.6122,0.6132,0.6166,0.6254,0.6338,0.6338,0.6338,0.6338,0.6338,0.6338,0.6338,0.6338,0.6338,0.6338,0.6338,0.6338,0.6338,0.6338,0.6338,0.6338,0.6332,0.6454,0.6454,0.6454,0.6461,0.6539,0.6573,0.658,0.6668,0.6647,0.6573,0.6573,0.6522,0.6454,0.6454,0.6454,0.669,0.7707,0.8019,0.8436,1.0684,1.1253,1.1396,1.2583,1.2832,1.2672,1.2532,1.2599,1.2665,1.2532,1.2726,1.2986,1.3113,1.3507,1.3888,1.4055,1.4088,1.4088,1.4088,1.4088,1.4088,1.4088,1.4088,1.4328,1.4894,1.5379,1.6183,1.7407,1.839,1.9283,1.9844,2.0323,2.0566,2.0566,2.0566,2.0566,2.0566,2.0566,2.0566,2.0566,2.0566,2.0566,2.0566,2.0566,2.0566,2.0644,2.1011,2.1517,0.0,0.0,0.0,0.9013,0.9065,0.9212,0.0,0.0,0.9265,0.7726,0.7486,0.7136,0.5855,0.5694,0.5759,0.5796,0.58,0.58,0.58,0.58,0.58,0.58,0.58,0.5847,0.5962,0.5973,0.602,0.6135,0.6146,0.6146,0.6146,0.6146,0.6146,0.6146,0.6146,0.6146,0.6146,0.6146,0.6162,0.6203,0.6203,0.6224,0.6338,0.6338,0.6338,0.6338,0.6338,0.6338,0.6271,0.6376,0.642,0.643,0.6542,0.6519,0.642,0.642,0.6352,0.6338,0.6338,0.6338,0.649,0.748,0.8008,0.857,1.0489,1.1175,1.136,1.2414,1.2472,1.2305,1.2305,1.2305,1.2305,1.2305,1.2472,1.2672,1.2909,1.3273,1.3707,1.3928,1.4035,1.4088,1.4088,1.4088,1.4166,1.4496,1.4496,1.4894,1.5951,1.6347,1.7163,1.8798,1.9283,1.9756,2.0557,2.0566,2.0566,2.0566,2.0566,2.0566,2.0566,2.0566,2.0566,2.0566,2.0566,2.0566,2.0566,2.0566,2.0566,2.0644,2.0867,2.1451,0.0,0.7335,0.0,0.8323,0.0,0.0,0.0,0.0,0.8257,0.7483,0.6667,0.5896,0.5262,0.5403,0.5644,0.5779,0.58,0.58,0.58,0.58,0.58,0.58,0.58,0.5803,0.5813,0.5813,0.5817,0.5823,0.5827,0.5827,0.5827,0.5827,0.5827,0.5827,0.5827,0.5827,0.5827,0.5827,0.5898,0.604,0.604,0.6118,0.6338,0.6338,0.6338,0.6338,0.6338,0.6338,0.6338,0.6271,0.6271,0.6274,0.6281,0.6278,0.6271,0.6271,0.6268,0.6338,0.6338,0.6338,0.649,0.748,0.8466,0.9448,1.0507,1.1477,1.2231,1.2318,1.2311,1.2305,1.2305,1.2305,1.2305,1.2305,1.2311,1.2485,1.306,1.3427,1.3647,1.3579,1.3895,1.4088,1.4088,1.4088,1.4412,1.5455,1.5621,1.6026,1.709,1.8149,1.8877,1.8966,1.9923,2.0566,2.0566,2.0566,2.0566,2.0566,2.0566,2.0566,2.0566,2.0566,2.0566,2.0566,2.0566,2.0566,2.0566,2.0566,2.0566,2.0644,2.1517,2.2478,0.0,0.0,0.0,0.7765,0.8201,0.8608,0.8669,0.8828,0.8581,0.7307,0.6959,0.6426,0.5229,0.5159,0.5345,0.5494,0.5518,0.5518,0.5518,0.5518,0.5518,0.5518,0.5518,0.5559,0.5657,0.5664,0.5701,0.5793,0.58,0.58,0.58,0.58,0.58,0.58,0.58,0.58,0.58,0.58,0.583,0.5884,0.5884,0.5911,0.5966,0.5966,0.5966,0.5966,0.5966,0.6078,0.6338,0.6338,0.6338,0.6338,0.6338,0.6338,0.6338,0.6338,0.6338,0.6338,0.6338,0.6338,0.649,0.748,0.8012,0.8613,1.0335,1.1087,1.1465,1.215,1.2305,1.2305,1.2305,1.2305,1.2305,1.2305,1.2305,1.2358,1.2585,1.2859,1.318,1.3567,1.3728,1.3861,1.4055,1.4088,1.4496,1.5538,1.5696,1.6355,1.8149,1.8718,1.9283,1.9923,2.0401,2.0566,2.0566,2.0566,2.0566,2.0566,2.0566,2.0566,2.0566,2.0566,2.0439,2.0156,2.042,2.0566,2.0566,2.0566,2.0566,2.0644,2.0934,2.1962,0.6134,0.0,0.0,0.0,0.0,0.8144,0.8457,0.8664,0.8366,0.7046,0.6914,0.6634,0.5128,0.4918,0.5033,0.5189,0.5254,0.5284,0.5284,0.5328,0.5428,0.5428,0.5428,0.5403,0.5504,0.5511,0.5552,0.5647,0.5654,0.5654,0.5654,0.5654,0.5654,0.5654,0.5654,0.5654,0.5654,0.5654,0.5681,0.5732,0.5732,0.5755,0.58,0.58,0.58,0.58,0.58,0.5918,0.6108,0.6108,0.6135,0.6183,0.6183,0.6213,0.6338,0.6338,0.6338,0.6338,0.6338,0.6338,0.649,0.748,0.8012,0.8613,1.026,1.1013,1.1465,1.2077,1.2305,1.2305,1.2305,1.2305,1.2305,1.2305,1.2305,1.2305,1.2305,1.2832,1.3397,1.3729,1.412,1.4495,1.4703,1.4832,1.53,1.6419,1.6684,1.7488,1.9274,1.952,1.9835,2.0489,2.0566,2.0566,2.0566,2.0566,2.0566,2.0566,2.0566,2.0498,2.0352,2.0352,2.0137,1.9717,1.999,2.0137,2.0137,2.043,2.0566,2.0644,2.0934,2.2113,0.0,0.0,0.0,0.0,0.0,0.0,0.8518,0.831,0.7626,0.6749,0.6573,0.6201,0.4937,0.4684,0.4731,0.488,0.503,0.5125,0.5125,0.5254,0.5415,0.5415,0.5415,0.5415,0.5415,0.5415,0.5415,0.5415,0.5415,0.5415,0.5415,0.5415,0.5415,0.5415,0.5418,0.5422,0.5422,0.5425,0.5437,0.5583,0.5583,0.5654,0.5789,0.5789,0.5789,0.5789,0.5789,0.5789,0.5789,0.5796,0.5888,0.6023,0.6023,0.6115,0.6247,0.6247,0.6247,0.6247,0.6247,0.6247,0.6475,0.7464,0.8528,0.9513,1.0553,1.1539,1.2305,1.2305,1.2305,1.2305,1.2305,1.2305,1.2305,1.2305,1.2305,1.2305,1.2305,1.3266,1.4156,1.4163,1.5161,1.5983,1.6,1.6362,1.7069,1.8104,1.8677,1.9325,2.044,2.0537,2.0547,2.0547,2.0547,2.0547,2.0547,2.0537,2.0527,2.0527,2.0527,2.0332,1.9912,1.9893,1.9697,1.935,1.935,1.935,1.934,2.0183,2.0615,2.0624,2.1659,2.3147,0.6126,0.0,0.0,0.0,0.0,0.0,0.7896,0.7792,0.7405,0.6518,0.6161,0.5705,0.475,0.458,0.4538,0.4582,0.4806,0.4975,0.4975,0.5013,0.504,0.504,0.504,0.504,0.504,0.504,0.504,0.504,0.504,0.504,0.504,0.504,0.504,0.504,0.5142,0.5196,0.5196,0.5304,0.5449,0.5423,0.5423,0.5447,0.5484,0.5484,0.5484,0.5484,0.5484,0.5484,0.5501,0.5715,0.5827,0.5864,0.5864,0.5891,0.5928,0.5928,0.5928,0.5928,0.5928,0.5928,0.6218,0.7879,0.8704,0.9495,1.1106,1.1913,1.2305,1.2305,1.2305,1.2305,1.2305,1.2305,1.2305,1.2305,1.2305,1.2305,1.2305,1.3089,1.3881,1.4119,1.504,1.5773,1.5951,1.6081,1.6538,1.7703,1.7961,1.8412,1.949,1.9902,2.0088,2.0088,2.0088,2.0088,2.0088,1.9814,1.9639,1.9639,1.9639,1.959,1.9463,2.0091,2.0155,1.9774,2.0705,2.0984,2.064,2.0625,2.0802,2.1195,2.3212,2.448,0.0,0.0,0.0,0.0,0.0,0.0,0.8095,0.7765,0.7328,0.6881,0.6488,0.5923,0.4957,0.4739,0.471,0.4505,0.489,0.5097,0.4872,0.4877,0.4918,0.4918,0.4918,0.4918,0.4918,0.4918,0.4918,0.4918,0.4918,0.4918,0.4918,0.4918,0.5039,0.5336,0.5424,0.5468,0.5468,0.5568,0.5492,0.5179,0.5237,0.5267,0.5267,0.5332,0.5428,0.5428,0.5428,0.5428,0.5442,0.5545,0.5654,0.5715,0.5715,0.5749,0.58,0.58,0.58,0.5871,0.6226,0.6369,0.6579,0.8061,0.8922,0.9603,1.075,1.1443,1.1937,1.1937,1.1937,1.1937,1.1937,1.2031,1.2124,1.2124,1.2218,1.2305,1.2305,1.3025,1.387,1.4498,1.5404,1.6186,1.6773,1.6949,1.7284,1.7971,1.8276,1.8609,1.9214,1.9502,1.9648,1.9648,1.9648,1.9648,1.9648,1.9424,1.9287,1.9287,1.963,1.9756,1.9575,2.038,2.0629,2.0223,2.0963,2.1429,2.1472,2.1235,2.1507,2.2203,2.3863,2.4893,0.7994,0.8106,0.0,0.0,0.8011,0.0,0.8618,0.8014,0.7342,0.7413,0.7046,0.6373,0.5314,0.5054,0.496,0.471,0.507,0.5195,0.4758,0.4841,0.4987,0.4987,0.4987,0.4987,0.4987,0.5044,0.5047,0.4987,0.5044,0.5108,0.5108,0.5108,0.54,0.6049,0.607,0.6079,0.6079,0.61,0.5755,0.5039,0.5168,0.5171,0.5111,0.525,0.5311,0.5311,0.5311,0.5387,0.5533,0.5533,0.5561,0.5566,0.5566,0.571,0.5891,0.5891,0.5962,0.6175,0.6945,0.7227,0.7364,0.8195,0.9114,0.9904,0.9973,1.0698,1.1423,1.1423,1.1423,1.1423,1.1423,1.1623,1.1824,1.1824,1.2017,1.2204,1.2204,1.2875,1.3829,1.4964,1.5904,1.6922,1.7862,1.832,1.8494,1.8494,1.8896,1.915,1.915,1.9189,1.9219,1.9219,1.9219,1.9219,1.9219,1.917,1.915,1.915,1.9971,2.0268,1.985,2.0764,2.1093,2.073,2.0846,2.1239,2.2002,2.1987,2.2456,2.3406,2.3966,2.4694,0.9036,0.8826,0.8785,0.8435,0.8776,0.0,0.7991,0.7974,0.7817,0.6626,0.6129,0.5792,0.5329,0.4875,0.4747,0.5417,0.4924,0.4499,0.4543,0.5027,0.5378,0.5378,0.5378,0.5378,0.5378,0.5939,0.605,0.5433,0.5939,0.6271,0.6271,0.6271,0.6332,0.6498,0.6653,0.674,0.674,0.6856,0.6529,0.5816,0.5787,0.5502,0.4962,0.4992,0.5006,0.5006,0.5006,0.5443,0.6189,0.6189,0.591,0.5473,0.5473,0.5881,0.6497,0.6497,0.6963,0.7626,0.7763,0.7829,0.7961,0.8821,0.9423,0.9854,1.0603,1.1101,1.1423,1.1423,1.1423,1.1423,1.1423,1.147,1.151,1.151,1.1557,1.1597,1.1597,1.1925,1.2792,1.4449,1.5791,1.6922,1.7862,1.8076,1.8135,1.8135,1.8203,1.8262,1.8262,1.8555,1.876,1.876,1.876,1.876,1.876,1.8457,1.8262,1.8262,1.9043,1.953,1.9435,2.0929,2.1722,2.1628,2.2249,2.2689,2.2884,2.2623,2.3011,2.3903,2.4449,2.4775,1.0256,1.0013,0.9932,0.9457,0.0,0.0,0.0,0.8738,0.849,0.8182,0.7258,0.6507,0.6357,0.5715,0.5274,0.5528,0.5496,0.5415,0.5207,0.537,0.5651,0.5982,0.6036,0.6036,0.6036,0.6367,0.6421,0.6091,0.6367,0.6588,0.6588,0.6588,0.675,0.7128,0.7242,0.7301,0.7301,0.7365,0.7028,0.6292,0.6388,0.6262,0.5919,0.5951,0.5992,0.5992,0.5992,0.6285,0.6734,0.6734,0.6551,0.6282,0.6595,0.6985,0.7372,0.7372,0.7632,0.8091,0.8484,0.8613,0.8812,0.9658,1.0072,1.025,1.0646,1.0875,1.0995,1.0995,1.0995,1.0995,1.0995,1.1102,1.1209,1.1209,1.1323,1.1423,1.1423,1.1888,1.2745,1.4152,1.5384,1.6615,1.7833,1.8008,1.8008,1.8008,1.8008,1.8008,1.8008,1.8193,1.832,1.832,1.832,1.832,1.832,1.8135,1.8008,1.8008,1.9243,1.9944,1.9944,2.1604,2.2506,2.2506,2.2884,2.3078,2.3078,2.2973,2.3108,2.3577,2.4155,2.4406,1.1789,1.1438,1.1231,1.0545,0.0,1.0504,0.0,0.0,0.0,0.9663,0.8616,0.7539,0.0,0.6725,0.6006,0.5598,0.6235,0.6608,0.6148,0.5992,0.6125,0.6612,0.6711,0.6737,0.6737,0.6696,0.6759,0.7015,0.6935,0.6924,0.7015,0.702,0.7289,0.7883,0.7937,0.7937,0.7937,0.7937,0.7557,0.6804,0.6986,0.6956,0.6849,0.6977,0.6998,0.6998,0.6998,0.714,0.7298,0.7298,0.7441,0.7633,0.7756,0.7989,0.8153,0.8153,0.8313,0.8608,0.9332,0.953,0.9658,1.0364,1.0624,1.0624,1.0624,1.0624,1.0624,1.0624,1.0624,1.0624,1.0624,1.0735,1.0909,1.0909,1.1215,1.1451,1.1451,1.2164,1.3142,1.4048,1.5059,1.6257,1.7668,1.7959,1.8008,1.8008,1.8008,1.8008,1.8008,1.8008,1.8008,1.8008,1.8008,1.8008,1.8008,1.8008,1.8076,1.8269,1.9748,2.0655,2.0846,2.231,2.3078,2.3078,2.3078,2.3078,2.3078,2.3078,2.3078,2.3078,2.3615,2.3841,0.0,0.0,0.0,0.0,1.1001,1.0982,0.9048,0.0,0.983,0.8811,0.0,0.8093,0.7501,0.0,0.0,0.6467,0.6514,0.6668,0.6982,0.7324,0.7333,0.6838,0.7035,0.7229,0.7229,0.6961,0.7262,0.8442,0.8067,0.8002,0.8508,0.8533,0.8593,0.8699,0.8699,0.8699,0.8699,0.8699,0.8321,0.7563,0.7591,0.7274,0.6623,0.6648,0.6663,0.6663,0.6663,0.7218,0.8096,0.8096,0.8579,0.9272,0.7773,0.7796,0.8713,0.8713,0.9369,1.0301,1.0428,1.0434,1.0498,1.0561,1.0624,1.0624,1.0624,1.0624,1.0624,1.0624,1.0624,1.0624,1.0624,1.0651,1.0672,1.0672,1.1185,1.1759,1.1759,1.2553,1.3603,1.4622,1.5123,1.5854,1.7242,1.7764,1.8008,1.8008,1.8008,1.8008,1.8008,1.8008,1.8008,1.8008,1.8008,1.8008,1.8008,1.8008,1.8337,1.911,2.0074,2.0974,2.1753,2.2628,2.3078,2.3078,2.3078,2.3078,2.3078,2.3078,2.3078,2.3078,2.314,2.3226,0.0,0.0,0.0,1.112,1.1023,1.0924,0.9751,0.9697,0.9904,0.9839,0.0,0.0,0.0,0.0,0.0,0.0,0.71,0.7091,0.7279,0.7456,0.7695,0.7992,0.7888,0.7719,0.7652,0.7587,0.7775,0.8214,0.8414,0.8663,0.9112,0.9437,0.9721,0.9961,0.9961,0.9961,0.9961,0.9961,0.9599,0.8928,0.8928,0.856,0.7883,0.7883,0.7883,0.7883,0.7883,0.8117,0.8553,0.8553,0.8786,0.9117,0.838,0.8579,0.9313,0.9313,0.9635,1.0053,1.0053,1.0053,1.008,1.0247,1.0301,1.0334,1.0571,1.0624,1.0624,1.0624,1.0926,1.1288,1.1288,1.1663,1.1965,1.1965,1.2274,1.2512,1.2512,1.3239,1.397,1.4396,1.5152,1.5942,1.6519,1.6982,1.7266,1.7266,1.749,1.7646,1.7646,1.7861,1.8008,1.8008,1.8462,1.8721,1.8721,1.9243,1.9694,2.0009,2.0846,2.1741,2.2567,2.2944,2.3078,2.3078,2.3078,2.3078,2.3078,2.3078,2.3078,2.3078,2.3078,2.3078,1.2699,1.285,1.285,1.1369,1.0973,1.0777,0.9975,0.9785,0.9951,1.0459,1.0011,0.0,0.0,0.0,0.8068,0.778,0.0,0.7896,0.7645,0.7808,0.8084,0.8464,0.8112,0.791,0.8014,0.786,0.7867,0.8133,0.8494,0.8885,0.9389,0.9899,1.0311,1.0615,1.0764,1.0813,1.0813,1.0813,1.0568,1.0064,1.0064,0.971,0.9061,0.9061,0.8956,0.8804,0.8804,0.891,0.9061,0.8857,0.891,0.9061,0.8857,0.9065,0.9452,0.9532,0.9613,0.9686,0.9686,0.9686,0.9719,0.9927,1.0,1.004,1.0254,1.0383,1.0403,1.0414,1.1036,1.1652,1.1804,1.2389,1.3009,1.3009,1.3191,1.3312,1.3312,1.3965,1.451,1.451,1.5298,1.5889,1.5889,1.6357,1.6665,1.6665,1.7002,1.7207,1.7207,1.7471,1.7723,1.7903,1.8475,1.8986,1.9169,1.9797,2.0306,2.0694,2.167,2.2506,2.3078,2.3078,2.3078,2.3078,2.3078,2.3078,2.3078,2.3078,2.3078,2.3078,2.3078,2.3078,1.4585,1.4182,1.3342,1.1619,1.1062,1.0459,0.8842,0.942,1.0156,0.9719,1.0273,1.0579,0.967,0.9526,0.9211,0.8245,0.8878,0.0,0.0,0.8904,0.8942,0.7602,0.7311,0.7519,0.8234,0.7418,0.7394,0.8767,0.8327,0.8472,0.9426,0.9953,1.0197,1.0205,1.059,1.0813,1.0813,1.0813,1.0762,1.0771,1.0771,1.0415,0.9762,0.9762,0.9413,0.8804,0.8804,0.9159,0.971,0.9061,0.9159,0.9718,0.9061,0.8818,0.8871,0.9097,0.9439,0.9686,0.9686,0.9686,0.9686,0.9693,0.9699,0.9699,0.9706,0.9713,0.9773,1.0053,1.071,1.1361,1.1751,1.2389,1.3009,1.3009,1.3606,1.4154,1.4154,1.4805,1.5352,1.5352,1.5362,1.543,1.543,1.6152,1.6665,1.6665,1.6685,1.6694,1.6694,1.6704,1.701,1.7719,1.7843,1.8139,1.8846,1.8966,1.9527,2.0877,2.2261,2.3078,2.3078,2.3078,2.3078,2.3078,2.3078,2.3078,2.3078,2.3078,2.3078,2.3078,2.3078,2.3078,1.3624,1.3408,1.2909,1.1759,1.0964,1.0264,0.9404,0.9541,0.9805,0.9622,1.0273,1.0812,1.0555,1.0274,1.0004,0.962,0.9584,0.9248,0.0,0.831,0.8374,0.8036,0.8121,0.0,0.7733,0.7678,0.7834,0.8278,0.8803,0.9505,1.0376,1.0923,1.1485,1.2047,1.1856,1.1879,1.2206,1.2206,1.194,1.1466,1.1466,1.1116,1.0466,1.0466,1.0364,1.0115,1.0115,1.0261,1.0415,1.0218,1.0261,1.0415,1.021,1.0115,1.0028,0.9224,0.9018,0.9105,0.9105,0.9105,0.9138,0.9325,0.9722,1.0135,1.0286,1.0679,1.1035,1.115,1.1752,1.24,1.2478,1.3332,1.4181,1.4181,1.4618,1.4991,1.4991,1.5235,1.541,1.541,1.541,1.541,1.541,1.5654,1.5859,1.5859,1.6103,1.6289,1.6289,1.6553,1.6961,1.7739,1.833,1.8992,1.9691,2.0284,2.084,2.1321,2.1761,2.2209,2.2573,2.2585,2.2761,2.3065,2.3078,2.3078,2.3078,2.3078,2.3078,2.3138,2.3662,2.359,1.3408,1.3279,1.2979,1.1866,1.1194,1.0547,0.9768,0.9836,1.0001,0.9893,1.042,1.0951,1.1175,1.0723,1.0337,1.0432,1.0044,0.9494,0.0,0.8578,0.8548,0.8684,0.0,0.0,0.0,0.7797,0.8048,0.8518,0.922,0.9985,1.0846,1.1551,1.2304,1.3032,1.2879,1.2924,1.3238,1.3238,1.289,1.2187,1.2187,1.1832,1.1166,1.1166,1.1015,1.0813,1.0813,1.0965,1.1166,1.0914,1.0965,1.1116,1.0914,1.0813,1.0712,0.9814,0.951,0.951,0.951,0.951,0.9546,0.9695,1.0074,1.0485,1.0701,1.1036,1.1377,1.1507,1.2158,1.2806,1.2887,1.3727,1.4551,1.4551,1.4756,1.5,1.5156,1.5186,1.5234,1.5381,1.541,1.541,1.541,1.541,1.541,1.541,1.5654,1.583,1.583,1.6084,1.6495,1.7251,1.7836,1.8585,1.9557,2.0613,2.1192,2.1192,2.138,2.1644,2.2008,2.2209,2.2472,2.2836,2.2977,2.3078,2.3078,2.3078,2.3078,2.3138,2.3649,2.3767]},{"header":{"parameterUnit":"m.s-1","parameterCategory":1,"la1":30.6,"la2":29.2853,"lo1":-89.7004,"lo2":-87.6739,"dy":0.0162,"dx":0.0183,"nx":112,"ny":82,"refTime":"2024-06-08T00:00:00:Z","depth":0,"parameterNumber":3,"parameterNumberName":"V-component_of_WINDS"},"data":[0.0,0.0,0.0,0.0,0.0,0.0,0.0,0.0,0.0,0.0,0.0,0.0,0.0,0.0,0.0,0.0,0.0,0.0,0.0,0.0,0.0,0.0,0.0,0.0,0.0,0.0,0.0,0.0,0.0,0.0,0.0,0.0,0.0,0.0,0.0,0.0,0.0,0.0,0.0,0.0,0.0,0.0,0.0,0.0,0.0,0.0,0.0,0.0,0.0,0.0,0.0,0.0,0.0,0.0,0.0,0.0,0.0,0.0,0.0,0.0,0.0,0.0,0.0,0.0,0.0,0.0,0.0,0.0,0.0,0.0,0.0,0.0,0.0,0.0,0.0,0.0,0.0,0.0,0.0,0.0,0.0,0.0,0.0,0.0,0.0,0.0,0.0,0.0,0.0,0.0,0.0,1.3314,1.5927,1.7907,1.8817,1.8968,1.8629,1.7772,0.0,0.0,0.0,0.0,0.0,0.0,0.0,0.0,0.0,0.0,0.0,0.0,0.0,0.0,0.0,0.0,0.0,0.0,0.0,0.0,0.0,0.0,0.0,0.0,0.0,0.0,0.0,0.0,0.0,0.0,0.0,0.0,0.0,0.0,0.0,0.0,0.0,0.0,0.0,0.0,0.0,0.0,0.0,0.0,0.0,0.0,0.0,0.0,0.0,0.0,0.0,0.0,0.0,0.0,0.0,0.0,0.0,0.0,0.0,0.0,0.0,0.0,0.0,0.0,0.0,0.0,0.0,0.0,0.0,0.0,0.0,0.0,0.0,0.0,0.0,0.0,0.0,0.0,0.0,0.0,0.0,0.0,0.0,0.0,0.0,0.0,0.0,0.0,0.0,0.0,0.0,0.0,0.0,0.0,0.0,0.0,0.0,0.0,0.0,0.0,0.0,0.0,0.0,0.0,1.2747,1.6226,1.7848,1.8727,1.8893,1.9332,1.9051,1.7772,0.0,0.0,0.0,0.0,0.0,0.0,0.0,0.0,0.0,0.0,0.0,0.0,0.0,0.0,0.0,0.0,0.0,0.0,0.0,0.0,0.0,0.0,0.0,0.0,0.0,0.0,0.0,0.0,0.0,0.0,0.0,0.0,0.0,0.0,0.0,0.0,0.0,0.0,0.0,0.0,0.0,0.0,0.0,0.0,0.0,0.0,0.0,0.0,0.0,0.0,0.0,0.0,0.0,0.0,0.0,0.0,0.0,0.0,0.0,0.0,0.0,0.0,0.0,0.0,0.0,0.0,0.0,0.0,0.0,0.0,0.0,0.0,0.0,0.0,0.0,0.0,0.0,0.0,0.0,0.0,0.0,0.0,0.0,0.0,0.0,0.0,0.0,0.0,0.0,0.0,0.0,0.0,0.0,0.0,0.0,0.0,0.0,0.0,0.0,0.0,0.0,0.0,0.0,1.2634,1.4241,1.7804,1.8612,1.9006,1.9332,1.9566,1.9211,1.8049,1.6593,0.0,0.0,0.0,0.0,0.0,0.0,0.0,0.0,0.0,0.0,0.0,0.0,0.0,0.0,0.0,0.0,0.0,0.0,0.0,0.0,0.0,0.0,0.0,0.0,0.0,0.0,0.0,0.0,0.0,0.0,0.0,0.0,0.0,0.0,0.0,0.0,0.0,0.0,0.0,0.0,0.0,0.0,0.0,0.0,0.0,0.0,0.0,0.0,0.0,0.0,0.0,0.0,0.0,0.0,0.0,0.0,0.0,0.0,0.0,0.0,0.0,0.0,0.0,0.0,0.0,0.0,0.0,0.0,0.0,0.0,0.0,0.0,0.0,0.0,0.0,0.0,0.0,0.0,0.0,0.0,0.0,0.0,0.0,0.0,0.0,0.0,0.0,0.0,0.0,0.0,0.0,0.0,0.0,0.0,0.0,0.0,0.0,0.0,0.0,0.0,0.0,0.0,1.4811,1.6042,1.8607,1.9006,1.9281,1.9803,1.9667,1.9235,1.8408,1.6537,0.0,0.0,0.0,0.0,0.0,0.0,0.0,0.0,0.0,0.0,0.0,0.0,0.0,0.0,0.0,0.0,0.0,0.0,0.0,0.0,0.0,0.0,0.0,0.0,0.0,0.0,0.0,0.0,0.0,0.0,0.0,0.0,0.0,0.0,0.0,0.0,0.0,0.0,0.0,0.0,0.0,0.0,0.0,0.0,0.0,0.0,0.0,0.0,0.0,0.0,0.0,0.0,0.0,0.0,0.0,0.0,0.0,0.0,0.0,0.0,0.0,0.0,0.0,0.0,0.0,0.0,0.0,0.0,0.0,0.0,0.0,0.0,0.0,0.0,0.0,0.0,0.0,0.0,0.0,0.0,0.0,0.0,0.0,0.0,0.0,0.0,0.0,0.0,0.0,0.0,0.0,0.0,0.0,0.0,0.0,0.0,0.0,0.0,0.0,0.0,0.0,0.0,1.6056,1.811,1.8841,1.9369,1.9803,2.0212,1.9623,1.9106,1.8869,1.6056,0.0,0.0,0.0,0.0,0.0,0.0,0.0,0.0,0.0,0.0,0.0,0.0,0.0,0.0,0.0,0.0,0.0,0.0,0.0,0.0,0.0,0.0,0.0,0.0,0.0,0.0,0.0,0.0,0.0,0.0,0.0,0.0,0.0,0.0,0.0,0.0,0.0,0.0,0.0,0.0,0.0,0.0,0.0,0.0,0.0,0.0,0.0,0.0,0.0,0.0,0.0,0.0,0.0,0.0,0.0,0.0,0.0,0.0,0.0,0.0,0.0,0.0,0.0,0.0,0.0,0.0,0.0,0.0,0.0,0.0,0.0,0.0,0.0,0.0,0.0,0.0,0.0,0.0,0.0,0.0,0.0,0.0,0.0,0.0,0.0,0.0,0.0,0.0,0.0,0.0,0.0,0.0,0.0,0.0,0.0,0.0,0.0,0.0,0.0,0.0,0.0,0.0,1.6431,1.8043,0.0,1.9566,1.9874,2.028,1.9806,1.9144,1.8335,0.0,0.0,0.0,0.0,0.0,0.0,0.0,0.0,0.0,0.0,0.0,0.0,0.0,0.0,0.0,0.0,0.0,0.0,0.0,0.0,0.0,0.0,0.0,0.0,0.0,0.0,0.0,0.0,0.0,0.0,0.0,0.0,0.0,0.0,0.0,0.0,0.0,0.0,0.0,0.0,0.0,0.0,0.0,0.0,0.0,0.0,0.0,0.0,0.0,0.0,0.0,0.0,0.0,0.0,0.0,0.0,0.0,0.0,0.0,0.0,0.0,0.0,0.0,0.0,0.0,0.0,0.0,0.0,0.0,0.0,0.0,0.0,0.0,0.0,0.0,0.0,0.0,0.0,0.0,0.0,0.0,0.0,0.0,0.0,0.0,0.0,0.0,0.0,0.0,0.0,0.0,0.0,0.0,0.0,0.0,0.0,0.0,0.0,0.0,0.0,0.0,0.0,1.5184,1.689,1.8306,0.0,1.9803,2.007,2.0483,2.0042,1.9262,1.8168,0.0,0.0,0.0,0.0,0.0,0.0,0.0,0.0,0.0,0.0,0.0,0.0,0.0,0.0,0.0,0.0,0.0,0.0,0.0,0.0,0.0,0.0,0.0,0.0,0.0,0.0,0.0,0.0,0.0,0.0,0.0,0.0,0.0,0.0,0.0,0.0,0.0,0.0,0.0,0.0,0.0,0.0,0.0,0.0,0.0,0.0,0.0,0.0,0.0,0.0,0.0,0.0,0.0,0.0,0.0,0.0,0.0,0.0,0.0,0.0,0.0,0.0,0.0,0.0,0.0,0.0,0.0,0.0,0.0,0.0,0.0,0.0,0.0,0.0,0.0,0.0,0.0,0.0,0.0,0.0,0.0,0.0,0.0,0.0,0.0,0.0,0.0,0.0,0.0,0.0,0.0,0.0,0.0,0.0,0.0,0.0,0.0,0.0,0.0,0.0,0.0,0.0,1.531,1.7548,1.9132,1.9639,2.0054,2.0483,2.0959,2.032,1.9476,0.0,0.0,0.0,0.0,0.0,0.0,0.0,0.0,0.0,0.0,0.0,0.0,0.0,0.0,0.0,0.0,0.0,0.0,0.0,0.0,0.0,0.0,0.0,0.0,0.0,0.0,0.0,0.0,0.0,0.0,0.0,0.0,0.0,0.0,0.0,0.0,0.0,0.0,0.0,0.0,0.0,0.0,0.0,0.0,0.0,0.0,0.0,0.0,0.0,0.0,0.0,0.0,0.0,0.0,0.0,0.0,0.0,0.0,0.0,0.0,0.0,0.0,0.0,0.0,0.0,0.0,0.0,0.0,0.0,0.0,0.0,0.0,0.0,0.0,0.0,0.0,0.0,0.0,0.0,0.0,0.0,0.0,0.0,0.0,0.0,0.0,0.0,0.0,0.0,0.0,0.0,0.0,0.0,0.0,0.0,0.0,0.0,0.0,0.0,0.0,0.0,0.0,0.0,1.6284,1.83,1.9609,2.0089,1.9965,2.0174,2.0942,2.0226,1.8963,1.7141,0.0,0.0,0.0,0.0,0.0,0.0,0.0,0.0,0.0,0.0,0.0,0.0,0.0,0.0,0.0,0.0,0.0,0.0,0.0,0.0,0.0,0.0,0.0,0.0,0.0,0.0,0.0,0.0,0.0,0.0,0.0,0.0,0.0,0.0,0.0,0.0,0.0,0.0,0.0,0.0,0.0,0.0,0.0,0.0,0.0,0.0,0.0,0.0,0.0,0.0,0.0,0.0,0.0,0.0,0.0,0.0,0.0,0.0,0.0,0.0,0.0,0.0,0.0,0.0,0.0,0.0,0.0,0.0,0.0,0.0,0.0,0.0,0.0,0.0,0.0,0.0,0.0,0.0,0.0,0.0,0.0,0.0,0.0,0.0,0.0,0.0,0.0,0.0,0.0,0.0,0.0,0.0,0.0,0.0,0.0,0.0,0.0,0.0,0.0,0.0,0.0,0.0,1.6785,1.8753,2.0035,2.028,2.0382,2.0599,2.0959,2.0499,1.9227,1.694,0.0,0.0,0.0,0.0,0.0,0.0,0.0,0.0,0.0,0.0,0.0,0.0,0.0,0.0,0.0,0.0,0.0,0.0,0.0,0.0,0.0,0.0,0.0,0.0,0.0,0.0,0.0,0.0,0.0,0.0,0.0,0.0,0.0,0.0,0.0,0.0,0.0,0.0,0.0,0.0,0.0,0.0,0.0,0.0,0.0,0.0,0.0,0.0,0.0,0.0,0.0,0.0,0.0,0.0,0.0,0.0,0.0,0.0,0.0,0.0,0.0,0.0,0.0,0.0,0.0,0.0,0.0,0.0,0.0,0.0,0.0,0.0,0.0,0.0,0.0,0.0,0.0,0.0,0.0,0.0,0.0,0.0,0.0,0.0,0.0,0.0,0.0,0.0,0.0,0.0,0.0,0.0,0.0,0.0,0.0,0.0,0.0,0.0,0.0,0.0,0.0,0.0,1.6943,1.9012,2.0314,2.0348,2.107,2.1399,2.1023,2.0959,1.9925,1.7597,0.0,0.0,0.0,0.0,0.0,0.0,0.0,0.0,0.0,0.0,0.0,0.0,0.0,0.0,0.0,0.0,0.0,0.0,0.0,0.0,0.0,0.0,0.0,0.0,0.0,0.0,0.0,0.0,0.0,0.0,0.0,0.0,0.0,0.0,0.0,0.0,0.0,0.0,0.0,0.0,0.0,0.0,0.0,0.0,0.0,0.0,0.0,0.0,0.0,0.0,0.0,0.0,0.0,0.0,0.0,0.0,0.0,0.0,0.0,0.0,1.6128,1.5319,0.0,0.0,0.0,0.0,0.0,0.0,0.0,0.0,0.0,0.0,0.0,0.0,0.0,0.0,0.0,0.0,0.0,0.0,0.0,0.0,0.0,0.0,0.0,0.0,0.0,0.0,0.0,0.0,0.0,0.0,0.0,0.0,0.0,0.0,0.0,0.0,0.0,0.0,0.0,0.0,1.73,1.9162,2.0449,2.0829,2.1023,2.1086,2.1007,2.0649,1.9646,1.7755,1.6338,0.0,0.0,0.0,0.0,0.0,0.0,0.0,0.0,0.0,0.0,0.0,0.0,0.0,0.0,0.0,0.0,0.0,0.0,0.0,0.0,0.0,0.0,0.0,0.0,0.0,0.0,0.0,0.0,0.0,0.0,0.0,0.0,0.0,0.0,0.0,0.0,0.0,0.0,0.0,0.0,0.0,0.0,0.0,0.0,0.0,0.0,0.0,0.0,0.0,0.0,0.0,0.0,0.0,0.0,0.0,0.0,0.0,0.0,0.0,1.8328,1.7402,0.0,0.0,0.0,0.0,0.0,0.0,0.0,0.0,0.0,0.0,0.0,0.0,0.0,0.0,0.0,0.0,0.0,0.0,0.0,0.0,0.0,0.0,0.0,0.0,0.0,0.0,0.0,0.0,0.0,0.0,0.0,0.0,0.0,0.0,0.0,0.0,0.0,0.0,0.0,0.0,1.8707,2.0309,2.1339,2.1778,2.2015,2.1853,2.1071,2.0797,1.9914,1.8287,1.7266,0.0,0.0,0.0,0.0,0.0,0.0,0.0,0.0,0.0,0.0,0.0,0.0,0.0,0.0,0.0,0.0,0.0,0.0,0.0,0.0,0.0,0.0,0.0,0.0,0.0,0.0,0.0,0.0,0.0,0.0,0.0,0.0,0.0,0.0,0.0,0.0,0.0,0.0,0.0,0.0,0.0,0.0,0.0,0.0,0.0,0.0,0.0,0.0,0.0,0.0,0.0,0.0,0.0,2.2044,2.269,2.2949,2.3848,2.4014,2.3443,2.1201,2.0228,2.0109,1.8792,0.0,0.0,0.0,0.0,0.0,0.0,0.0,0.0,0.0,0.0,0.0,0.0,0.0,0.0,0.0,0.0,0.0,0.0,0.0,0.0,0.0,0.0,1.9082,1.9447,2.033,2.0109,1.6718,0.0,0.0,0.0,0.0,0.0,0.0,0.0,0.0,0.0,0.0,0.0,2.0203,2.155,2.2394,2.2864,2.3187,2.2839,2.1423,2.1087,2.0429,1.9053,1.8287,1.7116,0.0,0.0,0.0,0.0,0.0,0.0,0.0,0.0,0.0,0.0,0.0,0.0,0.0,0.0,0.0,0.0,0.0,0.0,0.0,0.0,0.0,0.0,0.0,0.0,0.0,0.0,0.0,0.0,0.0,0.0,0.0,0.0,1.553,1.6234,0.0,0.0,0.0,0.0,0.0,0.0,0.0,0.0,0.0,0.0,0.0,0.0,0.0,2.1665,2.2682,2.346,2.444,2.5699,2.5879,2.6546,2.769,2.724,2.7055,2.695,2.6606,0.0,2.2188,2.0857,0.0,0.0,0.0,0.0,0.0,0.0,0.0,0.0,0.0,0.0,0.0,0.0,0.0,0.0,0.0,0.0,0.0,0.0,0.0,0.0,0.0,0.0,2.1983,2.1466,2.1894,2.2128,2.1048,1.8773,1.6622,1.5408,1.4342,1.3431,0.0,0.0,0.0,0.0,0.0,0.0,2.0687,2.1971,2.2898,2.3654,2.3553,2.3147,2.2519,2.1568,2.0749,2.0122,1.9118,1.8208,1.7339,1.562,0.0,0.0,0.0,0.0,0.0,0.0,0.0,0.0,0.0,0.0,0.0,0.0,0.0,0.0,0.0,0.0,0.0,0.0,0.0,0.0,0.0,0.0,0.0,0.0,0.0,0.0,0.0,0.0,0.0,1.5246,1.6982,1.7234,1.77,1.7685,0.0,0.0,0.0,0.0,0.0,0.0,0.0,0.0,0.0,2.3281,2.3699,2.4505,2.5816,2.6505,2.7519,2.8844,2.8856,2.936,3.0291,2.9955,2.9873,2.9873,2.9873,2.8826,2.6933,2.4468,2.2458,2.0887,0.0,0.0,0.0,0.0,2.0498,2.0647,2.168,2.1804,2.1491,2.1081,0.0,0.0,0.0,0.0,0.0,0.0,0.0,2.0563,2.2303,2.3498,2.43,2.4376,2.4621,2.4582,2.3561,2.2304,2.0754,1.8547,1.7179,1.603,1.4945,1.4802,0.0,0.0,0.0,1.9835,2.2345,2.3457,2.4215,2.4778,2.4736,2.4118,2.2811,2.2229,2.1488,2.0364,1.9848,1.9201,1.8298,1.7101,1.565,0.0,0.0,0.0,0.0,0.0,0.0,0.0,0.0,0.0,0.0,0.0,0.0,0.0,0.0,0.0,0.0,0.0,0.0,0.0,0.0,0.0,0.0,0.0,0.0,0.0,0.0,0.0,0.0,1.71,1.8384,1.8253,1.939,1.9675,0.0,0.0,0.0,0.0,0.0,0.0,2.2637,2.348,2.4561,2.5848,2.6534,2.7427,2.8606,2.9297,3.0291,3.1637,3.1498,3.1821,3.2628,3.2257,3.2128,3.2128,3.2128,3.171,3.0876,2.7845,2.5693,2.4219,2.405,2.3544,2.3031,2.3712,2.3842,2.3849,2.4986,2.527,2.5001,2.4193,2.3483,2.2596,2.0835,0.0,0.0,0.0,0.0,2.3369,2.5451,2.6099,2.6302,2.6647,2.6867,2.6673,2.5555,2.5329,2.4409,2.137,2.0,1.8935,1.7707,1.7392,0.0,1.8657,1.9941,2.1657,2.4016,2.4813,2.533,2.583,2.571,2.4923,2.33,2.2876,2.2101,2.0714,2.055,2.0064,1.9163,1.848,1.7331,1.5575,0.0,0.0,0.0,0.0,0.0,0.0,0.0,0.0,0.0,0.0,0.0,0.0,0.0,0.0,0.0,0.0,0.0,0.0,0.0,0.0,0.0,0.0,0.0,0.0,0.0,0.0,0.0,0.0,0.0,1.9675,2.0767,0.0,0.0,0.0,0.0,2.1545,2.331,2.4642,2.5375,2.6642,2.7984,2.9304,3.0005,3.0683,3.1374,3.2112,3.3161,3.4492,3.3859,3.4232,3.5449,3.4097,3.3486,3.3486,3.3486,3.3136,3.2319,3.0264,2.8989,2.8349,2.7687,2.6993,2.6411,2.7098,2.6964,2.6497,2.7235,2.7021,2.6572,2.7141,2.6853,2.6209,2.6046,2.5554,0.0,0.0,2.611,2.6358,2.7105,2.7795,2.8089,2.7506,2.7859,2.8105,2.7416,2.7256,2.6344,2.3186,2.2517,2.2199,2.1358,0.0,2.1553,2.2485,2.2692,2.3414,2.5291,2.5559,2.5847,2.6573,2.6031,2.5287,2.4492,2.3348,2.237,2.1601,2.1181,2.0748,2.0234,1.9648,1.8759,1.7595,1.5665,0.0,0.0,0.0,0.0,0.0,0.0,0.0,0.0,0.0,0.0,0.0,0.0,0.0,0.0,0.0,0.0,0.0,0.0,0.0,0.0,0.0,0.0,0.0,0.0,0.0,0.0,0.0,0.0,2.1629,2.3146,0.0,2.2951,2.3684,2.455,2.5428,2.6535,2.7643,2.8762,3.0117,3.1325,3.2215,3.2928,3.3808,3.4939,3.52,3.5844,3.6776,3.6502,3.6636,3.7097,3.657,3.6356,3.6356,3.6356,3.6255,3.5956,3.5268,3.3225,3.0534,3.0293,3.0044,2.983,3.0084,3.0038,2.9846,3.0082,3.0019,2.9768,2.9596,2.9073,2.8471,2.849,2.8275,2.8227,2.8936,2.9086,2.9237,2.9815,3.0162,3.0179,2.9417,2.945,2.9436,2.8817,2.8682,2.8243,2.665,2.5664,2.4831,2.4127,2.3855,2.3715,2.3636,2.4193,2.4873,2.5509,2.6015,2.6404,2.6657,2.6454,2.5812,2.4608,2.4099,2.3209,2.1694,2.146,2.1197,2.0764,2.0264,1.9597,1.882,1.7393,1.55,0.0,0.0,0.0,0.0,0.0,0.0,0.0,0.0,0.0,0.0,0.0,0.0,0.0,0.0,0.0,0.0,0.0,0.0,0.0,0.0,0.0,0.0,0.0,0.0,0.0,2.1665,2.334,2.3325,2.5485,2.6608,2.5713,2.6642,2.7752,2.8903,2.9801,3.0814,3.1935,3.334,3.4298,3.4718,3.5477,3.6289,3.7137,3.7436,3.7802,3.8278,3.8278,3.8278,3.8261,3.8024,3.7905,3.7905,3.7905,3.7905,3.7905,3.7905,3.6248,3.3727,3.3727,3.3567,3.3324,3.308,3.2854,3.2625,3.2384,3.2144,3.1919,3.1656,3.1115,3.0619,3.0811,3.0898,3.0953,3.1429,3.156,3.1621,3.1988,3.2091,3.1931,3.1449,3.1349,3.1182,3.0516,3.0381,3.0168,2.9475,2.8118,2.6921,2.6444,2.6217,2.6007,2.5731,2.6068,2.6353,2.6353,2.6556,2.6691,2.6691,2.6691,2.6099,2.4642,2.4506,2.3742,2.1953,2.1688,2.143,2.1039,2.055,2.0045,1.951,1.807,1.6398,1.4468,0.0,0.0,0.0,0.0,0.0,0.0,0.0,0.0,0.0,0.0,0.0,0.0,0.0,0.0,0.0,0.0,0.0,0.0,0.0,0.0,0.0,0.0,0.0,2.0872,2.4163,2.6138,2.4896,2.7685,2.9166,2.7891,2.9575,3.108,3.1789,3.3062,3.414,3.4832,3.6168,3.6885,3.6885,3.7599,3.7973,3.7973,3.8667,3.9022,3.9022,3.9022,3.9022,3.9005,3.8294,3.7973,3.7973,3.7973,3.7973,3.7973,3.7973,3.7973,3.7973,3.7922,3.7434,3.6753,3.6026,3.5361,3.4695,3.4005,3.3299,3.2853,3.3399,3.3156,3.2713,3.3287,3.3474,3.3474,3.3474,3.3474,3.3474,3.344,3.344,3.344,3.3406,3.3406,3.3203,3.2476,3.2307,3.2104,3.1376,2.9766,2.8446,2.8316,2.8246,2.8455,2.8972,2.8349,0.0,2.7789,2.7182,2.6725,2.6691,2.6691,2.6099,2.4675,2.4523,2.3866,2.2446,2.1869,2.143,2.1023,2.055,2.0124,1.9726,1.7742,1.6428,1.5829,0.0,0.0,0.0,0.0,0.0,0.0,0.0,0.0,0.0,0.0,0.0,0.0,0.0,0.0,0.0,0.0,0.0,0.0,0.0,0.0,0.0,2.3295,2.4807,2.4328,2.5615,2.6992,2.8086,3.037,3.1862,3.201,3.3457,3.4665,3.5332,3.5759,3.6256,3.7035,3.7885,3.8387,3.8387,3.9141,3.9478,3.9478,3.9681,3.9783,3.9783,3.9783,3.9783,3.9766,3.958,3.9478,3.9478,3.9478,3.9478,3.9478,3.9478,3.9478,3.9377,3.8328,3.7793,3.758,3.7379,3.7166,3.6969,3.6769,3.6267,3.5679,3.5836,3.5379,3.4774,3.4952,3.5013,3.5013,3.5013,3.5013,3.4878,3.4336,3.4201,3.4066,3.3541,3.3406,3.3339,3.3136,3.3102,3.2882,3.2121,3.158,3.1031,3.0488,2.9916,2.9618,2.9766,2.9144,2.8467,2.7857,2.7603,2.73,2.6759,2.6691,2.6319,2.5372,2.4797,2.4086,2.3156,2.2152,2.1552,2.143,2.0699,2.0124,1.9726,1.8208,1.71,0.0,0.0,0.0,0.0,0.0,0.0,0.0,0.0,0.0,0.0,0.0,0.0,0.0,0.0,0.0,0.0,0.0,0.0,0.0,0.0,0.0,0.0,2.6241,2.8139,2.8898,2.8836,2.9346,3.1139,3.2898,3.423,3.4931,3.6002,3.6949,3.7686,3.7703,3.807,3.8785,3.9225,3.9445,3.9445,3.9868,4.007,4.007,4.0336,4.0466,4.0449,4.0672,4.0814,4.0814,4.0814,4.0814,4.0814,4.0814,4.0814,4.0814,4.0814,4.0814,4.0681,0.0,0.0,0.0,0.0,3.8176,3.7905,3.7905,3.7618,3.7246,3.7246,3.6941,3.6518,3.6197,3.6096,3.6045,3.5707,3.5622,3.552,3.5081,3.4962,3.4861,3.4438,3.4336,3.4252,3.3931,3.3863,3.3643,3.2899,3.2493,0.0,3.1715,3.1055,3.0565,3.0565,2.9922,2.9296,2.8839,2.8178,2.762,2.7215,2.6877,2.6404,2.5659,2.5203,0.0,0.0,0.0,2.1504,2.0829,2.033,0.0,0.0,0.0,0.0,0.0,1.7894,0.0,0.0,1.6601,1.6227,0.0,0.0,0.0,0.0,0.0,0.0,0.0,0.0,0.0,0.0,0.0,0.0,0.0,0.0,0.0,0.0,2.9191,3.0999,3.3675,3.2986,3.2636,3.388,3.5166,3.6224,3.6969,3.7701,3.8413,3.9056,3.9106,3.9394,4.0054,4.0171,0.0,0.0,0.0,4.0286,4.0286,4.075,4.0995,4.0995,4.1534,4.181,4.181,4.181,4.181,4.181,4.181,4.181,4.181,4.181,4.181,4.1725,4.0689,4.0286,4.0218,3.9572,3.8925,3.8363,3.8363,0.0,0.0,3.8227,3.8176,3.7989,3.7308,3.7104,3.6933,3.6168,3.5902,3.5885,3.58,3.5766,3.5783,3.5694,3.5694,3.5464,3.4759,3.4624,3.4404,3.3677,3.2916,3.2374,3.229,3.1681,3.119,3.119,3.0649,3.0192,3.0125,2.8924,2.7975,2.7806,2.7215,0.0,2.5795,2.5659,2.505,2.3731,2.2736,2.1566,2.0074,1.9936,1.9914,1.9914,1.9914,1.9914,1.9914,2.0528,2.0827,2.0744,1.862,1.8021,0.0,0.0,0.0,0.0,0.0,0.0,0.0,0.0,0.0,0.0,0.0,0.0,0.0,0.0,0.0,3.0525,3.2015,3.3695,3.5907,3.5987,3.5904,3.6188,3.6997,3.7851,3.8538,3.9243,3.9715,3.9868,3.9868,3.9935,4.007,4.0497,4.075,4.075,4.1241,4.1464,4.1464,4.1578,4.1621,4.1621,4.175,0.0,4.181,4.181,4.181,4.181,4.181,4.181,4.181,4.181,4.181,4.1768,4.1552,4.1464,4.1446,4.1288,4.1148,4.1068,4.1068,4.0664,4.0179,4.0179,3.9757,3.923,3.9089,3.9077,0.0,3.8063,3.7853,3.7712,3.7079,3.6904,3.6786,3.6333,3.6266,3.6105,3.5508,3.5402,3.5182,3.4421,3.3694,3.3,3.2391,3.1681,3.119,3.119,3.1072,3.0768,3.0192,2.9854,2.9194,2.7924,2.7654,2.73,2.6539,2.5947,2.549,2.5203,2.3734,2.2584,2.1914,2.1507,2.1306,2.1306,2.1306,2.1306,2.1306,2.144,2.1515,2.15,2.1019,2.0896,0.0,0.0,0.0,0.0,0.0,0.0,0.0,0.0,0.0,0.0,0.0,2.4799,0.0,0.0,3.1352,3.3466,3.4939,3.6405,3.806,3.8292,3.8292,3.8292,3.8664,3.9296,4.0303,4.0712,4.0938,4.0938,4.0938,4.0938,4.0938,4.1178,4.1358,4.1358,4.1621,4.181,4.181,4.2121,4.2262,4.2244,4.2523,4.2639,4.2639,4.2639,4.2639,4.2639,4.2639,4.2639,4.2639,4.2639,4.2639,4.2639,4.2639,4.2306,4.181,4.181,4.181,4.181,4.181,4.1545,4.125,4.125,4.1002,4.0613,4.0263,4.0139,3.9979,3.9217,3.9004,3.8827,3.8008,3.7813,3.763,3.697,3.662,3.635,3.6054,3.5783,3.5504,3.5131,3.4455,3.3829,3.344,3.2459,3.1613,3.1258,3.119,3.1072,3.07,3.0328,2.9803,2.9042,2.8619,2.8095,2.7334,2.6251,2.5494,2.5313,2.4181,2.3278,2.2821,2.2315,2.2064,2.2064,2.1838,2.1695,2.1695,2.2024,2.2188,2.2203,2.2503,2.2488,0.0,0.0,0.0,0.0,0.0,0.0,0.0,0.0,2.3345,2.5262,2.6398,2.7928,3.0859,3.268,3.4348,3.6332,3.7682,3.886,4.0033,4.0182,4.0227,4.0359,4.0271,4.0587,4.1697,4.181,4.181,4.181,4.181,4.181,4.181,4.1895,4.1979,4.1979,4.2062,4.2144,4.2144,4.2598,4.2864,4.2864,4.3286,4.3497,4.3497,4.3497,4.3497,4.3497,4.3497,4.3497,4.3497,4.3497,4.3497,4.3497,4.3497,4.294,4.2144,4.2144,4.2144,4.2144,4.2144,4.2144,4.2144,4.2144,4.2144,4.2019,4.1417,4.1221,4.1078,4.0349,4.0116,3.9938,3.9131,3.8827,3.8504,3.7733,3.7126,3.6643,3.6457,3.6054,3.5739,3.5622,3.5013,3.4489,3.4489,3.3389,3.2256,3.1512,3.1275,3.119,3.119,3.0683,3.026,3.0125,2.9567,2.8822,2.7857,2.6691,2.5832,2.5362,2.4679,2.4129,2.3751,2.3122,2.2785,2.2785,2.2303,2.2069,2.2069,2.2592,2.2921,2.3071,2.3565,2.3535,1.8568,1.9016,1.9765,2.1036,2.1889,2.3172,0.0,0.0,2.7265,2.8737,3.0549,3.2166,3.3264,3.545,3.7577,3.9094,3.994,4.0658,4.1478,4.1584,4.1771,4.2297,4.1896,4.1619,4.1793,4.181,4.181,4.181,4.181,4.181,4.181,4.2302,4.2616,4.2616,4.305,4.3321,4.3321,4.3375,4.341,4.341,4.3479,4.3497,4.3497,4.3497,4.3497,4.3497,4.3497,4.3497,4.3497,4.3497,4.3497,4.3497,4.3497,4.341,4.3321,4.3321,4.3321,4.3321,4.3321,4.3321,4.3321,4.3321,4.3321,4.3303,4.3211,4.3193,4.301,4.2223,4.2004,4.1821,4.1034,4.0284,3.9582,3.9011,3.8294,3.7488,3.6603,3.6333,3.6182,3.5694,3.5013,3.4489,3.4489,3.3812,3.3034,3.2273,3.1613,3.119,3.119,3.1123,3.0835,3.0176,3.004,2.9397,2.7908,2.7637,2.7249,2.6539,2.6027,2.573,2.5694,2.4712,2.4157,2.4157,2.3667,2.3385,2.3385,2.346,2.3819,2.4418,2.4433,2.4433,2.135,2.2015,2.2716,0.0,2.5346,2.6968,2.843,2.9371,3.0429,3.2194,3.386,3.5431,3.6985,3.8478,3.9751,0.0,4.1188,4.1564,4.2248,4.2342,4.234,4.2468,4.2668,4.2772,4.2772,4.2772,4.2772,4.2772,4.2772,4.2772,4.2772,4.3032,4.3178,4.3178,4.3375,4.3497,4.3497,4.3497,4.3497,4.3497,4.3497,4.3497,4.3497,4.3497,4.3497,4.3497,4.3497,4.3497,4.3497,4.3497,4.3497,4.3497,4.3497,4.3497,4.3497,4.3497,4.3497,4.3497,4.3497,4.3497,4.3497,4.3497,4.3497,4.3497,4.3497,4.3497,4.3424,4.3075,4.3002,4.28,4.2011,4.1203,4.0437,3.971,3.8712,3.779,3.7342,3.6825,3.6333,3.6097,3.5555,3.5148,3.5148,3.4539,3.3931,3.3626,3.2577,3.1681,3.1258,3.119,3.1072,3.0768,3.0362,2.9854,2.9211,2.8755,2.818,2.7402,2.7177,2.6853,2.6418,2.5395,2.4871,2.4871,2.4032,2.3752,2.4074,2.4158,2.4665,2.5612,2.5672,2.6101,2.3637,2.4601,0.0,2.6519,2.8458,3.0178,3.0595,3.1789,3.3214,3.4848,3.626,3.7659,3.9112,4.0217,4.1065,4.1594,4.2042,4.2444,4.2846,4.272,4.2596,4.2638,4.2947,4.3259,4.3461,4.3497,4.3497,4.3497,4.3497,4.3497,4.3497,4.3497,4.3497,4.3497,4.3497,4.3497,4.3497,4.3497,4.3497,4.3497,4.3497,4.3497,4.3497,4.3497,4.3497,4.3497,4.3497,4.3497,4.3497,4.3497,4.3497,4.3497,4.3497,4.3497,4.3497,4.3497,4.3497,4.3497,4.3497,4.3497,4.3497,4.3497,4.3497,4.3497,4.3497,4.3497,4.3497,4.3497,4.3497,4.3369,4.2782,4.2029,4.124,4.0414,3.9327,3.8352,3.7982,3.7248,3.658,3.6416,3.5985,3.5622,3.5622,3.5165,3.4726,3.4523,3.3575,3.256,3.1613,3.1326,3.119,3.119,3.0717,3.0328,3.0125,2.96,2.8958,2.8197,2.8146,2.7892,2.7351,2.6351,2.5837,2.6031,2.4947,2.4667,2.5237,2.533,2.5886,2.6871,2.6988,2.7648,2.4623,0.0,2.766,2.9145,3.0479,3.1797,3.3185,3.4543,3.5627,3.6249,3.7491,3.8478,3.8395,4.0027,4.1393,4.1411,4.2541,4.3444,4.3479,4.2818,4.2616,4.3369,4.28,4.2635,4.3406,4.3497,4.3497,4.3497,4.3497,4.3497,4.3497,4.3497,4.3497,4.3497,4.3497,4.3497,4.3497,4.3497,4.3497,4.3497,4.3497,4.3497,4.3497,4.3497,4.3497,4.3497,4.3497,4.3497,4.3497,4.3497,4.3497,4.3497,4.3497,4.3497,4.3497,4.3497,4.3497,4.3497,4.3497,4.3497,4.3497,4.3497,4.3497,4.3497,4.3497,4.3497,4.3497,4.3497,4.3497,4.3479,4.3461,4.2873,4.2066,4.1258,4.0451,3.9479,3.8176,3.7506,3.702,3.6498,3.5985,3.5622,3.5622,3.5605,3.5334,3.4607,3.4455,3.3897,3.2425,3.163,3.119,3.119,3.1173,3.0869,3.0176,3.0091,2.9753,2.8991,2.8941,2.8941,2.8943,2.7856,2.7518,2.8092,2.7005,2.6706,2.7322,2.7297,2.7666,2.834,2.8356,2.8714,2.6643,0.0,2.9938,3.1896,3.3311,3.4711,3.6563,3.7305,3.7776,3.8351,3.8677,3.8999,3.9457,4.0004,4.075,4.1809,4.2386,4.2892,4.3406,4.3259,4.3002,4.2745,4.2928,0.0,0.0,4.3185,4.3497,4.3497,4.3497,4.3497,4.3497,4.3497,4.3497,4.3497,4.3497,4.3497,4.3497,4.3497,4.3497,4.3497,4.3497,4.3497,4.3497,4.3497,4.3497,4.3497,4.3497,4.3497,4.3497,4.3497,4.3497,4.3497,4.3497,4.3497,4.3497,4.3497,4.3497,4.3497,4.3497,4.3497,4.3497,4.3497,4.3497,4.3497,4.3497,4.3497,4.3497,4.3497,4.3497,4.3497,4.3497,4.2892,4.2231,4.1974,4.0873,3.9777,3.9305,3.8151,3.7152,3.696,3.6207,3.5622,3.5622,3.5622,3.5368,3.4607,3.366,3.2848,3.2341,3.1647,3.119,3.119,3.119,3.1106,3.0852,3.0835,3.0514,2.9786,2.9736,2.9499,2.9045,2.829,2.8001,2.8213,2.7485,2.7345,2.7945,2.8036,2.8575,2.9536,2.9617,3.0004,2.955,3.111,3.2469,3.4726,3.5982,3.6987,3.8053,3.8616,3.8835,3.8567,3.8294,3.8256,3.8733,3.872,3.9221,4.113,4.168,4.2249,4.3332,4.324,4.2983,4.2763,4.2928,4.2983,0.0,0.0,4.3497,4.3497,4.3497,4.3497,4.3497,4.3497,4.3497,4.3497,4.3497,4.3497,4.3497,4.3497,4.3497,4.3497,4.3497,4.3497,4.3497,4.3497,4.3497,4.3497,4.3497,4.3497,4.3497,4.3497,4.3497,4.3497,4.3497,4.3497,4.3497,4.3497,4.3497,4.3497,4.3497,4.3497,4.3497,4.3497,4.3497,4.3497,4.3497,4.3497,4.3497,4.3497,4.3497,4.3497,4.3497,4.3112,4.2653,4.2378,4.1515,4.0598,4.001,3.8705,3.7547,3.7281,3.6316,3.5622,3.5622,3.5622,3.5453,3.4962,3.3846,3.2882,3.2381,3.1647,3.119,3.119,3.119,3.119,3.119,3.119,3.1004,3.0531,3.0497,3.0277,2.9803,2.9243,2.9069,2.9282,2.8715,2.8715,2.9282,2.9354,2.9764,3.0514,3.058,3.0838,3.3023,3.4248,3.5226,3.7445,3.838,3.8547,3.787,3.8602,3.8887,3.7106,3.6597,3.6389,0.0,0.0,3.7,3.9386,4.0524,4.1662,4.3259,4.2837,4.2635,0.0,0.0,0.0,0.0,0.0,0.0,4.3513,4.3513,4.3497,4.3497,4.3497,4.3532,4.3513,4.3513,4.3548,4.3548,4.3548,4.3513,4.3497,4.3497,4.3497,4.3497,4.3497,4.3497,4.3497,4.3497,4.3497,4.3497,4.3497,4.3497,4.3497,4.3497,4.3497,4.3497,4.3497,4.3497,4.3497,4.3497,4.3497,4.3497,4.3497,4.3497,4.3497,4.3497,4.3497,4.3497,4.3497,4.3497,4.3497,4.3497,4.3497,4.3296,4.2543,4.2323,4.1882,4.0341,3.9175,3.8206,3.7423,3.635,3.5622,3.5622,3.5622,3.5622,3.5622,3.4979,3.3981,3.2577,3.1732,3.1258,3.1258,3.1207,3.119,3.119,3.119,3.119,3.119,3.119,3.119,3.119,3.0658,3.0617,3.119,3.0658,3.0617,3.119,3.119,3.119,3.119,3.119,3.1207,3.396,3.5922,3.7887,3.9015,3.9303,3.9499,4.0253,3.926,3.806,3.7434,3.5798,3.4329,0.0,0.0,0.0,3.7808,3.979,0.0,4.3259,4.3314,0.0,4.3461,0.0,4.3259,4.3461,4.3726,0.0,4.3881,4.3646,4.3497,4.3497,4.3497,4.3612,4.3849,4.3881,4.4035,4.4308,4.4016,4.3758,4.3497,4.3497,4.3497,4.3497,4.3497,4.3497,4.3497,4.3497,4.3497,4.3497,4.3497,4.3497,4.3497,4.3497,4.3497,4.3497,4.3497,4.3497,4.3497,4.3497,4.3497,4.3497,4.3497,4.3497,4.3497,4.3497,4.3497,4.3497,4.3497,4.3497,4.3497,4.3497,4.3497,4.3442,4.3222,4.2745,4.2194,4.1772,4.0251,3.8761,3.8209,3.6755,3.5622,3.5622,3.5622,3.5622,3.5622,3.4979,3.4353,3.3981,3.2797,3.2002,3.2002,3.1512,3.119,3.119,3.119,3.119,3.119,3.119,3.119,3.119,3.1055,3.1055,3.119,3.1055,3.1055,3.119,3.119,3.119,3.119,3.119,3.1478,3.63,3.7964,3.9415,4.0447,4.0512,4.0134,3.9463,3.8194,3.6594,3.4687,3.2908,0.0,3.1084,3.2063,3.366,0.0,0.0,0.0,4.269,4.3277,4.3497,0.0,4.3497,0.0,4.3497,4.3679,4.3849,4.3986,4.4004,4.3992,4.3992,4.3992,4.4065,4.4261,4.4261,4.4373,4.4599,4.4392,4.4165,4.3992,4.3992,4.3899,4.3726,4.3726,4.3646,4.3497,4.3497,4.3497,4.3497,4.3497,4.3497,4.3497,4.3497,4.3497,4.3497,4.3497,4.3497,4.3497,4.3497,4.3497,4.3497,4.3497,4.3497,4.3497,4.3497,4.3497,4.3497,4.3497,4.3497,4.3497,4.3497,4.3497,4.3497,4.3497,4.3149,4.2727,4.2378,4.0884,3.9193,3.7813,3.6457,3.5622,3.5622,3.5622,3.5622,3.5622,3.5267,3.4979,3.4979,3.3406,3.2313,3.2313,3.163,3.119,3.119,3.119,3.119,3.119,3.119,3.119,3.119,3.119,3.119,3.119,3.119,3.119,3.119,3.119,3.119,3.1207,3.1512,3.1884,3.8884,3.9956,4.0429,4.151,4.1465,4.0402,3.728,3.617,3.4706,3.0834,0.0,2.8796,2.8576,2.9439,3.1182,3.4183,0.0,3.9423,4.1956,4.2892,4.3369,4.3479,4.3497,4.3513,4.3563,4.3597,4.3772,4.4117,4.4508,4.4682,4.4606,4.458,4.4606,4.4657,4.4707,4.4707,4.4676,4.4676,4.4631,4.458,4.458,4.4419,4.4087,4.4087,4.3912,4.3664,4.3664,4.3664,4.3664,4.3664,4.3664,4.3664,4.3664,4.3664,4.3664,4.3664,4.3597,4.3582,4.3582,4.3548,4.3497,4.3497,4.3497,4.3497,4.3497,4.3497,4.3497,4.3497,4.3497,4.3497,4.3497,4.3497,4.3497,4.3497,4.3497,4.3296,4.2598,4.1268,3.9476,3.698,3.6028,3.5622,3.5622,3.5622,3.5622,3.5622,3.5622,3.5622,3.5622,3.3744,3.2425,3.2425,3.1698,3.119,3.119,3.119,3.119,3.119,3.119,3.119,3.119,3.119,3.119,3.119,3.119,3.119,3.119,3.119,3.119,3.1207,3.185,3.2239,3.9241,4.0846,4.2099,4.1602,4.0799,3.9479,3.6936,3.4742,0.0,0.0,2.8576,2.7603,2.6264,2.8301,3.0815,3.2724,3.5661,3.8781,4.1864,4.2415,4.2745,0.0,0.0,4.3597,4.3881,4.4223,0.0,4.4877,4.5243,4.5182,4.4631,4.458,4.4726,4.4988,4.5283,4.5283,4.503,4.5011,4.4872,4.458,4.458,4.4553,4.4501,4.4501,4.4474,4.4392,4.4392,4.4392,4.4392,4.4392,4.4392,4.4392,4.4392,4.4392,4.4392,4.4392,4.4194,4.3893,4.3893,4.3726,4.3497,4.3497,4.3497,4.3497,4.3497,4.3497,4.3497,4.3497,4.3497,4.3497,4.3497,4.3497,4.3497,4.3497,4.3497,4.3442,4.3314,4.1396,3.9189,3.7415,3.6291,3.5622,3.5622,3.5622,3.5622,3.5622,3.5622,3.5622,3.5622,3.4218,3.322,3.322,3.2002,3.119,3.119,3.119,3.119,3.119,3.119,3.119,3.119,3.119,3.119,3.119,3.119,3.119,3.119,3.119,3.119,3.119,3.1326,3.2036,3.9498,4.061,4.1377,4.1269,3.994,3.79,3.5037,0.0,0.0,0.0,2.6066,2.5473,2.4886,2.6722,0.0,3.0461,3.3109,3.6229,3.9918,4.0781,0.0,0.0,0.0,4.3612,0.0,4.4175,4.4508,4.5052,4.5243,4.5282,4.514,4.5118,4.5182,4.5342,4.5513,4.5513,4.5362,4.5362,4.5263,4.5118,4.5118,4.5033,4.4872,4.4872,4.4776,4.458,4.458,4.458,4.458,4.458,4.458,4.458,4.458,4.458,4.458,4.458,4.4364,4.4016,4.4016,4.3772,4.3497,4.3497,4.3497,4.3497,4.3497,4.3497,4.3497,4.3497,4.3497,4.3497,4.3497,4.3497,4.3497,4.3497,4.3497,4.3259,4.2433,4.1035,3.9494,3.7882,3.6964,3.6316,3.6054,3.6028,3.5941,3.5667,3.5622,3.5622,3.5622,3.4658,3.3829,3.344,3.2408,3.1613,3.1224,3.119,3.119,3.119,3.119,3.119,3.119,3.119,3.119,3.119,3.119,3.1376,3.1749,3.1749,3.1968,3.2357,3.273,3.3288,3.9391,4.013,4.0472,4.0775,3.9019,3.6376,3.3091,3.0206,0.0,0.0,2.3896,2.3774,2.4036,0.0,2.6943,0.0,3.0889,3.3844,3.8102,3.9386,0.0,0.0,0.0,0.0,4.4204,4.4233,4.4489,4.5161,4.5201,4.5322,4.5586,4.5586,4.5586,4.5586,4.5586,4.5586,4.5586,4.5586,4.5586,4.5586,4.5586,4.5457,4.5201,4.5201,4.5074,4.4806,4.4806,4.4806,4.4806,4.4806,4.4806,4.4806,4.4806,4.4806,4.4806,4.4806,4.4561,4.4233,4.4146,4.3912,4.3597,4.3513,4.3497,4.3497,4.3497,4.3497,4.3497,4.3497,4.3497,4.3497,4.3497,4.3497,4.3497,4.3497,4.3369,4.2837,4.1423,4.0557,3.9625,3.8182,3.7506,3.7076,3.6643,3.658,3.6416,3.6011,3.5854,3.5783,3.5783,3.5186,3.4455,3.3711,3.2966,3.2222,3.1495,3.1427,3.136,3.1207,3.119,3.1258,3.141,3.1275,3.1258,3.1427,3.1275,3.1546,3.2313,3.2313,3.2662,3.3423,3.3981,3.4336,3.8647,3.991,4.0863,4.0194,3.8193,3.555,3.2247,0.0,0.0,2.4241,2.3714,2.3714,2.3735,2.4707,2.6282,2.8631,3.0411,3.3183,3.8028,3.9386,0.0,0.0,0.0,0.0,4.4943,4.4988,4.514,4.5513,4.5568,4.5568,4.5586,4.5586,4.5586,4.5586,4.5586,4.5586,4.5586,4.5586,4.5586,4.5586,4.5586,4.5586,4.5568,4.5568,4.555,4.5513,4.5513,4.5513,4.5513,4.5513,4.5513,4.5513,4.5513,4.5513,4.5513,4.5513,4.5283,4.4966,4.4657,4.4308,4.3893,4.3597,4.3497,4.3497,4.3497,4.3497,4.3497,4.3497,4.3497,4.3497,4.3497,4.3497,4.3497,4.3497,4.2928,4.2176,4.1295,4.0102,3.8957,3.8074,3.7506,3.7173,3.7135,3.7152,3.7097,3.7058,3.6643,3.635,3.635,3.583,3.5233,3.4472,3.3744,3.3,3.2239,3.2212,3.1901,3.1241,3.119,3.1495,3.2154,3.1546,3.1495,3.2171,3.1529,3.1546,3.2313,3.2313,3.2662,3.3406,3.3474,3.3863,3.7521,3.8799,3.946,3.8652,3.6597,3.4037,3.1052,0.0,2.5799,2.4068,2.3544,2.3522,2.3917,2.437,2.5144,2.6594,2.7883,3.0013,3.3778,3.5673,3.7988,4.1437,4.2399,0.0,0.0,4.5096,4.5243,4.5568,4.5586,4.5586,4.5586,4.5586,4.5586,4.5586,4.5586,4.5586,4.5586,4.5586,4.5586,4.5586,4.5586,4.5586,4.5586,4.5586,4.5586,4.5586,4.5586,4.5586,4.5586,4.5586,4.5586,4.5586,4.5586,4.5586,4.5586,4.5586,4.54,4.5074,4.4943,4.4657,4.4308,4.3912,4.3804,4.3772,4.3563,4.3497,4.3497,4.3497,4.3497,4.3497,4.3497,4.3497,4.3369,4.2892,4.2525,4.1956,4.0653,3.9955,3.9331,3.8547,3.8234,3.8016,3.7703,3.7614,3.7542,3.7248,3.7038,3.6764,3.6457,3.6224,3.5865,3.5243,3.4506,3.3761,3.3017,3.2949,3.2645,3.1901,3.2273,3.2256,3.1647,3.2205,3.2442,3.2313,3.1985,3.2425,3.3609,3.3169,3.3575,3.4742,3.4742,3.4895,3.5816,3.7088,3.7686,3.7246,3.5219,3.2666,0.0,2.7503,2.5083,2.3822,2.3369,2.3369,2.3955,2.4113,2.4447,2.5274,2.6431,2.8329,3.1449,3.3639,3.6287,0.0,0.0,4.2515,4.4322,4.4956,4.5342,4.5586,4.5586,4.5586,4.5586,4.5586,4.5586,4.5586,4.5586,4.5586,4.5586,4.5586,4.5586,4.5586,4.5586,4.5586,4.5586,4.5586,4.5586,4.5586,4.5586,4.5586,4.5586,4.5586,4.5586,4.5586,4.5586,4.5586,4.5586,4.5586,4.5438,4.5222,4.5118,4.4943,4.4682,4.429,4.4175,4.4136,4.3899,4.3679,4.3497,4.3497,4.3497,4.3497,4.3497,4.3314,4.3002,4.2433,4.1937,4.1277,4.0139,3.9698,3.9386,3.8817,3.8707,3.8578,3.8183,3.815,3.8032,3.7703,3.7524,3.7285,3.6904,3.6563,3.6266,3.5854,3.522,3.4539,3.3795,3.3728,3.3406,3.2662,3.3119,3.3034,3.2205,3.2966,3.3254,3.2949,3.273,3.3237,3.4489,3.3981,3.437,3.5622,3.5622,3.5622,3.3424,3.4725,3.5742,3.6197,3.4207,3.1699,3.0079,2.7317,2.4749,2.3477,2.3189,2.3282,2.3631,2.3976,2.4447,2.5274,2.6894,2.9246,3.2523,3.4614,3.685,0.0,0.0,4.1781,4.2994,4.4624,4.5605,4.5586,4.5586,4.5586,4.5586,4.5586,4.5586,4.5586,4.5586,4.5586,4.5586,4.5586,4.5586,4.5586,4.5586,4.5586,4.5586,4.5586,4.5586,4.5586,4.5586,4.5586,4.5586,4.5586,4.5586,4.5586,4.5586,4.5586,4.5586,4.5586,4.5586,4.555,4.5222,4.5096,4.5052,4.4682,4.458,4.458,4.458,4.4065,4.3497,4.3497,4.3497,4.3497,4.3497,4.291,4.2304,4.2304,4.1075,3.9918,3.99,3.9276,3.8707,3.8707,3.8707,3.8707,3.8707,3.8707,3.8707,3.8676,3.8216,3.7893,3.7911,3.702,3.6374,3.6374,3.5898,3.5301,3.4539,3.4472,3.4167,3.344,3.3406,3.3728,3.4438,3.3778,3.3744,3.4455,3.3761,3.3761,3.4489,3.4489,3.4878,3.5622,3.5622,3.5622,3.0486,3.1534,3.2056,3.1847,3.0559,2.8889,2.704,2.5444,2.4058,2.3057,2.3045,2.33,2.3649,2.3976,2.4814,2.6722,2.8153,2.9729,3.1874,0.0,0.0,3.907,4.22,4.44,4.4778,4.5278,4.5586,4.5586,4.5586,4.5586,4.5586,4.5586,4.5586,4.5586,4.5586,4.5586,4.5586,4.5586,4.5586,4.5586,4.5586,4.5586,4.5586,4.5586,4.5586,4.5586,4.5586,4.5586,4.5586,4.5586,4.5586,4.5586,4.5586,4.5586,4.5586,4.5586,4.5586,4.5586,4.5476,4.5438,4.54,4.5052,4.4943,4.4896,4.4657,4.4447,4.4194,4.3912,4.3679,4.3369,4.2818,4.2488,4.2029,4.091,4.0267,3.9753,3.9203,3.8891,3.8707,3.8707,3.8707,3.8707,3.8707,3.8707,3.8707,3.8707,3.8546,3.83,3.7946,3.736,3.6803,3.6416,3.5941,3.552,3.5284,3.5267,3.4945,3.4201,3.4624,3.4573,3.3778,3.4506,3.4793,3.4506,3.4269,3.4506,3.5267,3.4742,3.4878,3.5622,3.5622,3.5622,0.0,2.8969,2.9296,2.9152,2.8245,2.7025,2.5537,2.4462,2.3619,2.3022,2.3045,2.3346,2.3795,2.4074,2.4685,2.619,2.7579,2.9174,0.0,0.0,0.0,3.9729,4.2766,4.4778,4.5066,4.5413,4.5586,4.5586,4.5586,4.5586,4.5586,4.5586,4.5586,4.5586,4.5586,4.5586,4.5586,4.5586,4.5586,4.5586,4.5586,4.5586,4.5586,4.5586,4.5586,4.5586,4.5586,4.5586,0.0,4.5586,4.5586,4.5586,4.5586,4.5586,4.5586,4.5586,4.5586,4.5586,4.5586,4.5586,4.5568,4.5342,4.5201,4.5052,4.4849,4.4606,4.4318,4.4058,4.3536,4.2928,4.2433,4.1846,4.113,4.0139,3.9662,3.9313,3.8817,3.8707,3.8707,3.8707,3.8707,3.8707,3.8707,3.8707,3.8707,3.8707,3.8707,3.8578,3.8249,3.7773,3.7285,3.6764,3.6207,3.581,3.5622,3.5622,3.5419,3.4945,3.5368,3.5216,3.4286,3.5131,3.5402,3.4928,3.4912,3.5148,3.5622,3.5148,3.5165,3.5622,3.5622,3.5622,0.0,2.6606,2.6999,2.75,2.6775,2.5779,2.5147,2.4133,0.0,2.3179,2.3189,2.341,2.4127,2.4207,2.4281,2.4575,2.6042,0.0,0.0,3.3756,0.0,0.0,4.2797,4.3566,4.4316,4.5124,4.5586,4.5586,4.5586,4.5586,4.5586,4.5586,4.5586,4.5586,4.5586,4.5586,4.5586,4.5586,4.5586,4.5586,4.5586,4.5586,4.5586,4.5586,4.5586,4.5586,4.5586,4.5586,4.5586,4.5586,4.5586,4.5586,4.5586,4.5586,4.5586,4.5586,4.5586,4.5586,4.5586,4.5586,4.5586,4.5586,4.54,4.5137,4.5137,4.4594,4.3998,4.3942,4.313,4.2268,4.2158,4.102,3.9882,3.9827,3.9239,3.8707,3.8707,3.8707,3.8707,3.8707,3.8707,3.8707,3.8707,3.8707,3.8707,3.8707,3.8707,3.8707,3.8707,3.8216,3.772,3.7285,3.6724,3.6224,3.5694,3.5622,3.5622,3.5622,3.5622,3.5622,3.5622,3.5622,3.5622,3.5622,3.5622,3.5622,3.5622,3.5622,3.5622,3.5622,3.5622,3.5622,2.1148,0.0,2.1969,2.2884,2.2755,2.2504,0.0,2.2768,2.2592,0.0,0.0,0.0,2.4548,2.4436,2.5199,2.8282,0.0,3.0692,3.3468,0.0,0.0,4.4278,4.4893,4.5086,4.5278,4.547,4.5586,4.5586,4.5586,4.5586,4.5586,4.5586,4.5586,4.5586,4.5586,4.5586,4.5586,4.5586,4.5586,4.5586,4.5586,4.5586,4.5586,4.5586,4.5586,4.5586,4.5586,4.5586,4.5586,4.5586,4.5586,4.5586,4.5586,4.5586,4.5586,4.5586,4.5586,4.5586,4.5586,4.5586,4.5586,4.5586,4.555,4.5495,4.5495,4.4811,4.3867,4.3252,4.2717,4.2011,4.0781,4.0175,3.9735,3.9129,3.8836,3.8707,3.8707,3.8707,3.8707,3.8707,3.8707,3.8707,3.8707,3.8707,3.8707,3.8707,3.8707,3.8707,3.8707,3.8216,3.7859,3.7755,3.6943,3.6333,3.6224,3.5827,3.5622,3.5622,3.5622,3.5622,3.5622,3.5622,3.5622,3.5622,3.5622,3.5622,3.5622,3.5622,3.5622,3.5622,3.5622,3.5622,1.887,1.9756,2.0704,2.1259,2.1574,2.1803,2.2226,0.0,0.0,0.0,0.0,0.0,0.0,0.0,0.0,0.0,2.9483,0.0,0.0,0.0,4.2662,4.5278,4.5586,4.5586,4.5586,4.5586,4.5586,4.5586,4.5586,4.5586,4.5586,4.5586,4.5586,4.5586,4.5586,4.5586,4.5586,4.5586,4.5586,4.5586,4.5586,4.5586,4.5586,4.5586,4.5586,4.5586,4.5586,4.5586,4.5586,4.5586,4.5586,4.5586,4.5586,4.5586,4.5586,4.5586,4.5586,4.5586,4.5586,4.5586,4.5586,4.5586,4.5495,4.5304,4.4902,4.4265,4.3606,4.3165,4.2166,4.1001,4.012,3.9625,3.9239,3.8799,3.8707,3.8707,3.8707,3.8707,3.8707,3.8707,3.8707,3.8707,3.8707,3.8707,3.8707,3.8707,3.8707,3.8707,3.8707,3.8465,3.8099,3.7614,3.7268,3.6786,3.6097,3.5985,3.5854,3.5622,3.5622,3.5622,3.5622,3.5622,3.5622,3.5622,3.5622,3.5622,3.5622,3.5622,3.5622,3.5622,3.5622,3.5622,1.7946,1.9452,2.1008,2.1008,2.1583,2.2175,2.2276,0.0,0.0,0.0,0.0,0.0,0.0,0.0,0.0,0.0,0.0,0.0,3.8495,4.1407,4.3566,4.5374,4.5586,4.5586,4.5586,4.5586,4.5586,4.5586,4.5586,4.5586,4.5586,4.5586,4.5586,4.5586,4.5586,4.5586,4.5586,4.5586,4.5586,4.5586,4.5586,4.5586,4.5586,4.5586,4.5586,4.5586,4.5586,4.5586,4.5586,4.5586,4.5586,4.5586,4.5586,4.5586,4.5586,4.5586,4.5586,4.5586,4.5586,4.5586,4.5586,4.5586,4.5323,4.4836,4.409,4.3456,4.2988,4.2975,4.1576,4.0013,3.9823,3.9277,3.8732,3.8707,3.8707,3.8707,3.8707,3.8707,3.8707,3.8707,3.8707,3.8707,3.8707,3.8707,3.8707,3.8707,3.8707,3.8707,3.8707,3.8707,3.8368,3.7524,3.772,3.7324,3.5968,3.6182,3.6182,3.5605,3.5622,3.5622,3.5622,3.5622,3.5622,3.5622,3.5622,3.5622,3.5622,3.5622,3.5622,3.5622,3.5622,3.5622,1.8555,1.9452,2.017,2.017,2.0788,2.1515,2.2175,0.0,0.0,0.0,0.0,0.0,0.0,2.6289,2.7718,0.0,0.0,3.674,0.0,4.1742,4.2893,4.5297,4.5586,4.5586,4.5586,4.5586,4.5586,4.5586,4.5586,4.5586,4.5586,4.5586,4.5586,4.5586,4.5586,4.5586,4.5586,4.5586,4.5586,4.5586,4.5586,4.5586,4.5586,4.5586,4.5586,4.5586,4.5586,4.5586,4.5586,4.5586,4.5586,4.5586,4.5586,4.5586,4.5586,4.5586,4.5586,4.5586,4.5586,4.5586,4.5586,4.5586,4.5068,4.4399,4.4264,4.3006,4.1603,4.1603,4.115,4.0446,3.9471,3.9129,3.8971,3.8762,3.8707,3.8707,3.8707,3.8707,3.8707,3.8707,3.8707,3.8707,3.8707,3.8707,3.8707,3.8707,3.8707,3.8707,3.8707,3.8707,3.8627,3.8483,3.815,3.7649,3.702,3.6603,3.6182,3.5605,3.5622,3.5622,3.5622,3.5622,3.5622,3.5622,3.5622,3.5622,3.5622,3.5622,3.5622,3.5622,3.5622,3.5622,1.7468,1.8538,1.9502,1.99,2.1211,2.2479,2.2818,0.0,0.0,0.0,0.0,0.0,0.0,0.0,2.9237,3.2818,0.0,3.8857,4.1434,4.222,4.3278,4.5336,4.5586,4.5586,4.5586,4.5586,4.5586,4.5586,4.5586,4.5586,4.5586,4.5586,4.5586,4.5586,4.5586,4.5586,4.5586,4.5586,4.5586,4.5586,4.5586,4.5586,4.5586,4.5586,4.5586,4.5586,4.5586,4.5586,4.5586,4.5586,4.5586,4.5586,4.5586,4.5586,4.5586,4.5586,4.5297,4.4893,4.4893,4.4605,4.4239,4.4239,4.397,4.3566,4.3085,4.2307,4.1471,4.0992,4.0516,4.0024,3.9502,3.9257,3.9072,3.8933,3.8803,3.8707,3.8707,3.8707,3.8707,3.8707,3.8707,3.8707,3.8707,3.8707,3.8707,3.8707,3.8707,3.8707,3.8707,3.8707,3.8578,3.83,3.83,3.7929,3.6843,3.6803,3.6481,3.565,3.5622,3.5622,3.5622,3.5622,3.5622,3.5622,3.5622,3.5622,3.5622,3.5622,3.5622,3.5622,3.5622,3.5622,1.6905,1.7896,1.891,2.0027,0.0,2.3224,2.3579,0.0,0.0,0.0,0.0,0.0,0.0,2.8839,0.0,3.4927,3.7797,4.0104,4.1585,4.2374,4.3355,4.4836,4.5009,4.5009,4.5009,4.5009,4.5009,4.5009,4.5009,4.5086,4.5278,4.5105,4.5086,4.5278,4.5105,4.5009,4.5009,4.5009,4.5201,4.5586,4.5586,4.5586,4.5586,4.5586,4.5586,4.5586,4.5586,4.5586,4.5586,4.5586,4.5586,4.5566,4.5374,4.5182,4.5009,4.5009,4.4586,4.4028,4.4028,4.3624,4.3104,4.3104,4.297,4.2662,4.2008,4.1662,4.1354,4.0681,4.0175,3.98,3.9735,3.9529,3.9314,3.9257,3.9017,3.8803,3.8803,3.8732,3.8707,3.8707,3.8707,3.8707,3.8707,3.8707,3.8707,3.8707,3.8707,3.8707,3.8707,3.8707,3.8546,3.8132,3.8465,3.8135,3.6724,3.6724,3.6481,3.565,3.5622,3.5622,3.5622,3.5622,3.5622,3.5622,3.5622,3.5622,3.5622,3.5622,3.5622,3.5622,3.5622,3.5622,1.8352,1.8318,1.8403,2.0551,2.1752,0.0,2.4103,2.4827,0.0,2.6956,0.0,0.0,0.0,3.166,3.5135,3.7398,3.9242,4.0739,4.1681,4.1854,4.2239,4.3162,4.3278,4.3278,4.3278,4.3278,4.3278,4.3278,4.3278,4.3605,4.4355,4.3682,4.3624,4.4374,4.3662,4.3278,4.3278,4.3278,4.4066,4.5586,4.5586,4.5586,4.5586,4.5586,4.5586,4.5586,4.5586,4.5586,4.5586,4.5586,4.5586,4.5509,4.4701,4.3932,4.3278,4.3278,4.3239,4.3181,4.3181,4.3143,4.3104,4.3104,4.2547,4.1893,4.1816,4.1239,4.0566,4.0508,4.0473,4.0389,4.0139,4.0061,3.9943,3.9645,3.9289,3.9072,3.9072,3.8884,3.8707,3.8707,3.8707,3.8707,3.8707,3.8707,3.8707,3.8707,3.8707,3.8707,3.8707,3.8707,3.8676,3.8658,3.8676,3.8285,3.721,3.6291,3.5694,3.5622,3.5622,3.5622,3.5622,3.5622,3.5622,3.5622,3.5622,3.5622,3.5622,3.5622,3.5622,3.5622,3.5622,3.5622,1.6153,1.7194,1.8234,2.001,2.1397,0.0,0.0,2.6312,2.7427,2.9205,2.9972,0.0,0.0,0.0,3.5604,3.7458,3.8873,4.0219,4.1623,4.1797,4.2124,4.3008,4.3104,4.3104,4.3104,4.3104,4.3104,4.3104,4.3104,4.3239,4.3547,4.3278,4.3239,4.3547,4.3258,4.3104,4.3104,4.3104,4.3412,4.4047,4.4047,4.4047,4.4047,4.4047,4.4047,4.4047,4.4047,4.4047,4.4047,4.4047,4.4047,4.4008,4.3682,4.3374,4.3104,4.3104,4.2758,4.2297,4.2297,4.1931,4.147,4.147,4.1258,4.0989,4.0989,4.0758,4.0489,4.0489,4.0489,4.0441,4.0158,3.9962,3.969,3.9364,3.9054,3.8855,3.8855,3.8762,3.8707,3.8707,3.8707,3.8707,3.8707,3.8707,3.8707,3.8707,3.8707,3.8707,3.8707,3.8707,3.8707,3.8707,3.8135,3.7596,3.721,3.6207,3.5622,3.5622,3.5622,3.5622,3.5622,3.5622,3.5622,3.5622,3.5622,3.5622,3.5622,3.5622,3.5622,3.5622,3.5622,3.5622,1.5607,1.7054,1.8528,0.0,0.0,0.0,2.6307,2.7536,2.8655,3.081,3.1336,0.0,0.0,0.0,0.0,3.7422,3.8815,4.0085,4.1239,4.1393,4.1604,4.22,4.2277,4.2277,4.2277,4.2277,4.2277,4.2277,4.2277,4.2393,4.2662,4.2431,4.2412,4.2681,4.2412,4.2277,4.2277,4.2277,4.2277,4.2277,4.2277,4.2566,4.3104,4.3104,4.3104,4.3104,4.3104,4.3104,4.3104,4.3104,4.2931,4.2701,4.2701,4.2527,4.2277,4.2277,4.1893,4.1393,4.1393,4.0989,4.0489,4.0489,4.0457,4.0389,4.0473,4.0441,4.0389,4.0473,4.0489,4.0406,4.0042,3.984,3.9668,3.9339,3.9027,3.8815,3.8815,3.8762,3.8707,3.8707,3.8707,3.8707,3.8707,3.8707,3.8707,3.8707,3.8707,3.8707,3.8707,3.8707,3.8707,3.8707,3.7791,3.719,3.719,3.6207,3.5622,3.5622,3.5622,3.5622,3.5622,3.5622,3.5622,3.5622,3.5622,3.5622,3.5622,3.5622,3.5622,3.5622,3.5622,3.5622,1.7507,1.8335,0.0,0.0,0.0,0.0,2.763,2.8308,2.8872,3.1484,3.1692,3.2101,3.429,3.4754,0.0,3.764,3.9392,4.0489,4.0489,4.0489,4.0489,4.0489,4.0489,4.0489,4.0489,4.0489,4.0489,4.0489,4.0489,4.0873,4.1739,4.0969,4.0893,4.1758,4.095,4.0489,4.0489,4.0489,4.0489,4.0489,4.0489,4.1393,4.3085,4.3085,4.3085,4.3085,4.3085,4.3085,4.3085,4.3085,4.2566,4.1797,4.1797,4.1258,4.0489,4.0489,4.0489,4.0489,4.0489,4.0489,4.0489,4.0489,4.0321,4.0158,4.0425,4.0321,4.0158,4.0425,4.0489,4.0353,3.9757,3.984,4.0002,3.9668,3.9358,3.9099,3.9099,3.8884,3.8707,3.8707,3.8707,3.8707,3.8707,3.8707,3.8707,3.8707,3.8707,3.8707,3.8707,3.8707,3.8707,3.8707,3.7791,3.721,3.719,3.6207,3.5622,3.5622,3.5622,3.5622,3.5622,3.5622,3.5622,3.5622,3.5622,3.5622,3.5622,3.5622,3.5622,3.5622,3.5622,3.5622,1.5899,0.0,0.0,0.0,0.0,0.0,0.0,2.8879,0.0,0.0,3.3158,3.3407,3.4496,3.5167,3.6103,3.7736,3.8931,3.9835,4.0412,4.0489,4.0489,4.0489,4.0489,4.0489,4.0489,4.0489,4.0489,4.0489,4.0489,4.0604,4.0873,4.0642,4.0623,4.0873,4.0623,4.0489,4.0489,4.0489,4.0489,4.0489,4.0489,4.0758,4.1258,4.1258,4.1258,4.1258,4.1258,4.1258,4.1258,4.1258,4.1123,4.0893,4.0893,4.0719,4.0489,4.0489,4.0489,4.0489,4.0489,4.0489,4.0489,4.0489,4.0457,4.0356,4.025,4.0158,4.0081,3.9924,3.9863,3.9759,3.9364,3.9314,3.9333,3.9036,3.8902,3.8833,3.8833,3.8762,3.8707,3.8707,3.8707,3.8707,3.8707,3.8707,3.8707,3.8707,3.8707,3.8707,3.8707,3.8707,3.8707,3.8707,3.8117,3.7542,3.7228,3.6563,3.6028,3.5605,3.5622,3.5622,3.5622,3.5622,3.5622,3.5622,3.5622,3.5622,3.5622,3.5622,3.5622,3.5622,3.5622,3.5622,1.6409,0.0,0.0,0.0,0.0,0.0,0.0,0.0,0.0,0.0,3.3618,3.3722,3.4555,3.5172,3.5987,3.729,3.82,3.895,3.9431,3.9508,3.9508,3.9508,3.9508,3.9642,3.9988,3.97,3.9642,3.9988,3.97,3.9508,3.9508,3.9508,3.9508,3.9508,3.9835,4.0008,4.0008,4.0335,4.0489,4.0489,4.0489,4.0489,4.0489,4.0489,4.0489,4.0489,4.0489,4.0489,4.0489,4.0489,4.0489,4.0489,4.0489,4.0489,4.0489,4.0489,4.0489,4.0489,4.0489,4.0489,4.0489,4.0489,4.0441,4.0321,4.0139,4.0002,3.9859,3.9645,3.9599,3.951,3.9186,3.9099,3.9036,3.8762,3.8707,3.8707,3.8707,3.8707,3.8707,3.8707,3.8707,3.8707,3.8707,3.8707,3.8707,3.8707,3.8707,3.8707,3.8707,3.8707,3.8707,3.8707,3.8216,3.772,3.7248,3.6724,3.6182,3.5605,3.5622,3.5622,3.5622,3.5622,3.5622,3.5622,3.5622,3.5622,3.5622,3.5622,3.5622,3.5622,3.5622,3.5622,1.8087,0.0,0.0,0.0,0.0,0.0,0.0,0.0,3.2834,3.3623,0.0,3.3411,3.4501,3.4964,3.5512,3.6536,3.743,3.8007,3.8007,3.8007,3.8007,3.8007,3.8007,3.8315,3.9104,3.845,3.8334,3.9123,3.845,3.8007,3.8007,3.8007,3.8007,3.8007,3.8757,3.9181,3.9181,3.9912,4.0258,4.0258,4.0258,4.0258,4.0277,4.0431,4.0489,4.0489,4.0489,4.0489,4.0489,4.0489,4.0489,4.0489,4.0489,4.0489,4.0489,4.0489,4.0489,4.0489,4.0489,4.0489,4.0489,4.0473,4.0321,4.012,4.0022,3.9819,3.9599,3.9529,3.9505,3.9438,3.9059,3.9016,3.898,3.867,3.8652,3.8707,3.8707,3.8707,3.8707,3.8707,3.8707,3.8707,3.8707,3.8707,3.8707,3.8707,3.8707,3.8707,3.8707,3.8707,3.8707,3.8707,3.8216,3.772,3.7248,3.6724,3.6182,3.5605,3.5622,3.5622,3.5622,3.5622,3.5622,3.5622,3.5622,3.5622,3.5622,3.5622,3.5622,3.5622,3.5622,3.5622,0.0,1.8882,0.0,0.0,0.0,0.0,0.0,3.1568,3.2834,3.3623,3.3695,3.3858,3.4574,3.5264,3.5932,3.6584,3.743,3.8007,3.8007,3.8007,3.8007,3.8007,3.8007,3.8065,3.8257,3.8104,3.8084,3.8277,3.8104,3.8007,3.8007,3.8007,3.8007,3.8007,3.818,3.8277,3.8277,3.845,3.8546,3.8546,3.8546,3.8546,3.8584,3.9892,4.0489,4.0489,4.0489,4.0489,4.0489,4.0489,4.0489,4.0489,4.0489,4.0489,4.0489,4.0489,4.0489,4.0489,4.0489,4.0489,4.0473,4.025,4.0304,4.0285,3.9534,3.9457,3.9505,3.9027,3.8873,3.8726,3.8011,3.8295,3.8626,3.793,3.823,3.8707,3.8707,3.8707,3.8707,3.8707,3.8707,3.8707,3.8707,3.8707,3.8707,3.8707,3.8707,3.8707,3.8707,3.8707,3.8707,3.8707,3.8216,3.772,3.7248,3.6724,3.6182,3.5605,3.5622,3.5622,3.5622,3.5622,3.5622,3.5622,3.5622,3.5622,3.5622,3.5622,3.5622,3.5622,3.5622,3.5622,0.0,0.0,0.0,0.0,0.0,0.0,3.0026,3.0852,3.1703,3.2668,3.3573,3.4371,3.4813,3.5341,3.5802,3.608,3.6507,3.6796,3.6796,3.6796,3.6796,3.6796,3.6796,3.6949,3.7334,3.7026,3.6969,3.7353,3.7026,3.6796,3.6796,3.6796,3.6796,3.6796,3.718,3.7373,3.7373,3.7796,3.8007,3.8007,3.8007,3.8007,3.8027,3.8892,3.9296,3.9296,3.9296,3.9296,3.9335,3.9738,3.9931,3.995,4.0335,4.0258,3.9931,3.9931,3.9662,3.9296,3.9296,3.9296,3.9265,3.8991,3.9009,3.9029,3.8651,3.8371,3.8216,3.8151,3.7845,3.7441,3.7019,3.7239,3.7441,3.7019,3.7826,3.8707,3.8707,3.8707,3.8707,3.8707,3.8707,3.8707,3.8707,3.8707,3.8707,3.8707,3.8707,3.8707,3.8707,3.8707,3.8596,3.8332,3.8065,3.7614,3.6882,3.658,3.6182,3.5605,3.5622,3.5622,3.5622,3.5622,3.5622,3.5622,3.5622,3.5622,3.5622,3.5622,3.5622,3.5622,3.5622,3.5622,0.0,0.0,0.0,0.0,0.0,0.0,2.9475,3.0055,3.0522,3.1461,3.302,3.4337,3.4786,3.5059,3.5273,3.5474,3.5493,3.5493,3.5493,3.5493,3.5493,3.5493,3.5493,3.5776,3.643,3.5892,3.5795,3.6449,3.5892,3.5493,3.5493,3.5493,3.5493,3.5493,3.6161,3.6488,3.6488,3.7219,3.7565,3.7565,3.7565,3.7565,3.7565,3.7565,3.7738,3.8007,3.8007,3.8007,3.8065,3.8777,3.9084,3.9142,3.9796,3.9662,3.9084,3.9084,3.8623,3.8007,3.8007,3.8007,3.7959,3.7672,3.7583,3.7605,3.766,3.7243,3.6775,3.7172,3.6798,3.6266,3.6101,3.6193,3.6266,3.6101,3.7221,3.8322,3.8469,3.8597,3.8707,3.8707,3.8707,3.8707,3.8707,3.8707,3.8707,3.8707,3.8707,3.8707,3.8707,3.8627,3.8382,3.7946,3.7755,3.7305,3.6457,3.6308,3.6054,3.5622,3.5622,3.5622,3.5622,3.5622,3.5622,3.5622,3.5622,3.5622,3.5622,3.5622,3.5622,3.5622,3.547,3.5424,0.0,0.0,0.0,0.0,0.0,2.786,0.0,0.0,3.0663,0.0,3.1669,3.2552,3.3743,3.3996,3.4343,3.5345,3.5493,3.5493,3.5493,3.5493,3.5493,3.5493,3.5493,3.5532,3.5661,3.5551,3.5532,3.5661,3.5565,3.5493,3.5493,3.5493,3.5493,3.5493,3.5603,3.5661,3.5661,3.5795,3.5834,3.5834,3.5834,3.5834,3.5834,3.5834,3.6642,3.8007,3.8007,3.8007,3.8007,3.8123,3.8161,3.818,3.8296,3.8277,3.8161,3.8161,3.8104,3.8007,3.8007,3.8007,3.7959,3.7617,3.7545,3.7509,3.6999,3.6789,3.6682,3.6509,3.6376,3.6138,3.5385,3.5734,3.6101,3.5367,3.5917,3.6798,3.7496,3.8212,3.8707,3.8707,3.8707,3.8707,3.8707,3.8707,3.8707,3.8707,3.8707,3.8707,3.8707,3.83,3.798,3.7893,3.7117,3.6539,3.6416,3.5968,3.5667,3.5622,3.5622,3.5622,3.5622,3.5622,3.5622,3.5622,3.5622,3.5622,3.5622,3.5622,3.5622,3.5577,3.4988,3.4736,1.5853,0.0,0.0,0.0,2.5935,2.6557,2.7016,0.0,2.9142,2.951,3.0152,3.1167,3.2966,3.3307,3.347,3.3955,3.4045,3.4045,3.4045,3.4045,3.4045,3.4045,3.4045,3.4237,3.4718,3.4776,3.4968,3.5468,3.5493,3.5493,3.5493,3.5493,3.5493,3.5493,3.5493,3.5493,3.5493,3.5493,3.5493,3.5493,3.5493,3.5493,3.5493,3.5493,3.5911,3.6603,3.6603,3.6603,3.6642,3.7084,3.7276,3.7315,3.7815,3.77,3.7276,3.7276,3.6988,3.6603,3.6603,3.6603,3.6541,3.626,3.6172,3.6178,3.6068,3.569,3.5337,3.5533,3.5257,3.4816,3.4431,3.4614,3.4798,3.4431,3.4963,3.5679,3.6028,3.711,3.8157,3.8615,3.8707,3.8707,3.8707,3.8707,3.8707,3.8707,3.8707,3.8578,3.83,3.8065,3.7667,3.7117,3.6684,3.6266,3.5985,3.5739,3.5622,3.5622,3.5622,3.5622,3.5622,3.5622,3.5622,3.5622,3.5622,3.5622,3.5622,3.5622,3.5622,3.5577,3.5316,3.4941,0.0,0.0,0.0,2.3633,2.4739,2.5309,0.0,0.0,2.769,2.8098,2.8688,2.9722,3.1591,3.2295,3.266,3.2872,3.2891,3.2891,3.2891,3.2891,3.2891,3.2891,3.2891,3.316,3.3814,3.3872,3.4141,3.4795,3.4853,3.4853,3.4853,3.4853,3.4853,3.4853,3.4853,3.4853,3.4853,3.4853,3.4949,3.518,3.518,3.5295,3.5493,3.5493,3.5493,3.5493,3.5493,3.5493,3.5565,3.6161,3.6411,3.6469,3.7103,3.6969,3.6411,3.6411,3.6026,3.5493,3.5493,3.5493,3.5446,3.519,3.5034,3.5021,3.5128,3.4649,3.4198,3.4577,3.4266,3.3807,3.3807,3.3807,3.3807,3.3807,3.4266,3.4816,3.5229,3.6468,3.7661,3.8267,3.856,3.8707,3.8707,3.8707,3.8658,3.8515,3.8515,3.83,3.7808,3.7596,3.723,3.6498,3.6266,3.6011,3.5605,3.5622,3.5622,3.5622,3.5622,3.5622,3.5622,3.5622,3.5622,3.5622,3.5622,3.5622,3.5622,3.5622,3.5622,3.5577,3.5424,3.5005,0.0,1.591,0.0,2.0862,0.0,0.0,0.0,0.0,2.7008,2.7213,2.7504,2.8039,2.9098,3.0641,3.2006,3.2776,3.2891,3.2891,3.2891,3.2891,3.2891,3.2891,3.2891,3.291,3.2968,3.2968,3.2987,3.3026,3.3045,3.3045,3.3045,3.3045,3.3045,3.3045,3.3045,3.3045,3.3045,3.3045,3.3449,3.4257,3.4257,3.4699,3.5493,3.5493,3.5493,3.5493,3.5493,3.5493,3.5493,3.5565,3.5565,3.5584,3.5622,3.5603,3.5565,3.5565,3.5545,3.5493,3.5493,3.5493,3.5446,3.519,3.4926,3.4653,3.4367,3.4055,3.3834,3.3844,3.3825,3.3807,3.3807,3.3807,3.3807,3.3807,3.3825,3.4302,3.5881,3.689,3.7496,3.7562,3.8175,3.8707,3.8707,3.8707,3.8546,3.8013,3.7946,3.7755,3.7285,3.6803,3.6457,3.6433,3.5941,3.5622,3.5622,3.5622,3.5622,3.5622,3.5622,3.5622,3.5622,3.5622,3.5622,3.5622,3.5622,3.5622,3.5622,3.5622,3.5622,3.5577,3.4941,3.4284,0.0,0.0,0.0,1.9339,2.1225,2.2721,2.3657,2.4928,2.6024,2.6349,2.6908,2.7561,2.8211,2.9256,3.0314,3.116,3.1295,3.1295,3.1295,3.1295,3.1295,3.1295,3.1295,3.1525,3.2083,3.2122,3.2333,3.2852,3.2891,3.2891,3.2891,3.2891,3.2891,3.2891,3.2891,3.2891,3.2891,3.2891,3.3064,3.3372,3.3372,3.3526,3.3833,3.3833,3.3833,3.3833,3.3833,3.4468,3.5493,3.5493,3.5493,3.5493,3.5493,3.5493,3.5493,3.5493,3.5493,3.5493,3.5493,3.5493,3.5446,3.519,3.5053,3.487,3.4338,3.4123,3.4018,3.3842,3.3807,3.3807,3.3807,3.3807,3.3807,3.3807,3.3807,3.3954,3.4578,3.533,3.6211,3.7276,3.7716,3.8083,3.8615,3.8707,3.8515,3.798,3.7893,3.7614,3.6803,3.6539,3.6266,3.5941,3.5694,3.5622,3.5622,3.5622,3.5622,3.5622,3.5622,3.5622,3.5622,3.5622,3.5402,3.4912,3.5368,3.5622,3.5622,3.5622,3.5622,3.5577,3.5362,3.464,1.1537,0.0,0.0,0.0,0.0,2.0807,2.2923,2.3804,2.4469,2.5408,2.6031,2.6607,2.7336,2.789,2.8544,2.9429,2.9794,2.9967,2.9967,3.0217,3.0398,3.0398,3.0398,3.0641,3.1218,3.1256,3.1487,3.2025,3.2064,3.2064,3.2064,3.2064,3.2064,3.2064,3.2064,3.2064,3.2064,3.2064,3.2218,3.2506,3.2506,3.2641,3.2891,3.2891,3.2891,3.2891,3.2891,3.3564,3.4641,3.4641,3.4795,3.5064,3.5064,3.5238,3.5493,3.5493,3.5493,3.5493,3.5493,3.5493,3.5446,3.519,3.5053,3.487,3.436,3.4147,3.4018,3.3868,3.3807,3.3807,3.3807,3.3807,3.3807,3.3807,3.3807,3.3807,3.3807,3.432,3.513,3.6236,3.6547,3.6799,3.7326,3.7653,3.7633,3.7095,3.7255,3.7079,3.6249,3.6139,3.5968,3.5667,3.5622,3.5622,3.5622,3.5622,3.5622,3.5622,3.5622,3.5504,3.525,3.525,3.4878,3.415,3.4624,3.4878,3.4878,3.5385,3.5622,3.5577,3.5362,3.4544,0.0,0.0,0.0,0.0,0.0,0.0,2.3088,2.2832,2.2306,2.4335,2.4747,2.5105,2.6318,2.6563,2.6832,2.7678,2.8525,2.9063,2.9063,2.9794,3.0321,3.0321,3.0321,3.0321,3.0321,3.0321,3.0321,3.0321,3.0321,3.0321,3.0321,3.0321,3.0321,3.0321,3.034,3.0359,3.0359,3.0379,3.0833,3.166,3.166,3.2064,3.2833,3.2833,3.2833,3.2833,3.2833,3.2833,3.2833,3.2872,3.3391,3.416,3.416,3.468,3.543,3.543,3.543,3.543,3.543,3.543,3.5369,3.5114,3.4851,3.4595,3.4251,3.3993,3.3807,3.3807,3.3807,3.3807,3.3807,3.3807,3.3807,3.3807,3.3807,3.3807,3.3807,3.4113,3.4388,3.4406,3.4661,3.4871,3.4906,3.5492,3.5786,3.534,3.5879,3.6155,3.5582,3.5571,3.5588,3.5588,3.5588,3.5588,3.5588,3.5571,3.5554,3.5554,3.5554,3.5216,3.4489,3.4455,3.4117,3.3347,3.3347,3.3347,3.333,3.4783,3.5526,3.5543,3.483,3.3836,1.0196,0.0,0.0,0.0,0.0,0.0,1.9918,2.0168,2.0625,2.3305,2.3402,2.3537,2.532,2.5649,2.5736,2.5986,2.7255,2.8217,2.8217,2.8429,2.8582,2.8582,2.8582,2.8582,2.8582,2.8582,2.8582,2.8582,2.8582,2.8582,2.8582,2.8582,2.8582,2.8582,2.9159,2.9467,2.9467,3.0083,3.0513,3.0756,3.0756,3.0891,3.1102,3.1102,3.1102,3.1102,3.1102,3.1102,3.1198,3.241,3.3045,3.3256,3.3256,3.341,3.3622,3.3622,3.3622,3.3622,3.3622,3.3622,3.355,3.3139,3.3356,3.3667,3.3191,3.3408,3.3807,3.3807,3.3807,3.3807,3.3807,3.3807,3.3807,3.3807,3.3807,3.3807,3.3807,3.3658,3.3719,3.4297,3.4181,3.4215,3.48,3.5084,3.5065,3.4557,3.4688,3.4628,3.41,3.4472,3.4793,3.4793,3.4793,3.4793,3.4793,3.432,3.4015,3.4015,3.4015,3.3931,3.3711,3.3272,3.2729,3.1955,3.2036,3.1854,3.1332,3.2689,3.3615,3.4084,3.346,3.2933,0.0,0.0,0.0,0.0,0.0,0.0,1.8842,1.8981,1.9342,2.2159,2.244,2.2697,2.4364,2.4666,2.4811,2.5226,2.6069,2.6845,2.7283,2.7659,2.789,2.789,2.789,2.789,2.789,2.789,2.789,2.789,2.789,2.789,2.789,2.789,2.7868,2.7773,2.8234,2.8464,2.8464,2.8982,2.9274,2.9371,2.9698,2.9871,2.9871,3.0237,3.0398,3.0398,3.0398,3.0398,3.0475,3.1448,3.2064,3.241,3.241,3.2602,3.2891,3.2891,3.2891,3.2878,3.2793,3.2766,3.2704,3.233,3.2448,3.2681,3.2363,3.2539,3.2797,3.2797,3.2797,3.2797,3.2797,3.3054,3.3311,3.3311,3.3568,3.3807,3.3807,3.3494,3.328,3.3544,3.3224,3.3002,3.3277,3.3626,3.374,3.3446,3.3659,3.3744,3.3448,3.3778,3.4032,3.4032,3.4032,3.4032,3.4032,3.3643,3.3406,3.3406,3.316,3.288,3.2579,3.1989,3.1316,3.0554,3.0645,3.0321,2.969,3.1334,3.2187,3.2305,3.2248,3.2006,1.2251,1.3358,0.0,0.0,1.5471,0.0,1.8695,1.8431,1.8288,2.0788,2.1368,2.1864,2.3248,2.3526,2.3845,2.4811,2.4919,2.5252,2.6311,2.711,2.758,2.758,2.758,2.758,2.758,2.755,2.7569,2.758,2.755,2.7558,2.7558,2.7558,2.7462,2.7287,2.7382,2.742,2.742,2.7515,2.7669,2.7868,2.8579,2.8956,2.8986,2.9775,3.0121,3.0121,3.0121,3.0167,3.022,3.022,3.0751,3.1564,3.1564,3.1975,3.2577,3.2577,3.2564,3.2524,3.2329,3.2267,3.2216,3.1974,3.1785,3.1651,3.1629,3.1515,3.1384,3.1384,3.1384,3.1384,3.1384,3.1935,3.2485,3.2485,3.3018,3.3532,3.3532,3.3322,3.2979,3.2459,3.2074,3.166,3.1252,3.1732,3.2195,3.2195,3.273,3.3169,3.3169,3.3237,3.3288,3.3288,3.3288,3.3288,3.3288,3.3203,3.3169,3.3169,3.259,3.1968,3.1308,3.0639,2.9984,2.9332,2.9225,2.8966,2.8415,3.0402,3.1051,3.0366,3.1093,3.1044,1.3717,1.4474,1.5293,1.4908,1.559,0.0,1.5941,1.6081,1.6763,1.8456,1.8318,1.8653,2.1176,2.1765,2.2093,2.2783,2.3673,2.4572,2.5437,2.5565,2.5573,2.5573,2.5573,2.5573,2.5573,2.5469,2.5443,2.5562,2.5469,2.5389,2.5389,2.5389,2.5394,2.5352,2.5958,2.6298,2.6298,2.6995,2.7457,2.7657,2.7822,2.798,2.814,2.8313,2.839,2.839,2.839,2.8668,2.9115,2.9115,2.9711,3.0648,3.0648,3.0612,3.0567,3.0567,3.0464,3.0305,3.029,3.0273,3.0239,3.002,3.0348,3.0785,3.0577,3.0919,3.1384,3.1384,3.1384,3.1384,3.1384,3.1513,3.1623,3.1623,3.1751,3.1861,3.1861,3.2324,3.2474,3.1706,3.1672,3.166,3.1252,3.1309,3.141,3.141,3.1529,3.163,3.163,3.2138,3.2493,3.2493,3.2493,3.2493,3.2493,3.1968,3.163,3.163,3.1075,3.0655,3.0507,2.9478,2.8826,2.8701,2.8222,2.7894,2.776,2.9218,2.9585,2.8996,2.9659,2.9922,1.4992,1.5272,1.5742,1.6055,0.0,0.0,0.0,1.6435,1.6936,1.8378,1.7964,1.8001,2.0318,2.0609,2.0766,2.1568,2.2462,2.3225,2.3732,2.4476,2.4974,2.4917,2.4904,2.4904,2.4904,2.4842,2.4828,2.4891,2.4842,2.4804,2.4804,2.4804,2.476,2.4654,2.5048,2.5255,2.5255,2.5684,2.6001,2.6208,2.6607,2.6858,2.6975,2.7408,2.7599,2.7599,2.7599,2.7774,2.8051,2.8051,2.8375,2.8935,2.9746,2.9958,2.9845,2.9845,2.978,2.9678,2.9589,2.9551,2.9513,2.9289,2.9459,2.9769,2.9651,2.9879,3.021,3.021,3.021,3.021,3.021,3.0503,3.0797,3.0797,3.1109,3.1384,3.1384,3.1587,3.1546,3.0876,3.1024,3.1248,3.1201,3.119,3.119,3.119,3.119,3.119,3.119,3.1512,3.1732,3.1732,3.1732,3.1732,3.1732,3.141,3.119,3.119,3.0351,2.9848,2.9848,2.867,2.8042,2.8042,2.776,2.7625,2.7625,2.8243,2.841,2.8098,2.8786,2.9086,1.6301,1.6335,1.6572,1.7292,0.0,1.6974,0.0,0.0,0.0,1.8464,1.7962,1.7869,0.0,1.9394,1.9343,2.0358,2.1049,2.1446,2.1441,2.2962,2.4117,2.4252,2.4407,2.4501,2.4501,2.435,2.4373,2.4666,2.4385,2.4347,2.4666,2.4685,2.4607,2.4444,2.4426,2.4426,2.4426,2.4426,2.4526,2.4746,2.5405,2.5737,2.5786,2.6499,2.6817,2.6817,2.6817,2.688,2.7,2.7,2.7062,2.7292,2.8697,2.9302,2.9398,2.9398,2.9475,2.9533,2.9373,2.933,2.9289,2.9067,2.8994,2.8994,2.8994,2.8994,2.8994,2.8994,2.8994,2.8994,2.8994,2.9494,2.9971,2.9971,3.04,3.0833,3.0833,3.0685,3.0406,2.9955,3.0204,3.0575,3.0913,3.1106,3.119,3.119,3.119,3.119,3.119,3.119,3.119,3.119,3.119,3.119,3.119,3.119,3.1151,3.1015,2.9978,2.9361,2.9225,2.8174,2.7625,2.7625,2.7625,2.7625,2.7625,2.7625,2.7625,2.7625,2.8143,2.8412,0.0,0.0,0.0,0.0,1.7952,1.8737,1.5592,0.0,1.7463,1.6484,0.0,1.6501,1.7779,0.0,0.0,1.8264,1.9054,1.9228,1.8429,1.9719,2.1147,2.2193,2.3011,2.3462,2.3462,2.2768,2.2858,2.4174,2.2939,2.2755,2.4192,2.4266,2.4266,2.4228,2.4228,2.4228,2.4228,2.4228,2.4339,2.4545,2.4638,2.4754,2.4936,2.503,2.5087,2.5087,2.5087,2.538,2.5872,2.5872,2.621,2.6739,2.7334,2.7876,2.8278,2.8278,2.8623,2.9089,2.9044,2.9062,2.904,2.9017,2.8994,2.8994,2.8994,2.8994,2.8994,2.8994,2.8994,2.8994,2.8994,2.9067,2.9122,2.9122,2.8949,2.8742,2.8742,2.9044,2.9172,2.8697,2.9207,2.9817,3.0166,3.0768,3.119,3.119,3.119,3.119,3.119,3.119,3.119,3.119,3.119,3.119,3.119,3.119,3.0975,3.0435,2.9761,2.9134,2.8606,2.7944,2.7625,2.7625,2.7625,2.7625,2.7625,2.7625,2.7625,2.7625,2.77,2.7679,0.0,0.0,0.0,1.797,1.8076,1.8091,1.672,1.6796,1.7241,1.7569,0.0,0.0,0.0,0.0,0.0,0.0,1.7354,1.7442,1.7046,1.7565,1.8693,2.0551,2.1239,2.1799,2.238,2.1576,2.1509,2.2721,2.1498,2.1441,2.3133,2.3066,2.3181,2.361,2.361,2.361,2.361,2.361,2.3759,2.404,2.404,2.4174,2.4444,2.4444,2.4444,2.4444,2.4444,2.4614,2.4838,2.4838,2.4984,2.5219,2.5412,2.621,2.7241,2.7241,2.7398,2.7622,2.7622,2.7622,2.7695,2.8154,2.8301,2.8393,2.8847,2.8994,2.8994,2.8994,2.8839,2.8658,2.8658,2.8507,2.836,2.836,2.8228,2.8102,2.8102,2.807,2.8019,2.7802,2.8199,2.8612,2.8757,2.9414,2.9905,2.9905,3.0294,3.0565,3.0565,3.0937,3.119,3.119,3.0878,3.0699,3.0699,3.0351,3.0038,2.9805,2.9225,2.8591,2.7993,2.771,2.7625,2.7625,2.7625,2.7625,2.7625,2.7625,2.7625,2.7625,2.7625,2.7625,1.9186,1.9414,1.9507,1.8643,1.8083,1.7586,1.7019,1.6948,1.7236,1.8115,1.7876,0.0,0.0,0.0,1.6361,1.6219,0.0,1.5923,1.5503,1.5574,1.6484,1.868,1.9345,1.9954,2.0878,1.9953,1.9845,2.1188,2.001,2.0075,2.1985,2.2103,2.2367,2.2893,2.3082,2.3189,2.3189,2.3189,2.3323,2.3566,2.3566,2.3735,2.4074,2.4074,2.4113,2.419,2.419,2.4151,2.4074,2.417,2.4151,2.4074,2.417,2.4905,2.597,2.619,2.641,2.6612,2.6612,2.6612,2.6704,2.7273,2.7475,2.7585,2.8172,2.8333,2.8388,2.8613,2.8379,2.8131,2.8322,2.8156,2.7897,2.7897,2.7811,2.7754,2.7754,2.7409,2.7147,2.7147,2.7317,2.752,2.752,2.8332,2.9011,2.9011,2.9448,2.9803,2.9803,3.026,3.0543,3.0393,3.0002,2.9658,2.9517,2.9076,2.8866,2.8878,2.8497,2.8042,2.7625,2.7625,2.7625,2.7625,2.7625,2.7625,2.7625,2.7625,2.7625,2.7625,2.7625,2.7625,2.0927,2.1225,2.0842,1.7978,1.8052,1.8115,1.5238,1.6234,1.7591,1.6919,1.7884,1.8699,1.8284,1.7363,1.6533,1.6009,1.5533,0.0,0.0,1.3453,1.4449,1.6303,1.7329,1.8153,1.8825,1.7581,1.7633,1.9807,1.8485,1.859,2.0924,2.1714,2.2118,2.2136,2.284,2.3189,2.3189,2.3189,2.3212,2.323,2.323,2.3392,2.3714,2.3714,2.3896,2.419,2.419,2.4016,2.3735,2.4074,2.4016,2.3753,2.4074,2.4226,2.4373,2.5164,2.5933,2.6612,2.6612,2.6612,2.6612,2.6631,2.6649,2.6649,2.6667,2.6686,2.6851,2.7622,2.7541,2.7428,2.8196,2.8156,2.7897,2.7897,2.7589,2.7334,2.7334,2.6987,2.6725,2.6725,2.6742,2.6725,2.6725,2.7977,2.9011,2.9011,2.9045,2.9062,2.9062,2.9079,2.8878,2.8357,2.8279,2.8066,2.755,2.7467,2.7503,2.7579,2.7613,2.7625,2.7625,2.7625,2.7625,2.7625,2.7625,2.7625,2.7625,2.7625,2.7625,2.7625,2.7625,2.7625,2.0681,2.1354,2.1591,1.9571,1.8612,1.7777,1.6289,1.6525,1.6982,1.6749,1.7884,1.8633,1.7742,1.6931,1.6088,1.5246,1.4549,1.3646,0.0,1.2205,1.2773,1.3989,1.5435,0.0,1.7167,1.6008,1.6062,1.8164,1.682,1.6973,1.9413,1.9604,2.0094,2.1078,2.161,2.2108,2.2598,2.2598,2.2695,2.2873,2.2873,2.3045,2.3369,2.3369,2.3414,2.3544,2.3544,2.3459,2.3392,2.35,2.3459,2.3392,2.3482,2.3544,2.3624,2.4346,2.4777,2.5016,2.5016,2.5016,2.5107,2.5621,2.5661,2.5564,2.6113,2.6103,2.5997,2.6267,2.6088,2.5852,2.6161,2.6307,2.6392,2.6392,2.6644,2.6906,2.6906,2.6791,2.6691,2.6691,2.6691,2.6691,2.6691,2.7114,2.7469,2.7469,2.7892,2.8213,2.8213,2.867,2.8794,2.8252,2.7825,2.7377,2.6855,2.6435,2.6199,2.6213,2.6281,2.6467,2.6901,2.6916,2.7126,2.761,2.7625,2.7625,2.7625,2.7625,2.7625,2.7575,2.71,2.7137,2.0845,2.1458,2.1709,2.0347,1.9292,1.8268,1.7004,1.7122,1.741,1.7134,1.8048,1.8778,1.8326,1.716,1.5993,1.525,1.4211,1.3067,0.0,1.1753,1.204,1.2635,0.0,0.0,0.0,1.4213,1.4297,1.6021,1.5195,1.5523,1.7612,1.8045,1.8767,1.9972,2.0511,2.1194,2.2032,2.2032,2.2215,2.2563,2.2563,2.273,2.3021,2.3021,2.3093,2.3189,2.3189,2.3117,2.3021,2.3141,2.3117,2.3045,2.3141,2.3189,2.3236,2.3692,2.3837,2.3837,2.3837,2.3837,2.3928,2.4457,2.4472,2.4405,2.4908,2.4932,2.4821,2.5105,2.4927,2.4733,2.5021,2.515,2.5203,2.5203,2.5558,2.5981,2.6251,2.6302,2.6387,2.664,2.6691,2.6691,2.6691,2.6691,2.6691,2.6691,2.7114,2.7418,2.7418,2.7858,2.8003,2.7474,2.7075,2.6542,2.5835,2.5455,2.5255,2.5255,2.548,2.5794,2.6228,2.6467,2.6782,2.7215,2.7505,2.7625,2.7625,2.7625,2.7625,2.7575,2.7086,2.6982]}]]